[[{"header":{"parameterUnit":"m.s-1","parameterCategory":1,"la1":30.6,"la2":29.2853,"lo1":-89.7004,"lo2":-87.6739,"dy":0.0162,"dx":0.0183,"nx":112,"ny":82,"refTime":"2026-05-09T12:00:00:Z","depth":0,"parameterNumber":2,"parameterNumberName":"U-component_of_WINDS"},"data":[0.0,0.0,0.0,0.0,0.0,0.0,0.0,0.0,0.0,0.0,0.0,0.0,0.0,0.0,0.0,0.0,0.0,0.0,0.0,0.0,0.0,0.0,0.0,0.0,0.0,0.0,0.0,0.0,0.0,0.0,0.0,0.0,0.0,0.0,0.0,0.0,0.0,0.0,0.0,0.0,0.0,0.0,0.0,0.0,0.0,0.0,0.0,0.0,0.0,0.0,0.0,0.0,0.0,0.0,0.0,0.0,0.0,0.0,0.0,0.0,0.0,0.0,0.0,0.0,0.0,0.0,0.0,0.0,0.0,0.0,0.0,0.0,0.0,0.0,0.0,0.0,0.0,0.0,0.0,0.0,0.0,0.0,0.0,0.0,0.0,0.0,0.0,0.0,0.0,0.0,0.5175,0.456,0.55,0.6167,0.6153,0.6779,0.6733,0.5693,0.0,0.0,0.0,0.0,0.0,0.0,0.0,0.0,0.0,0.0,0.0,0.0,0.0,0.0,0.0,0.0,0.0,0.0,0.0,0.0,0.0,0.0,0.0,0.0,0.0,0.0,0.0,0.0,0.0,0.0,0.0,0.0,0.0,0.0,0.0,0.0,0.0,0.0,0.0,0.0,0.0,0.0,0.0,0.0,0.0,0.0,0.0,0.0,0.0,0.0,0.0,0.0,0.0,0.0,0.0,0.0,0.0,0.0,0.0,0.0,0.0,0.0,0.0,0.0,0.0,0.0,0.0,0.0,0.0,0.0,0.0,0.0,0.0,0.0,0.0,0.0,0.0,0.0,0.0,0.0,0.0,0.0,0.0,0.0,0.0,0.0,0.0,0.0,0.0,0.0,0.0,0.0,0.0,0.0,0.0,0.0,0.0,0.0,0.0,0.0,0.0,0.0,0.0,0.0,0.5175,0.456,0.5126,0.5536,0.5542,0.6457,0.6792,0.6215,0.0,0.0,0.0,0.0,0.0,0.0,0.0,0.0,0.0,0.0,0.0,0.0,0.0,0.0,0.0,0.0,0.0,0.0,0.0,0.0,0.0,0.0,0.0,0.0,0.0,0.0,0.0,0.0,0.0,0.0,0.0,0.0,0.0,0.0,0.0,0.0,0.0,0.0,0.0,0.0,0.0,0.0,0.0,0.0,0.0,0.0,0.0,0.0,0.0,0.0,0.0,0.0,0.0,0.0,0.0,0.0,0.0,0.0,0.0,0.0,0.0,0.0,0.0,0.0,0.0,0.0,0.0,0.0,0.0,0.0,0.0,0.0,0.0,0.0,0.0,0.0,0.0,0.0,0.0,0.0,0.0,0.0,0.0,0.0,0.0,0.0,0.0,0.0,0.0,0.0,0.0,0.0,0.0,0.0,0.0,0.0,0.0,0.0,0.0,0.0,0.0,0.0,0.0,0.441,0.4504,0.4842,0.513,0.5176,0.488,0.5837,0.6115,0.5314,0.5063,0.0,0.0,0.0,0.0,0.0,0.0,0.0,0.0,0.0,0.0,0.0,0.0,0.0,0.0,0.0,0.0,0.0,0.0,0.0,0.0,0.0,0.0,0.0,0.0,0.0,0.0,0.0,0.0,0.0,0.0,0.0,0.0,0.0,0.0,0.0,0.0,0.0,0.0,0.0,0.0,0.0,0.0,0.0,0.0,0.0,0.0,0.0,0.0,0.0,0.0,0.0,0.0,0.0,0.0,0.0,0.0,0.0,0.0,0.0,0.0,0.0,0.0,0.0,0.0,0.0,0.0,0.0,0.0,0.0,0.0,0.0,0.0,0.0,0.0,0.0,0.0,0.0,0.0,0.0,0.0,0.0,0.0,0.0,0.0,0.0,0.0,0.0,0.0,0.0,0.0,0.0,0.0,0.0,0.0,0.0,0.0,0.0,0.0,0.0,0.0,0.0,0.0,0.4015,0.3855,0.4863,0.5046,0.4903,0.4389,0.5332,0.5498,0.4441,0.438,0.0,0.0,0.0,0.0,0.0,0.0,0.0,0.0,0.0,0.0,0.0,0.0,0.0,0.0,0.0,0.0,0.0,0.0,0.0,0.0,0.0,0.0,0.0,0.0,0.0,0.0,0.0,0.0,0.0,0.0,0.0,0.0,0.0,0.0,0.0,0.0,0.0,0.0,0.0,0.0,0.0,0.0,0.0,0.0,0.0,0.0,0.0,0.0,0.0,0.0,0.0,0.0,0.0,0.0,0.0,0.0,0.0,0.0,0.0,0.0,0.0,0.0,0.0,0.0,0.0,0.0,0.0,0.0,0.0,0.0,0.0,0.0,0.0,0.0,0.0,0.0,0.0,0.0,0.0,0.0,0.0,0.0,0.0,0.0,0.0,0.0,0.0,0.0,0.0,0.0,0.0,0.0,0.0,0.0,0.0,0.0,0.0,0.0,0.0,0.0,0.0,0.0,0.3455,0.3624,0.4203,0.4611,0.4659,0.425,0.52,0.5385,0.4378,0.4308,0.0,0.0,0.0,0.0,0.0,0.0,0.0,0.0,0.0,0.0,0.0,0.0,0.0,0.0,0.0,0.0,0.0,0.0,0.0,0.0,0.0,0.0,0.0,0.0,0.0,0.0,0.0,0.0,0.0,0.0,0.0,0.0,0.0,0.0,0.0,0.0,0.0,0.0,0.0,0.0,0.0,0.0,0.0,0.0,0.0,0.0,0.0,0.0,0.0,0.0,0.0,0.0,0.0,0.0,0.0,0.0,0.0,0.0,0.0,0.0,0.0,0.0,0.0,0.0,0.0,0.0,0.0,0.0,0.0,0.0,0.0,0.0,0.0,0.0,0.0,0.0,0.0,0.0,0.0,0.0,0.0,0.0,0.0,0.0,0.0,0.0,0.0,0.0,0.0,0.0,0.0,0.0,0.0,0.0,0.0,0.0,0.0,0.0,0.0,0.0,0.0,0.0,0.3361,0.3546,0.0,0.4233,0.4127,0.3684,0.4351,0.4499,0.378,0.0,0.0,0.0,0.0,0.0,0.0,0.0,0.0,0.0,0.0,0.0,0.0,0.0,0.0,0.0,0.0,0.0,0.0,0.0,0.0,0.0,0.0,0.0,0.0,0.0,0.0,0.0,0.0,0.0,0.0,0.0,0.0,0.0,0.0,0.0,0.0,0.0,0.0,0.0,0.0,0.0,0.0,0.0,0.0,0.0,0.0,0.0,0.0,0.0,0.0,0.0,0.0,0.0,0.0,0.0,0.0,0.0,0.0,0.0,0.0,0.0,0.0,0.0,0.0,0.0,0.0,0.0,0.0,0.0,0.0,0.0,0.0,0.0,0.0,0.0,0.0,0.0,0.0,0.0,0.0,0.0,0.0,0.0,0.0,0.0,0.0,0.0,0.0,0.0,0.0,0.0,0.0,0.0,0.0,0.0,0.0,0.0,0.0,0.0,0.0,0.0,0.0,0.3347,0.3404,0.3543,0.0,0.4001,0.3912,0.3315,0.3797,0.3925,0.3436,0.0,0.0,0.0,0.0,0.0,0.0,0.0,0.0,0.0,0.0,0.0,0.0,0.0,0.0,0.0,0.0,0.0,0.0,0.0,0.0,0.0,0.0,0.0,0.0,0.0,0.0,0.0,0.0,0.0,0.0,0.0,0.0,0.0,0.0,0.0,0.0,0.0,0.0,0.0,0.0,0.0,0.0,0.0,0.0,0.0,0.0,0.0,0.0,0.0,0.0,0.0,0.0,0.0,0.0,0.0,0.0,0.0,0.0,0.0,0.0,0.0,0.0,0.0,0.0,0.0,0.0,0.0,0.0,0.0,0.0,0.0,0.0,0.0,0.0,0.0,0.0,0.0,0.0,0.0,0.0,0.0,0.0,0.0,0.0,0.0,0.0,0.0,0.0,0.0,0.0,0.0,0.0,0.0,0.0,0.0,0.0,0.0,0.0,0.0,0.0,0.0,0.0,0.3222,0.3547,0.3625,0.3155,0.3941,0.4137,0.3276,0.3684,0.3821,0.0,0.0,0.0,0.0,0.0,0.0,0.0,0.0,0.0,0.0,0.0,0.0,0.0,0.0,0.0,0.0,0.0,0.0,0.0,0.0,0.0,0.0,0.0,0.0,0.0,0.0,0.0,0.0,0.0,0.0,0.0,0.0,0.0,0.0,0.0,0.0,0.0,0.0,0.0,0.0,0.0,0.0,0.0,0.0,0.0,0.0,0.0,0.0,0.0,0.0,0.0,0.0,0.0,0.0,0.0,0.0,0.0,0.0,0.0,0.0,0.0,0.0,0.0,0.0,0.0,0.0,0.0,0.0,0.0,0.0,0.0,0.0,0.0,0.0,0.0,0.0,0.0,0.0,0.0,0.0,0.0,0.0,0.0,0.0,0.0,0.0,0.0,0.0,0.0,0.0,0.0,0.0,0.0,0.0,0.0,0.0,0.0,0.0,0.0,0.0,0.0,0.0,0.0,0.314,0.3517,0.3622,0.3152,0.3646,0.3793,0.3247,0.3389,0.347,0.3411,0.0,0.0,0.0,0.0,0.0,0.0,0.0,0.0,0.0,0.0,0.0,0.0,0.0,0.0,0.0,0.0,0.0,0.0,0.0,0.0,0.0,0.0,0.0,0.0,0.0,0.0,0.0,0.0,0.0,0.0,0.0,0.0,0.0,0.0,0.0,0.0,0.0,0.0,0.0,0.0,0.0,0.0,0.0,0.0,0.0,0.0,0.0,0.0,0.0,0.0,0.0,0.0,0.0,0.0,0.0,0.0,0.0,0.0,0.0,0.0,0.0,0.0,0.0,0.0,0.0,0.0,0.0,0.0,0.0,0.0,0.0,0.0,0.0,0.0,0.0,0.0,0.0,0.0,0.0,0.0,0.0,0.0,0.0,0.0,0.0,0.0,0.0,0.0,0.0,0.0,0.0,0.0,0.0,0.0,0.0,0.0,0.0,0.0,0.0,0.0,0.0,0.0,0.3384,0.3934,0.4143,0.3671,0.4065,0.4119,0.3524,0.3538,0.3523,0.3408,0.0,0.0,0.0,0.0,0.0,0.0,0.0,0.0,0.0,0.0,0.0,0.0,0.0,0.0,0.0,0.0,0.0,0.0,0.0,0.0,0.0,0.0,0.0,0.0,0.0,0.0,0.0,0.0,0.0,0.0,0.0,0.0,0.0,0.0,0.0,0.0,0.0,0.0,0.0,0.0,0.0,0.0,0.0,0.0,0.0,0.0,0.0,0.0,0.0,0.0,0.0,0.0,0.0,0.0,0.0,0.0,0.0,0.0,0.0,0.0,0.0,0.0,0.0,0.0,0.0,0.0,0.0,0.0,0.0,0.0,0.0,0.0,0.0,0.0,0.0,0.0,0.0,0.0,0.0,0.0,0.0,0.0,0.0,0.0,0.0,0.0,0.0,0.0,0.0,0.0,0.0,0.0,0.0,0.0,0.0,0.0,0.0,0.0,0.0,0.0,0.0,0.0,0.3808,0.4559,0.492,0.4448,0.4873,0.4835,0.3961,0.3952,0.3826,0.3421,0.0,0.0,0.0,0.0,0.0,0.0,0.0,0.0,0.0,0.0,0.0,0.0,0.0,0.0,0.0,0.0,0.0,0.0,0.0,0.0,0.0,0.0,0.0,0.0,0.0,0.0,0.0,0.0,0.0,0.0,0.0,0.0,0.0,0.0,0.0,0.0,0.0,0.0,0.0,0.0,0.0,0.0,0.0,0.0,0.0,0.0,0.0,0.0,0.0,0.0,0.0,0.0,0.0,0.0,0.0,0.0,0.0,0.0,0.0,0.0,0.7663,0.0,0.0,0.0,0.0,0.0,0.0,0.0,0.0,0.0,0.0,0.0,0.0,0.0,0.0,0.0,0.0,0.0,0.0,0.0,0.0,0.0,0.0,0.0,0.0,0.0,0.0,0.0,0.0,0.0,0.0,0.0,0.0,0.0,0.0,0.0,0.0,0.0,0.0,0.0,0.0,0.0,0.374,0.4526,0.492,0.4448,0.4835,0.4769,0.3895,0.3926,0.3804,0.3349,0.3376,0.0,0.0,0.0,0.0,0.0,0.0,0.0,0.0,0.0,0.0,0.0,0.0,0.0,0.0,0.0,0.0,0.0,0.0,0.0,0.0,0.0,0.0,0.0,0.0,0.0,0.0,0.0,0.0,0.0,0.0,0.0,0.0,0.0,0.0,0.0,0.0,0.0,0.0,0.0,0.0,0.0,0.0,0.0,0.0,0.0,0.0,0.0,0.0,0.0,0.0,0.0,0.0,0.0,0.0,0.0,0.0,0.0,0.0,0.0,0.0,0.8419,0.0,0.0,0.0,0.0,0.0,0.0,0.0,0.0,0.0,0.0,0.0,0.0,0.0,0.0,0.0,0.0,0.0,0.0,0.0,0.0,0.0,0.0,0.0,0.0,0.0,0.0,0.0,0.0,0.0,0.0,0.0,0.0,0.0,0.0,0.0,0.0,0.0,0.0,0.0,0.0,0.4358,0.5192,0.5591,0.5119,0.5496,0.5403,0.4502,0.452,0.4286,0.358,0.3818,0.0,0.0,0.0,0.0,0.0,0.0,0.0,0.0,0.0,0.0,0.0,0.0,0.0,0.0,0.0,0.0,0.0,0.0,0.0,0.0,0.0,0.0,0.0,0.0,0.0,0.0,0.0,0.0,0.0,0.0,0.0,0.0,0.0,0.0,0.0,0.0,0.0,0.0,0.0,0.0,0.0,0.0,0.0,0.0,0.0,0.0,0.0,0.0,0.0,0.0,0.0,0.0,0.0,0.6075,0.5214,0.5754,0.7976,0.8896,0.8743,0.8743,0.8505,0.8111,0.8364,0.0,0.0,0.0,0.0,0.0,0.0,0.0,0.0,0.0,0.0,0.0,0.0,0.0,0.0,0.0,0.0,0.0,0.0,0.0,0.0,0.0,0.0,0.0,0.0,0.6828,0.6344,0.4516,0.0,0.0,0.0,0.0,0.0,0.0,0.0,0.0,0.0,0.0,0.0,0.5065,0.5919,0.6316,0.5853,0.6223,0.6118,0.5181,0.5155,0.4825,0.3969,0.426,0.4117,0.0,0.0,0.0,0.0,0.0,0.0,0.0,0.0,0.0,0.0,0.0,0.0,0.0,0.0,0.0,0.0,0.0,0.0,0.0,0.0,0.0,0.0,0.0,0.0,0.0,0.0,0.0,0.0,0.0,0.0,0.0,0.0,0.4864,0.4984,0.0,0.0,0.0,0.0,0.0,0.0,0.0,0.0,0.0,0.0,0.0,0.0,0.0,0.7856,0.7618,0.7614,0.7788,0.8145,0.7775,0.8845,1.117,1.1525,1.1545,1.1312,1.1312,0.0,0.8108,0.8266,0.0,0.0,0.0,0.0,0.0,0.0,0.0,0.0,0.0,0.0,0.0,0.0,0.0,0.0,0.0,0.0,0.0,0.0,0.0,0.0,0.0,0.0,0.6796,0.6461,0.6513,0.6554,0.0,0.6984,0.7314,0.6072,0.5821,0.0,0.0,0.0,0.0,0.0,0.0,0.0,0.5105,0.5919,0.6316,0.5853,0.6223,0.6118,0.5181,0.5105,0.4914,0.4441,0.4095,0.3849,0.3721,0.3387,0.0,0.0,0.0,0.0,0.0,0.0,0.0,0.0,0.0,0.0,0.0,0.0,0.0,0.0,0.0,0.0,0.0,0.0,0.0,0.0,0.0,0.0,0.0,0.0,0.0,0.0,0.0,0.0,0.0,0.4737,0.4704,0.4774,0.4749,0.4751,0.0,0.0,0.0,0.0,0.0,0.0,0.0,0.0,0.0,0.6744,0.7817,0.8292,0.8097,0.8094,0.8094,0.8094,0.8094,0.9543,1.2205,1.2205,1.2044,1.1816,1.1965,1.2253,1.242,0.9421,0.8219,0.8278,0.0,0.0,0.0,0.0,0.8278,0.8272,0.8206,0.8149,0.8085,0.7949,0.0,0.0,0.0,0.0,0.0,0.0,0.0,0.0,0.0,0.0,0.7742,0.7209,0.733,0.7497,0.7319,0.7665,0.7656,0.0,0.5869,0.5522,0.5356,0.0,0.0,0.0,0.0,0.5738,0.6271,0.6667,0.6717,0.6245,0.6607,0.6514,0.5569,0.5496,0.5286,0.4816,0.4834,0.4514,0.3718,0.3703,0.3452,0.0,0.0,0.0,0.0,0.0,0.0,0.0,0.0,0.0,0.0,0.0,0.0,0.0,0.0,0.0,0.0,0.0,0.0,0.0,0.0,0.0,0.0,0.0,0.0,0.0,0.0,0.0,0.0,0.4654,0.4561,0.4503,0.4506,0.4553,0.0,0.0,0.0,0.0,0.0,0.0,0.5354,0.7384,0.8498,0.8396,0.8299,0.8203,0.8094,0.8094,0.8449,0.9158,0.9843,1.1206,1.3124,1.3124,1.3052,1.2945,1.3137,1.436,1.5832,1.1101,0.9158,0.9081,0.8371,0.8094,0.8094,0.8094,0.8094,0.8087,0.8064,0.8054,0.8119,0.8575,0.9194,0.9893,1.0516,0.0,0.0,0.0,0.0,0.7331,0.7454,0.8136,0.862,0.7917,0.7935,0.8028,0.7776,0.7717,0.7495,0.0,0.6104,0.5797,0.6063,0.0,0.0,0.0,0.0,0.6253,0.7003,0.7265,0.7192,0.6728,0.7099,0.7006,0.6052,0.598,0.5748,0.5211,0.5393,0.5038,0.3979,0.4102,0.3803,0.2974,0.0,0.0,0.0,0.0,0.0,0.0,0.0,0.0,0.0,0.0,0.0,0.0,0.0,0.0,0.0,0.0,0.0,0.0,0.0,0.0,0.0,0.0,0.0,0.0,0.0,0.0,0.0,0.0,0.0,0.424,0.4388,0.0,0.0,0.0,0.0,0.7744,0.791,0.791,0.791,0.8059,0.8121,0.8114,0.8108,0.8101,0.8094,0.8094,0.9404,1.202,1.4584,1.5733,1.5625,1.5625,1.5752,1.5988,1.5986,1.6078,1.5986,1.3165,1.1989,1.1727,0.9127,0.8094,0.8094,0.8094,0.8094,0.8089,0.796,0.791,0.8239,1.0287,0.9276,0.7712,0.9996,0.9021,0.0,0.0,0.7472,0.796,0.8414,0.8243,0.7947,0.7908,0.7712,0.7537,0.752,0.7514,0.7514,0.0,0.7451,0.7223,0.6737,0.0,0.6394,0.5998,0.6242,0.6484,0.6533,0.7314,0.7678,0.7218,0.7591,0.7487,0.6547,0.6465,0.6242,0.5701,0.5267,0.4972,0.4845,0.4432,0.3934,0.3377,0.3374,0.0,0.0,0.0,0.0,0.0,0.0,0.0,0.0,0.0,0.0,0.0,0.0,0.0,0.0,0.0,0.0,0.0,0.0,0.0,0.0,0.0,0.0,0.0,0.0,0.0,0.0,0.0,0.0,0.6776,0.6933,0.0,0.7187,0.5544,0.5467,0.7917,0.8094,0.8094,0.8094,0.8094,0.8094,0.8094,0.8094,0.8957,1.0726,1.2451,1.3794,1.4784,1.5747,1.6062,1.5799,1.5799,1.5949,1.6201,1.6201,1.6201,1.5986,1.3309,1.3217,1.4677,1.3707,1.3302,1.3302,1.3302,1.3302,1.3028,1.1087,1.0102,0.9821,1.0597,1.0203,0.9866,1.2285,1.2414,1.1729,1.1729,1.0069,0.8337,0.8548,0.8955,0.9311,0.9311,0.9307,0.9223,0.8918,0.8858,0.877,0.8495,0.7857,0.7405,0.7515,0.7483,0.7486,0.7612,0.7507,0.751,0.7811,0.7881,0.7837,0.7667,0.7798,0.764,0.7012,0.6635,0.6353,0.6159,0.5631,0.5179,0.4844,0.4676,0.4332,0.38,0.3698,0.3447,0.0,0.0,0.0,0.0,0.0,0.0,0.0,0.0,0.0,0.0,0.0,0.0,0.0,0.0,0.0,0.0,0.0,0.0,0.0,0.0,0.0,0.0,0.0,0.0,0.0,0.0,0.7973,0.9448,0.9656,0.9738,0.9874,0.8189,0.7753,0.9359,0.8618,0.8089,0.8037,0.8033,0.8057,0.8094,0.9004,1.0757,1.3395,1.5184,1.6111,1.6201,1.6201,1.6062,1.5799,1.5799,1.5949,1.6201,1.6201,1.6153,1.5931,1.4148,1.4462,1.6076,1.6166,1.6201,1.6201,1.6201,1.6201,1.5865,1.3474,1.2321,1.1906,1.1906,1.1906,1.2217,1.3812,1.4308,1.4284,1.4162,1.1891,0.9501,0.9451,0.9775,1.0102,1.0102,1.0167,1.0154,0.9837,0.9767,0.9678,0.9366,0.8474,0.7815,0.7973,0.7946,0.7951,0.8113,0.7999,0.8017,0.832,0.8228,0.813,0.813,0.813,0.7945,0.7475,0.6939,0.656,0.6376,0.5822,0.5366,0.5049,0.5038,0.4782,0.4253,0.3903,0.3521,0.31,0.0,0.0,0.0,0.0,0.0,0.0,0.0,0.0,0.0,0.0,0.0,0.0,0.0,0.0,0.0,0.0,0.0,0.0,0.0,0.0,0.0,0.0,0.0,0.8106,0.8353,0.9303,1.184,1.2174,1.2205,1.2205,1.2205,1.2159,1.2082,0.9601,0.8044,0.7906,0.7974,0.8122,0.8349,1.0932,1.3441,1.5784,1.5799,1.5934,1.6201,1.6194,1.6048,1.5799,1.5799,1.5949,1.6201,1.6194,1.6041,1.5799,1.5799,1.5799,1.5827,1.609,1.6194,1.6201,1.6201,1.6194,1.6004,1.4733,1.4308,1.4308,1.4308,1.4308,1.4308,1.4308,1.4308,1.4235,1.3896,1.2709,1.1477,1.1189,1.0631,1.0146,1.0146,1.0146,1.0135,1.0124,1.0113,1.0113,1.0102,0.9365,0.8597,0.8149,0.8001,0.7787,0.7338,0.7645,0.0,0.7925,0.832,0.8607,0.8607,0.8607,0.8418,0.7962,0.7411,0.6882,0.6356,0.5808,0.5502,0.5502,0.5502,0.5247,0.4716,0.3987,0.3387,0.2925,0.0,0.0,0.0,0.0,0.0,0.0,0.0,0.0,0.0,0.0,0.0,0.0,0.0,0.0,0.0,0.0,0.0,0.0,0.0,0.0,0.0,0.6952,0.7998,0.9157,0.9526,0.9943,1.0656,1.1608,1.2205,1.2205,1.2205,1.1373,0.9374,0.8526,0.8044,0.7906,0.9704,1.1717,1.3895,1.4517,1.5126,1.5784,1.5799,1.5934,1.6201,1.5998,1.587,1.5799,1.5799,1.5949,1.6194,1.5991,1.587,1.5799,1.5799,1.5799,1.5806,1.5877,1.6034,1.6201,1.6201,1.6083,1.577,1.4663,1.4308,1.4308,1.4308,1.4308,1.4284,1.4179,1.4219,1.4206,1.3787,1.3103,1.2334,1.159,1.1247,1.112,1.112,1.112,1.1022,1.0679,1.0611,1.0513,1.0168,0.9899,0.9669,0.9548,0.9185,0.8876,0.8738,0.8546,0.0,0.8407,0.852,0.8607,0.8607,0.8607,0.8553,0.8418,0.7561,0.6964,0.6813,0.5981,0.5502,0.5502,0.5502,0.5269,0.4782,0.4242,0.38,0.0,0.0,0.0,0.0,0.0,0.0,0.0,0.0,0.0,0.0,0.0,0.0,0.0,0.0,0.0,0.0,0.0,0.0,0.0,0.0,0.0,0.0,0.7535,0.8582,0.9408,0.9925,1.0193,1.0193,1.1386,1.1743,1.0587,1.0479,0.9821,0.8217,0.9173,0.9779,0.971,1.2204,1.4374,1.5988,1.5877,1.5799,1.5799,1.5799,1.5877,1.6034,1.587,1.5799,1.5799,1.5799,1.5892,1.6026,1.5863,1.6421,1.7424,1.7424,1.7424,0.0,0.0,0.0,0.0,0.0,1.5389,1.5276,1.4551,1.4308,1.4382,1.4897,1.5051,1.498,1.4564,1.4604,1.4612,1.3663,1.3088,1.2608,1.1868,1.1577,1.1494,1.1494,1.1494,1.1427,1.1153,1.1087,1.1009,1.0734,1.0699,0.0,1.0699,1.0094,0.9555,0.9336,0.9064,0.8822,0.8622,0.8607,0.8607,0.8607,0.8607,0.8593,0.8558,0.7785,0.0,0.0,0.0,0.5956,0.5755,0.5644,0.0,0.0,0.0,0.0,0.0,0.0,0.0,0.0,0.3419,0.3491,0.0,0.0,0.0,0.0,0.0,0.0,0.0,0.0,0.0,0.0,0.0,0.0,0.0,0.0,0.0,0.0,0.8251,0.8551,0.9291,0.9857,1.0255,1.0415,1.1479,1.1126,0.8371,0.8094,0.8094,0.8094,1.0649,1.2328,1.2631,0.0,0.0,0.0,0.0,1.5799,1.5799,1.5799,1.5799,1.5799,1.5799,1.5799,1.5799,1.5799,1.5963,1.6248,1.6248,1.7559,1.9708,1.9708,1.9708,1.9468,1.7155,1.63,1.6248,1.5121,1.4727,1.4706,1.4405,0.0,0.0,1.5874,1.6299,1.614,1.5247,1.5087,1.4936,1.3546,1.2827,1.238,1.1984,1.1686,1.1494,1.1494,1.1494,1.1494,1.1494,1.1494,1.1494,1.1494,1.1494,1.1494,1.1494,1.0749,0.9996,0.9516,0.9346,0.9129,0.871,0.8608,0.8575,0.8575,0.0,0.0,0.8488,0.8002,0.7667,0.7607,0.7089,0.6588,0.6142,0.5875,0.5423,0.4751,0.4611,0.4426,0.4187,0.4469,0.4459,0.419,0.4093,0.3966,0.0,0.0,0.0,0.0,0.0,0.0,0.0,0.0,0.0,0.0,0.0,0.0,0.0,0.0,0.0,0.7422,0.7948,0.8707,0.9865,1.0124,1.0621,1.1768,1.2086,1.1126,0.8371,0.8094,0.8094,0.8094,1.0649,1.3149,1.5316,1.5916,1.6083,1.5806,1.5799,1.5799,1.5799,1.5799,1.5799,1.5799,0.0,0.0,1.5799,1.5799,1.6945,1.8944,1.8944,1.9228,1.9708,1.9708,1.9708,1.9648,1.9139,1.8382,1.7537,1.7293,1.6,1.4397,1.4324,1.4308,1.4661,1.6847,1.7553,1.73,1.5898,1.4534,0.0,1.3435,1.2605,1.1715,1.1727,1.1615,1.1494,1.1494,1.1494,1.1494,1.1494,1.1494,1.1494,1.1494,1.1494,1.1494,1.1494,1.0951,1.0467,1.0364,0.9657,0.9109,0.9023,0.8678,0.8432,0.8432,0.8432,0.8435,0.8421,0.7927,0.7613,0.76,0.7051,0.6583,0.6273,0.6111,0.5681,0.4957,0.4863,0.459,0.4122,0.4445,0.4654,0.4736,0.4455,0.4417,0.0,0.0,0.0,0.0,0.0,0.0,0.0,0.0,0.0,0.0,0.0,0.7104,0.7776,0.0,0.8249,0.8682,0.884,0.9129,0.9755,1.0024,1.0669,1.2081,1.1598,1.0351,0.8294,0.8094,0.8094,0.8094,1.1887,1.4727,1.5936,1.5998,1.5998,1.5998,1.5998,1.5942,1.5799,1.5799,1.5799,1.5814,1.7125,1.7754,1.7754,1.7754,1.8465,1.9708,1.9708,1.9708,1.9726,1.9913,1.9762,1.9389,1.9176,1.8606,1.7864,1.7569,1.6872,1.5924,1.4715,1.4937,1.598,1.7429,1.7808,1.7575,1.6935,1.6146,1.5104,1.3423,1.2247,1.1513,1.158,1.155,1.1494,1.1494,1.1494,1.1494,1.1494,1.1494,1.1494,1.1494,1.1494,1.1494,1.1494,1.1168,1.083,1.0628,0.9945,0.9361,0.9135,0.8687,0.8396,0.8396,0.8396,0.8382,0.8351,0.807,0.7896,0.7896,0.7524,0.7091,0.662,0.6446,0.6004,0.5267,0.5119,0.4979,0.4849,0.4952,0.5054,0.5145,0.4948,0.4922,0.0,0.0,0.0,0.0,0.0,0.0,0.0,0.0,0.7405,0.7879,0.8254,0.8733,0.9442,0.9413,0.9453,0.9976,0.9828,0.9634,0.9622,0.9898,1.062,1.2036,1.1194,0.987,0.8264,0.8094,0.8325,0.8849,1.2944,1.5533,1.5783,1.5799,1.592,1.6194,1.6153,1.6019,1.5799,1.5799,1.6046,1.657,1.8689,1.9708,1.9708,1.9708,1.9708,1.9708,1.9708,1.9708,1.9702,1.9878,1.9466,1.8717,1.8562,1.8208,1.7746,1.737,1.7506,1.7617,1.5666,1.5976,1.7261,1.7645,1.7645,1.7516,1.7706,1.7609,1.6811,1.3842,1.2459,1.1842,1.1722,1.1677,1.1613,1.1516,1.1494,1.1494,1.1494,1.1494,1.1494,1.1494,1.1494,1.1494,1.1476,1.1317,1.1095,1.0773,1.0159,0.9613,0.9232,0.8697,0.8365,0.8365,0.8365,0.8336,0.829,0.823,0.8194,0.8194,0.8016,0.7617,0.6983,0.6783,0.6313,0.5532,0.5358,0.5343,0.5462,0.5417,0.539,0.5383,0.5392,0.5363,0.7087,0.6855,0.68,0.6738,0.6625,0.6745,0.0,0.0,0.7879,0.905,0.9279,0.9473,1.0083,0.9851,0.9554,0.958,0.989,1.0094,1.0043,1.0061,1.062,1.2036,1.2066,1.0957,0.8356,0.8094,0.9111,1.1558,1.2292,1.3565,1.5693,1.5799,1.592,1.6194,1.597,1.5827,1.5799,1.5799,1.6975,1.9273,1.9558,1.9708,1.9708,1.9708,1.9708,1.9708,1.9708,1.9708,1.9654,1.8979,1.8195,1.7475,1.823,1.8072,1.7506,1.7849,1.794,1.7861,1.759,1.7367,1.7209,1.7261,1.7344,1.7383,1.7313,1.657,1.5681,1.5268,1.4198,1.3063,1.2537,1.2254,1.2015,1.1602,1.1494,1.1494,1.1494,1.1494,1.1494,1.1494,1.1494,1.1476,1.1421,1.1299,1.1173,1.1139,1.0225,0.9514,0.9454,0.873,0.8223,0.8223,0.8223,0.8223,0.8208,0.8201,0.8194,0.8194,0.8016,0.7673,0.7191,0.7036,0.6522,0.5606,0.5563,0.537,0.4978,0.5263,0.5369,0.5319,0.5605,0.5583,0.8271,0.8474,0.8775,0.0,0.8694,0.8786,0.9467,0.9412,0.9509,1.0471,1.0885,1.1162,1.1415,1.1268,1.1096,0.0,1.1247,1.1346,1.1327,1.1317,1.1538,1.2128,1.2205,1.1743,1.0607,1.0499,1.0957,1.2113,1.2205,1.2569,1.343,1.4952,1.5849,1.5963,1.5856,1.5799,1.5799,1.7305,1.8623,1.9708,1.9708,1.9708,1.9708,1.9708,1.9708,1.9708,1.9708,1.9708,1.9645,1.8841,1.8139,1.7655,1.8085,1.8026,1.7737,1.8079,1.8009,1.7723,1.7683,1.7458,1.7199,1.7199,1.724,1.7272,1.722,1.6791,1.6266,1.5981,1.5091,1.4127,1.3707,1.3248,1.2855,1.2649,1.2255,1.1906,1.1906,1.1662,1.144,1.144,1.1384,1.1327,1.1299,1.1205,1.1139,1.1139,1.0194,0.9501,0.9501,0.8738,0.8194,0.8194,0.8194,0.8194,0.8194,0.8194,0.8194,0.8194,0.8016,0.7686,0.7218,0.7077,0.6671,0.5965,0.5875,0.5717,0.5487,0.5584,0.562,0.5598,0.573,0.5722,0.9114,0.9637,0.0,1.0177,1.0197,1.0389,1.1085,1.0965,1.0914,1.1632,1.2059,1.2282,1.2288,1.2231,1.2205,1.2205,1.2205,1.2205,1.2205,1.2205,1.2205,1.2205,1.2205,1.2205,1.2205,1.2205,1.2205,1.2205,1.2126,1.2331,1.2867,1.4743,1.5799,1.5799,1.5799,1.5799,1.5799,1.839,1.9708,1.9708,1.9708,1.9708,1.9708,1.9708,1.9708,1.9708,1.9708,1.9708,1.9654,1.895,1.8356,1.7912,1.8013,1.7912,1.7727,1.7919,1.7804,1.7537,1.7485,1.7341,1.7199,1.7199,1.7199,1.7199,1.7199,1.7094,1.6897,1.6502,1.5692,1.4846,1.4439,1.3905,1.3445,1.3303,1.2724,1.2201,1.2201,1.1784,1.1404,1.1404,1.1299,1.1185,1.1175,1.1129,1.1092,1.1044,1.0264,0.9645,0.9522,0.8738,0.8246,0.8377,0.8284,0.8253,0.838,0.8277,0.8194,0.8194,0.8016,0.7686,0.7218,0.7077,0.6733,0.6153,0.6044,0.5959,0.5865,0.5826,0.5796,0.5796,0.5796,0.5796,0.9114,0.0,1.0183,1.0114,1.0541,1.1132,1.1736,1.1654,1.1662,1.233,1.2379,1.2272,1.2221,1.2205,1.2205,1.2205,1.2205,1.2205,1.2205,1.2205,1.2205,1.2205,1.2205,1.2205,0.0,1.2205,1.2205,1.2205,1.1965,1.2931,1.5547,1.5754,1.5799,1.5799,1.5799,1.5799,1.5799,1.839,1.9708,1.9708,1.9708,1.9708,1.9708,1.9708,1.9708,1.9708,1.9708,1.9708,1.9672,1.926,1.8606,1.7902,1.7902,1.7635,1.722,1.723,1.7313,1.7403,1.7393,1.7313,1.7199,1.7199,1.7199,1.7199,1.7199,1.7199,1.7147,1.6939,1.6109,1.5103,1.4314,1.3903,1.3565,1.3031,1.2551,1.2201,1.2201,1.1784,1.1404,1.1404,1.1299,1.1175,1.1111,1.1102,1.1053,1.093,1.0488,1.0006,0.9563,0.8738,0.8377,0.8823,0.8471,0.8388,0.8844,0.846,0.8194,0.8194,0.8016,0.7686,0.7218,0.7077,0.6686,0.6021,0.5998,0.5928,0.5803,0.5803,0.5796,0.5796,0.5796,0.5796,0.9167,0.0,0.9775,1.1048,1.19,1.2481,1.2554,1.2285,1.2102,1.2382,1.2364,1.2282,1.2205,1.2318,1.2364,1.2226,1.2205,1.2205,1.2205,1.2205,1.2205,1.2205,1.2205,0.0,0.0,0.0,0.0,1.1954,1.3492,1.4848,1.5747,1.5799,1.5802,1.5796,1.5802,1.5799,1.5799,1.839,1.9708,1.9708,1.9708,1.9708,1.9708,1.9708,1.9708,1.9708,1.9708,1.9708,1.9699,1.9539,1.887,1.7892,1.7744,1.7499,1.7199,1.7199,1.723,1.7272,1.7272,1.724,1.7199,1.7199,1.7199,1.7199,1.7199,1.7199,1.7157,1.696,1.6293,1.5542,1.5131,1.4597,1.4111,1.3947,1.3259,1.266,1.266,1.1932,1.1271,1.1271,1.1129,1.0986,1.0977,1.1226,1.1413,1.1374,1.0435,0.9676,0.9522,0.9007,0.8826,0.9257,0.9156,0.9125,0.928,0.8901,0.8668,0.8668,0.8178,0.7807,0.7605,0.7425,0.7122,0.6667,0.6658,0.658,0.6399,0.6399,0.6399,0.6399,0.6399,0.6399,1.0083,1.0224,1.0499,1.1812,1.2684,1.3154,1.2974,1.2657,1.2393,1.2368,1.2363,1.2423,1.26,1.2615,1.2523,1.2236,1.2205,1.2205,1.2205,1.2205,1.256,1.3519,1.3627,1.3586,0.0,0.0,0.0,1.3244,1.4832,1.5799,1.5799,1.5802,1.58,1.5799,1.6712,1.7189,1.7189,1.8858,1.9708,1.9708,1.9708,1.9708,1.9708,1.9708,1.9708,1.9708,1.9708,1.9708,1.9708,1.9708,1.8993,1.7882,1.7683,1.7434,1.7199,1.7199,1.7199,1.7199,1.7199,1.7199,1.7199,1.7199,1.7199,1.7199,1.7199,1.7199,1.7157,1.696,1.6369,1.5744,1.5546,1.4949,1.4396,1.4396,1.3783,1.3183,1.3183,1.2398,1.1692,1.1692,1.1545,1.1406,1.1406,1.1644,1.1851,1.1851,1.094,1.0136,0.979,0.9526,0.9462,0.9726,0.9604,0.9573,0.9738,0.9516,0.9367,0.9367,0.8916,0.8532,0.8279,0.7932,0.7568,0.7184,0.7173,0.7132,0.7061,0.6935,0.6877,0.6877,0.676,0.6702,1.1703,1.2214,1.2205,1.2409,1.2822,1.3153,1.3024,1.2792,1.2538,1.2347,1.2409,1.2622,0.0,0.0,1.2673,1.2262,1.2205,1.2205,1.2205,1.2328,1.335,0.0,0.0,0.0,0.0,0.0,0.0,1.5807,0.0,1.5806,1.5807,1.5801,1.5855,1.5995,1.8403,1.9707,1.9698,1.97,1.9708,1.9708,1.9708,1.9708,1.9708,1.9708,1.9708,1.9708,1.9708,1.9708,1.9708,1.9708,1.8993,1.7882,1.7659,1.7413,1.7199,1.7199,1.7199,1.7199,1.7199,1.7199,1.7199,1.7199,1.7199,1.7199,1.7199,1.7199,1.7157,1.696,1.6369,1.5744,1.5546,1.4949,1.4396,1.4396,1.4035,1.3696,1.3696,1.3119,1.2595,1.2595,1.2446,1.2307,1.2328,1.2328,1.2338,1.2359,1.1996,1.1364,1.0426,1.0292,1.0282,1.0293,0.9912,0.9829,1.0271,1.0292,1.0273,1.0273,1.0116,0.9761,0.918,0.8577,0.8042,0.7587,0.7575,0.7629,0.7741,0.7426,0.7265,0.7253,0.6936,0.679,1.2508,1.3157,1.3084,1.3195,1.31,1.2985,1.3054,1.2834,1.2565,1.2474,1.2353,1.1818,0.0,0.0,0.0,1.2262,1.2205,0.0,1.2205,1.3929,0.0,1.6124,0.0,1.5983,1.5813,1.5799,0.0,0.0,1.5795,1.5802,1.5805,1.5796,1.6697,1.8649,1.9343,1.9689,1.9701,1.9695,1.9708,1.9708,1.9708,1.9708,1.9708,1.9708,1.9708,1.9708,1.9708,1.9708,1.9708,1.9708,1.8993,1.7862,1.7458,1.7261,1.7199,1.7199,1.7199,1.7199,1.7199,1.7199,1.7199,1.7199,1.7199,1.7199,1.7199,1.7199,1.7157,1.696,1.6369,1.5744,1.5546,1.4949,1.4396,1.4396,1.4035,1.3696,1.3696,1.3119,1.2595,1.2595,1.2446,1.2401,1.2699,1.275,1.2864,1.3217,1.3176,1.2772,1.1882,1.1467,1.1374,1.1737,1.1664,1.1623,1.1747,1.1436,1.124,1.124,1.0651,1.0176,0.993,0.9382,0.8939,0.8632,0.8621,0.8504,0.8294,0.8318,0.8245,0.8086,0.8011,0.7964,1.2973,1.3551,1.3487,1.3505,1.3324,1.3179,1.3269,1.3107,1.2894,1.2689,1.2537,0.0,0.9331,1.1044,1.2673,0.0,0.0,0.0,1.2205,1.4507,1.6159,0.0,1.6011,0.0,1.5813,1.5799,1.5795,0.0,1.5801,1.58,1.5802,1.6887,1.8179,1.9653,1.9694,1.9706,1.9693,1.9708,1.9708,1.9708,1.9708,1.9708,1.9708,1.9708,1.9708,1.9708,0.0,1.9708,1.9708,1.9708,1.8993,1.7852,1.7375,1.7199,1.7199,1.7199,1.7199,1.7199,1.7199,1.7199,1.7199,1.7199,1.7199,1.7188,1.7126,1.7105,1.7042,1.6723,1.6183,1.5645,1.539,1.4857,1.4396,1.4396,1.4199,1.3991,1.3934,1.3549,1.3189,1.3056,1.2955,1.2937,1.3174,1.3204,1.3309,1.3567,1.3609,1.3423,1.2928,1.2462,1.2203,1.2286,1.2307,1.2307,1.2307,1.2224,1.2172,1.2172,1.1609,1.1104,1.0698,1.005,0.952,0.9138,0.91,0.9074,0.9074,0.8969,0.8907,0.8873,0.8725,0.8669,1.3246,1.3601,1.3577,1.3515,1.3496,1.3492,1.3492,1.3136,1.2697,1.2346,0.0,1.1585,0.9312,1.0715,1.2214,1.2195,0.0,1.2205,1.2205,1.4387,1.5913,1.5675,1.5844,1.5941,1.582,1.5806,1.5846,1.5951,1.6189,1.6325,1.6313,1.8467,1.9689,1.9701,1.9703,1.9708,1.9708,1.9708,1.9708,1.9708,1.9708,1.9708,1.9708,1.9708,1.9708,1.9708,1.9672,1.9749,1.9871,1.965,1.8965,1.799,1.7435,1.722,1.7199,1.7199,1.7199,1.7199,1.7199,1.7199,1.7199,1.7199,1.7199,1.7167,1.7044,1.6971,1.6842,1.6411,1.5921,1.5457,1.5142,1.4731,1.4373,1.4373,1.4361,1.4326,1.4199,1.4069,1.3892,1.3644,1.3609,1.3609,1.3609,1.3609,1.3609,1.3609,1.3609,1.3609,1.3609,1.3235,1.2854,1.2504,1.2473,1.2473,1.2473,1.2793,1.2998,1.2998,1.2666,1.2169,1.1455,1.0676,0.9998,0.9417,0.9368,0.9479,0.9759,0.9444,0.9367,0.9512,0.9223,0.9095,1.3536,1.3601,1.3577,1.3515,1.3459,1.3417,1.3417,1.1476,0.0,0.0,0.9581,0.9432,0.8987,0.9095,0.9889,1.1885,1.2205,1.2205,1.2205,1.3796,1.4934,0.0,1.5495,1.5914,1.5877,1.5827,0.0,0.0,1.8206,1.9019,1.902,1.9443,1.9708,1.9701,1.969,1.9708,1.9708,1.9708,1.9708,1.9708,1.9708,1.9708,1.9708,1.9708,1.9708,1.9699,1.9517,0.0,2.0686,1.946,1.8873,1.8642,1.772,1.7303,1.7199,1.7199,1.7199,1.7199,1.7199,1.7199,1.7199,1.7199,1.7199,1.7167,1.7044,1.681,1.6532,1.6297,1.5725,1.5142,1.4983,1.4593,1.4234,1.4234,1.415,1.4057,1.4033,1.3927,1.3797,1.3622,1.3609,1.3609,1.3609,1.3609,1.3609,1.3609,1.3609,1.3609,1.3609,1.3536,1.3454,1.3381,1.3371,1.3371,1.3371,1.3443,1.3485,1.3485,1.3066,1.2609,1.2159,1.1451,1.0742,0.9979,1.0064,0.9924,0.9558,0.9703,0.9742,0.9664,0.9611,0.9574,1.3601,1.3601,1.3589,1.3559,1.3523,1.3491,1.3417,0.0,0.0,0.0,0.8897,0.8897,0.8897,0.8686,0.8836,0.9893,1.1265,1.2205,1.2205,1.3424,1.4404,1.4628,1.5392,1.5892,1.5842,1.5813,1.5973,1.6394,1.8456,1.9705,1.9701,1.9699,1.9706,1.9693,1.9708,1.9708,1.9708,1.9708,1.9708,1.9708,1.9708,1.9708,1.9708,1.9708,1.9708,1.9711,2.0088,2.0314,2.0408,2.0235,1.9775,1.9163,1.8679,1.8221,1.7824,1.7824,1.7562,1.7199,1.7199,1.7199,1.7199,1.7199,1.7199,1.7167,1.7002,1.6693,1.6326,1.599,1.5457,1.496,1.4789,1.4535,1.4292,1.4222,1.4034,1.3892,1.3892,1.3787,1.368,1.361,1.3609,1.3609,1.3609,1.3609,1.3609,1.3609,1.3609,1.3609,1.3609,1.3609,1.3609,1.3609,1.338,1.3235,1.3235,1.3041,1.2999,1.3167,1.2836,1.2517,1.2255,1.1843,1.1224,1.0374,1.0388,1.0205,0.9809,0.9905,0.9978,1.001,1.001,1.001,1.3601,1.3601,1.3601,1.3601,1.3573,1.3359,1.2615,1.0605,0.0,0.8897,0.8872,0.8841,0.8815,0.8625,0.838,0.0,1.0406,1.2298,1.2585,1.3357,1.4076,1.4621,1.5387,0.0,1.5806,1.5799,0.0,1.5976,1.8154,1.9545,1.9696,1.9708,1.9708,1.9708,1.9708,1.9708,1.9708,1.9708,1.9708,1.9708,1.9708,1.9708,1.9708,1.9708,1.9708,1.974,2.0504,2.0527,2.01,2.0801,2.0534,1.9635,1.9482,1.904,1.8504,1.8436,1.7968,1.7369,1.7238,1.7199,1.7199,1.7199,1.7199,1.7157,1.696,1.6563,1.6106,1.569,1.5198,1.4754,1.4604,1.4465,1.4315,1.4152,1.3952,1.3787,1.3751,1.3668,1.3609,1.3609,1.3609,1.3609,1.3609,1.3609,1.3609,1.3609,1.3609,1.3609,1.3609,1.3609,1.3567,1.3452,1.3121,1.2863,1.2781,1.2483,1.244,1.2781,1.2549,1.2375,1.2307,1.1997,1.1471,1.0675,1.0538,1.0353,1.0084,1.0042,1.0127,1.0303,1.0303,1.0352,1.3601,1.3601,1.3601,1.3601,1.3502,1.2705,0.9948,0.0,0.8897,0.8897,0.8803,0.8687,0.8568,0.8409,0.8276,0.8121,1.0406,1.2631,1.383,1.3689,1.3834,1.4834,0.0,0.0,1.5799,1.5799,1.6024,1.6584,1.7971,1.9054,1.9678,1.9708,1.9708,1.9708,1.9708,1.9708,1.9708,1.9708,1.9708,1.9708,1.9708,1.9708,1.9708,1.9708,1.9708,1.9711,2.0112,2.0369,0.0,2.0242,2.0139,2.0077,1.9395,1.9017,1.8819,1.8504,1.8242,1.7944,1.7382,1.7199,1.7199,1.7199,1.7199,1.7157,1.696,1.6412,1.5799,1.5568,1.4994,1.4443,1.443,1.4326,1.4152,1.3893,1.3821,1.3773,1.3644,1.3609,1.3609,1.3609,1.3609,1.3609,1.3609,1.3609,1.3609,1.3609,1.3609,1.3609,1.3609,1.3609,1.3443,1.3008,1.2925,1.275,1.239,1.2318,1.244,1.2781,1.2549,1.2479,1.2645,1.1982,1.1391,1.0887,1.0562,1.0279,1.0007,1.0058,1.0157,1.0303,1.0303,1.0498,1.3601,1.3543,1.3043,1.1216,1.2094,1.2617,0.9592,0.0,0.8897,0.8897,0.8733,0.8521,0.8301,0.8213,0.8162,0.8104,1.0406,1.239,1.2918,1.413,1.4825,1.444,1.5231,1.5799,0.0,0.0,1.6046,1.6644,1.7571,1.8395,1.9061,1.9474,1.9708,1.9708,2.0217,2.0477,2.0477,2.1001,2.1001,2.0492,2.0776,2.0687,2.0318,2.0722,2.0747,2.0503,2.101,2.1087,0.0,2.0762,2.0628,2.0467,2.017,2.003,1.9967,1.9835,1.9143,1.8242,1.8007,1.7615,1.7264,1.7617,1.7735,1.7692,1.7453,1.7091,1.6655,1.6125,1.5415,1.4756,1.4461,1.4303,1.4217,1.4326,1.4058,1.3751,1.3632,1.3609,1.3609,1.3609,1.3609,1.3609,1.3609,1.3609,1.3609,1.3609,1.3609,1.3609,1.3609,1.3609,1.3329,1.2607,1.2534,1.2359,1.1913,1.1623,1.1686,1.2218,1.1887,1.1892,1.2378,1.188,1.138,1.0907,1.0767,1.0531,1.0176,1.0215,1.0254,1.0312,1.0557,1.0752,1.3601,1.3528,1.2912,1.0764,1.1164,1.1516,0.9388,0.8863,0.8838,0.8784,0.8594,0.8373,0.8135,0.8094,0.8371,0.9189,1.0941,1.2292,1.2549,1.4322,1.5256,1.4403,0.0,1.5799,1.5799,1.5799,1.5979,1.6391,1.7227,1.7997,1.8664,1.9525,1.9998,1.9998,2.0657,2.1121,2.1375,2.1989,2.1989,2.139,2.16,2.1455,2.1012,2.1485,2.1515,2.1221,2.1698,2.1595,0.0,2.1176,2.1009,2.0699,2.0699,2.0699,2.0699,2.0699,1.9901,1.8804,1.8752,1.8281,1.7774,1.8192,1.8453,1.8552,1.8289,1.7837,1.7279,1.6669,1.5926,1.5202,1.4734,1.4642,1.4674,1.4699,1.4385,1.3978,1.3665,1.3609,1.3609,1.3609,1.3609,1.3609,1.3609,1.3609,1.3609,1.3609,1.3609,1.3557,1.34,1.339,1.3062,1.2183,1.2089,1.1902,1.1426,1.1085,1.1122,1.1668,1.1376,1.1452,1.2002,1.1612,1.1242,1.0908,1.0781,1.0576,1.0303,1.0303,1.0303,1.0312,1.0713,1.1103,1.3601,1.3547,1.3488,1.3379,1.1127,0.8931,0.8914,0.8797,0.8666,0.8533,0.839,0.8269,0.8121,0.8094,0.8988,1.1712,1.2174,1.2503,1.3367,1.4135,1.4718,0.0,1.5472,1.5799,1.5799,1.5799,1.5799,1.5814,1.6974,0.0,1.8664,1.9965,2.0688,2.0688,2.0887,2.1405,2.2288,2.2303,2.2303,2.2288,2.1889,2.1695,2.168,2.1695,2.1695,2.169,2.1831,2.1666,0.0,2.1238,2.1009,2.0699,2.0699,2.0699,2.0699,2.0699,2.0308,1.976,1.9554,1.9226,1.8873,1.8898,1.9303,1.9738,1.9459,1.8459,1.7339,1.707,1.6399,1.5678,1.5213,1.5442,1.5606,1.4871,1.4692,1.4491,1.3762,1.3609,1.3609,1.3609,1.3609,1.3609,1.3609,1.3609,1.3609,1.3609,1.3609,1.3431,1.2967,1.2915,1.2575,1.1695,1.1612,1.1426,1.0952,1.0901,1.0989,1.1186,1.1196,1.1313,1.1596,1.1153,1.0908,1.0898,1.0508,1.0293,1.0303,1.0303,1.0303,1.0312,1.0713,1.1611,1.2206,1.2011,1.1281,1.0569,1.0404,1.0141,0.9131,0.873,0.8492,0.8278,0.8189,0.8149,0.8104,0.8094,0.9004,1.1758,1.2205,1.2298,1.258,1.3761,0.0,1.4342,1.5186,1.5799,0.0,0.0,1.5799,1.5799,1.6974,1.7997,1.8664,1.9965,2.0907,2.138,2.1884,2.2298,2.2568,2.2977,2.2977,2.2583,2.2872,2.2782,2.2403,2.2802,2.2996,2.3001,2.2854,2.2248,2.135,2.1254,2.1009,2.0699,2.0699,2.0699,2.0699,2.0699,2.0321,1.9799,1.9722,1.9343,1.8965,1.9381,1.9631,1.983,1.991,1.927,1.8243,1.7,1.6234,1.5844,1.6007,1.5931,1.568,1.5275,1.4937,1.4491,1.3762,1.3609,1.3609,1.3609,1.3609,1.3609,1.3609,1.3609,1.3609,1.3609,1.334,1.307,1.2925,1.2658,1.2265,1.1664,1.1602,1.1405,1.0941,1.0901,1.0989,1.1196,1.0945,1.0885,1.1104,1.0703,1.0488,1.0488,1.0361,1.0303,1.0303,1.0586,1.1182,1.2062,1.1883,1.2476,1.1124,1.1325,1.0872,1.0065,1.0934,1.1399,0.924,0.8575,0.8367,0.8138,0.8094,0.8094,0.8094,0.8094,0.888,1.128,1.1522,1.1676,1.2462,0.0,0.0,1.4647,1.5339,0.0,0.0,1.6009,1.6144,1.6144,1.7572,1.8753,1.9411,2.0737,2.1754,2.2398,2.2598,2.2808,2.3047,2.3411,2.3411,2.3037,2.3426,2.34,2.3052,2.343,2.3595,2.3599,2.3327,2.2638,0.0,2.1338,2.1009,2.0699,2.0699,2.0699,2.0699,2.0699,2.0464,2.0138,2.0138,1.989,1.9641,2.0021,2.0053,1.992,1.98,1.933,1.8521,1.694,1.6435,1.6391,1.6478,1.6435,1.6205,1.5542,1.5182,1.4713,1.3803,1.3609,1.3609,1.3609,1.3609,1.3609,1.3609,1.3609,1.3609,1.3609,1.3349,1.305,1.272,1.2452,1.2048,1.1405,1.1498,1.1477,1.1188,1.1158,1.1255,1.1447,1.1095,1.0875,1.0898,1.0518,1.0361,1.0518,1.0527,1.0606,1.0792,1.1191,1.1992,1.3118,1.283,1.3198,0.0,1.1168,1.1675,1.1254,1.2122,1.2272,0.9176,0.8367,0.0,0.8121,0.8094,0.8125,0.8186,0.8186,0.8772,1.0607,1.0532,1.0943,1.2913,1.3706,0.0,0.0,1.5799,1.5829,1.5851,1.6368,1.6711,1.6764,1.8544,1.9923,2.0593,2.1854,2.2857,2.3516,2.2992,2.2992,2.3595,2.3595,2.3595,2.3595,2.3595,2.3595,2.3595,2.3595,2.3595,0.0,2.3301,2.2797,2.2135,2.1482,2.1021,2.0699,2.0699,2.0699,2.0699,2.0699,2.0699,2.0699,2.0699,2.0699,2.0699,2.0699,2.0473,2.0054,1.9238,1.8814,1.8307,1.693,1.6931,1.7197,1.6686,1.6918,1.6958,1.5694,1.5392,1.5061,1.3865,1.3609,1.3609,1.3609,1.3609,1.3609,1.3609,1.3609,1.3609,1.3609,1.3566,1.3269,1.2452,1.2328,1.1965,1.1086,1.1395,1.1664,1.1695,1.1674,1.1716,1.1892,1.1549,1.1205,1.0908,1.0576,1.0547,1.0888,1.0927,1.1182,1.1693,1.207,1.271,1.3591,1.3564,1.3766,0.9411,0.0,0.9695,0.9626,0.9791,0.9643,0.0,0.8165,0.8135,0.8101,0.8094,0.8325,0.9046,0.8996,0.952,1.1542,1.1774,1.2046,1.2996,1.4025,0.0,1.5716,1.5799,1.5979,1.6435,1.6614,1.6913,1.7436,1.838,1.9226,1.9893,2.0722,2.171,2.2872,2.2778,2.2992,2.3595,2.3595,2.3595,2.3595,2.3595,2.3595,2.3595,2.3595,2.3595,2.3573,2.3146,2.2652,2.2084,2.1566,2.1094,2.0699,2.0699,2.0699,2.0699,2.0699,2.0699,2.0699,2.0699,2.0699,2.0699,2.0699,2.0473,2.0054,1.9238,1.8814,1.8388,1.7387,1.7205,1.7259,1.7139,1.7086,1.6787,1.5668,1.5328,1.4935,1.3841,1.3609,1.3609,1.3609,1.3609,1.3609,1.3609,1.3609,1.3609,1.3609,1.3287,1.2987,1.2792,1.2493,1.2224,1.1985,1.2069,1.2255,1.2564,1.2306,1.2066,1.1912,1.181,1.1494,1.0918,1.1143,1.1173,1.0908,1.1241,1.1819,1.2592,1.2688,1.3343,1.4496,1.4127,1.4205,0.9019,0.8996,0.901,0.9051,0.8835,0.855,0.8266,0.8142,0.8101,0.8144,0.0,0.8356,0.9165,0.9422,1.0086,1.1826,1.2341,1.2846,0.0,0.0,1.5472,1.5754,1.6031,1.6338,0.0,1.7264,1.7773,1.8132,1.9059,1.977,2.0139,2.0787,2.1485,2.2224,2.2239,2.2677,2.3595,2.3595,2.3595,2.3595,2.3595,2.3595,2.3595,2.3566,2.3512,2.3436,2.2971,2.2457,2.1933,2.1482,2.107,2.0699,2.0699,2.0699,2.0699,2.0699,2.0699,2.0699,2.0699,2.0699,2.0699,2.0699,2.0473,2.0054,1.9238,1.8814,1.8412,1.7545,1.7306,1.7278,1.7197,1.7078,1.6708,1.559,1.5252,1.491,1.3831,1.3609,1.3609,1.3609,1.3774,1.3919,1.3919,1.4095,1.4179,1.395,1.3712,1.3391,1.2956,1.271,1.2503,1.2318,1.2462,1.2657,1.2849,1.2817,1.2718,1.2515,1.2268,1.1947,1.1513,1.1565,1.1663,1.1807,1.2422,1.3088,1.3763,1.3763,1.4222,1.5059,1.4639,1.4439,0.8886,0.9007,0.9109,0.8965,0.8615,0.829,0.8292,0.0,0.0,0.0,0.0,0.0,0.9285,0.9901,0.0,1.1958,0.0,0.0,1.5019,1.5591,1.5864,1.5806,1.6323,0.0,1.6838,1.7968,1.8747,1.8843,1.9905,2.0548,2.0548,2.1081,2.145,2.1545,2.1545,2.2113,2.3295,2.331,2.331,2.331,2.331,2.331,2.331,2.3218,2.3089,2.2937,0.0,0.0,2.1586,2.1286,2.0984,2.0699,2.0699,2.0699,2.0699,2.0699,2.0699,2.0699,2.0699,2.0699,2.0699,2.0699,2.0473,2.0054,1.9238,1.8814,1.8412,1.7545,1.7306,1.7253,1.7092,1.7011,1.6688,1.5595,1.5316,1.502,1.4038,1.3815,1.3815,1.3815,1.4126,1.4417,1.4417,1.4738,1.4863,1.4469,1.4417,1.4115,1.3318,1.3214,1.3093,1.2753,1.302,1.319,1.3119,1.3397,1.3516,1.3383,1.2829,1.2454,1.2313,1.1985,1.2171,1.2971,1.3714,1.4332,1.4799,1.4799,1.4985,1.5298,1.4965,1.4512,0.8753,0.9235,0.9574,0.8781,0.8434,0.8289,0.8232,0.0,0.0,0.0,0.0,0.0,0.0,1.129,1.1958,0.0,0.0,1.4869,0.0,0.0,1.5806,1.5799,0.0,1.6928,1.7496,1.8252,1.8942,1.9504,1.9744,1.9848,1.9848,1.9953,2.0273,2.0847,2.0847,2.1221,2.1979,2.1994,2.1994,2.1994,2.1994,2.1994,2.1994,2.1807,2.1618,2.1437,0.0,2.1191,2.0724,2.0941,2.0898,2.0699,2.0699,2.0699,2.0699,2.0699,2.0699,2.0699,2.0699,2.0699,2.0699,2.0699,2.0473,2.0054,1.9238,1.8814,1.8412,1.7545,1.7306,1.7292,1.7253,1.7043,1.6683,1.6099,1.5783,1.5472,1.4917,1.479,1.479,1.479,1.4842,1.4894,1.4894,1.4956,1.4976,1.4904,1.4894,1.4842,1.4697,1.4676,1.4656,1.4583,1.4645,1.4625,1.4496,1.4444,1.4329,1.4133,1.3412,1.2928,1.2795,1.2727,1.2922,1.3398,1.386,1.4332,1.4799,1.4799,1.4828,1.4897,1.4828,1.4379,0.8606,0.9416,1.0064,0.9164,0.9327,0.9698,0.9674,0.977,0.0,0.0,0.0,0.0,0.0,0.0,1.3512,1.4828,0.0,1.5669,1.6834,1.6315,1.5795,0.0,0.0,1.7223,1.8,1.8783,1.9369,1.9678,1.9708,1.9708,1.9708,1.9708,1.9833,2.0154,2.0154,2.0312,2.0612,2.0612,2.0986,2.1695,2.1695,2.1695,2.1695,2.1485,2.1278,2.1052,0.0,2.0964,2.052,2.0866,2.0885,2.0699,2.0699,2.0699,2.0699,2.0699,2.0699,2.0699,2.0699,2.0699,2.0699,2.0699,2.0473,2.008,1.9422,1.8987,1.8545,1.7739,1.7418,1.7278,1.7172,1.7022,1.675,1.6143,1.5891,1.5654,1.5117,1.4997,1.4997,1.4997,1.5194,1.5383,1.5383,1.559,1.5673,1.5425,1.5383,1.529,1.5028,1.4997,1.4997,1.4997,1.4997,1.4918,1.4711,1.4635,1.4476,1.4211,1.3844,1.3616,1.3542,1.3779,1.4007,1.4189,1.4385,1.458,1.4799,1.4551,1.442,1.442,1.4199,1.3887,0.8463,0.9347,1.0164,0.9659,0.0,1.0973,1.078,1.0583,0.0,0.0,0.0,0.0,0.0,1.3534,0.0,1.6637,1.6634,1.6649,1.7374,1.6857,1.6372,1.6263,1.6938,1.7682,1.8397,1.9217,1.9708,1.9708,1.9708,1.9708,1.9708,1.9708,1.9708,1.9708,1.9708,1.9708,1.9708,1.9708,2.0133,2.1006,2.1166,2.1141,2.1006,2.0956,2.0783,2.0576,2.0861,2.0722,2.0334,2.08,2.0885,2.0699,2.0699,2.0699,2.0699,2.0699,2.0699,2.0699,2.0699,2.0699,2.0699,2.0699,2.0511,2.0169,1.9656,1.9225,1.8784,1.8016,1.7617,1.7382,1.7134,1.7011,1.6813,1.6254,1.6059,1.5883,1.5428,1.5328,1.5328,1.5328,1.5621,1.586,1.586,1.616,1.6274,1.5922,1.586,1.5735,1.537,1.5328,1.5328,1.5328,1.5328,1.5197,1.4881,1.4814,1.4678,1.442,1.4221,1.4091,1.4091,1.4551,1.475,1.4639,1.474,1.475,1.4643,1.4283,1.4055,1.3948,1.3639,1.3493,0.8309,0.8838,0.9534,1.0086,1.0804,0.0,1.0416,1.0712,0.0,1.1927,0.0,0.0,0.0,1.4535,1.5521,1.7333,1.7959,1.8306,1.8552,0.0,1.8049,1.7625,1.7997,1.8391,1.8651,1.9303,1.9708,1.9708,1.9708,1.9708,1.9708,1.9708,1.9708,1.9708,1.9708,1.9708,1.9708,1.9708,1.9444,1.8918,1.9549,1.9519,1.8933,1.9353,1.9425,1.9276,2.004,2.01,1.973,2.064,2.0885,2.0699,2.0699,2.0699,2.0699,2.0699,2.0699,2.0699,2.0699,2.0699,2.0699,2.0699,2.0599,2.0398,1.9914,1.9578,1.9172,1.8307,1.7979,1.7772,1.7379,1.7043,1.6807,1.6747,1.6549,1.634,1.6319,1.6295,1.6295,1.6295,1.633,1.6346,1.6346,1.6381,1.6392,1.6346,1.6346,1.635,1.6295,1.6295,1.6295,1.6295,1.6295,1.6128,1.5658,1.5442,1.5337,1.5308,1.4552,1.4091,1.4091,1.4551,1.46,1.4163,1.458,1.459,1.4153,1.4124,1.3909,1.3542,1.3503,1.3493,0.8293,0.8817,0.9506,1.0092,1.0787,0.0,0.0,1.1963,1.2524,1.277,1.3682,0.0,0.0,0.0,1.5942,1.6914,1.7826,1.8619,1.9227,1.9259,1.9143,1.8958,1.91,1.9232,1.9303,1.9557,1.9708,1.9708,1.9708,1.9708,1.9708,1.9708,1.9504,1.9091,1.9474,1.9504,1.9076,1.9489,1.9354,1.8709,1.9384,1.9573,1.9339,1.9465,1.9662,1.9938,2.0315,2.0454,2.0439,2.0929,2.096,2.0699,2.0699,2.0699,2.0699,2.0699,2.0699,2.0739,2.108,2.0975,2.0752,2.108,2.0873,2.0448,2.0144,1.9798,1.9357,1.8565,1.8188,1.7886,1.7273,1.7022,1.6881,1.6722,1.6595,1.6506,1.6416,1.6398,1.6398,1.6398,1.6398,1.6398,1.6398,1.6398,1.6398,1.6398,1.6398,1.6398,1.6398,1.6398,1.6398,1.6398,1.5958,1.5488,1.5055,1.4958,1.4806,1.4605,1.4557,1.4541,1.4541,1.442,1.4283,1.41,1.403,1.3906,1.3727,1.3486,1.3271,1.3125,1.3376,1.3493,0.8296,0.8645,0.9211,1.0037,0.0,0.0,1.235,1.289,1.3257,1.3467,1.4572,1.5594,1.5941,0.0,0.0,0.0,1.7352,1.8221,1.9236,1.9387,1.9458,1.9667,1.9708,1.9702,1.9702,1.9695,1.9708,1.9708,1.9708,1.9708,1.9708,1.9708,1.9489,1.9031,1.9459,1.9474,1.9016,1.9474,1.9474,1.9016,1.9474,1.9588,1.9399,1.9776,2.0143,2.0507,2.0858,2.1003,2.1019,2.1191,2.1033,2.0699,2.0699,2.0699,2.0699,2.0699,2.0804,2.1014,2.1368,2.1381,2.1276,2.1446,2.1329,2.1043,2.0707,2.0474,2.0129,1.9184,1.8717,1.8258,1.7211,1.6951,1.6881,1.6655,1.6566,1.6506,1.6416,1.6398,1.6398,1.6398,1.6398,1.6398,1.6398,1.6398,1.6398,1.6398,1.6398,1.6398,1.6398,1.6398,1.6398,1.6398,1.5767,1.5198,1.478,1.4743,1.4575,1.4257,1.4418,1.4525,1.457,1.427,1.4046,1.3909,1.3639,1.3447,1.3311,1.303,1.2974,1.3098,1.3369,1.3652,0.831,0.827,0.8544,0.0,0.0,0.0,1.2985,1.3256,1.3411,1.4077,1.5224,1.6081,1.6003,1.5934,0.0,1.6615,1.6696,1.716,1.8499,1.8687,1.8942,1.9594,1.9693,1.9693,1.9693,1.9708,1.9708,1.9708,1.9708,1.9708,1.9708,1.9708,1.9708,1.9693,1.9708,1.9708,1.9693,1.9708,1.9708,1.9708,1.9708,1.9354,1.8753,2.0084,2.0703,2.0749,2.1541,2.1642,2.1212,2.1358,2.1119,2.0699,2.0712,2.0712,2.0712,2.0713,2.1041,2.1511,2.1511,2.1903,2.2295,2.1707,2.1916,2.2282,2.1681,2.169,2.1619,2.0206,1.9618,1.9009,1.7275,1.6814,1.6775,1.6637,1.6506,1.6398,1.6398,1.6398,1.6398,1.6398,1.6398,1.6398,1.6398,1.6398,1.6413,1.6413,1.6413,1.6413,1.6398,1.6398,1.6398,1.6388,1.596,1.5537,1.512,1.5019,1.4847,1.4526,1.4148,1.3972,1.4098,1.4094,1.3899,1.3493,1.3506,1.3301,1.2905,1.2915,1.3118,1.3493,1.3516,1.3975,0.8874,0.8956,0.0,1.0594,0.0,0.0,0.0,1.3941,0.0,0.0,1.5841,1.606,1.5949,1.5906,0.0,1.6046,1.642,1.6838,1.7234,1.7705,1.8072,1.8267,1.8709,1.9185,1.9639,1.9695,1.9708,1.9708,1.9708,1.9708,1.9708,1.9708,1.9698,1.9702,1.9701,1.9474,1.9001,1.9459,1.9708,1.9708,1.9708,1.9594,1.9429,2.0294,2.0967,2.1436,2.1865,2.2072,2.2061,2.1402,2.101,2.0878,2.1145,2.125,2.1315,2.1734,2.2009,2.2192,2.2556,2.257,2.244,2.2622,2.2556,2.2374,2.2191,2.2015,2.1723,2.0869,2.038,1.981,1.8471,1.8075,1.7736,1.6691,1.6431,1.6398,1.6398,1.6398,1.6398,1.6398,1.6398,1.6398,1.6398,1.6618,1.681,1.681,1.6947,1.6879,1.644,1.6398,1.6222,1.5753,1.5353,1.5064,1.49,1.4569,1.4576,1.5029,1.5227,1.4909,1.3998,1.3641,1.3402,1.3285,1.3285,1.3225,1.3108,1.335,1.3515,1.3653,1.4161,1.4555,0.9085,0.9211,0.0,1.083,1.1386,1.2015,1.3632,0.0,0.0,0.0,1.6081,1.6025,1.5928,1.5885,0.0,1.5806,1.6106,1.6435,1.6674,1.7047,1.7399,1.7661,1.829,1.8955,1.9629,1.9709,1.9708,1.9708,1.9708,1.9708,1.9708,1.9708,1.9704,1.9697,1.9698,1.9513,1.9091,1.9504,1.9708,1.9708,1.9708,1.9708,1.9729,2.0677,2.1321,2.1734,2.2203,2.2408,2.2319,2.1494,2.1071,2.0977,2.1354,2.1498,2.1564,2.2179,2.2532,2.2767,2.3079,2.3145,2.3094,2.317,2.3144,2.3027,2.2793,2.2705,2.2538,2.1774,2.1252,2.0599,1.924,1.8714,1.8258,1.7178,1.6777,1.6643,1.6643,1.6508,1.6398,1.6398,1.6529,1.6643,1.6643,1.706,1.7334,1.715,1.7305,1.7206,1.6492,1.6398,1.6253,1.5846,1.5621,1.5435,1.5256,1.4985,1.5177,1.6,1.6559,1.6407,1.5411,1.4656,1.4275,1.4275,1.4275,1.4214,1.4113,1.4175,1.4241,1.4301,1.4637,1.4999,0.9095,0.9235,0.9512,1.0857,1.1743,0.0,1.4677,1.5141,1.5367,1.5972,0.0,1.5983,1.5899,1.5834,1.5799,1.5799,1.5799,1.5994,1.6547,1.6614,1.6846,1.7451,1.817,1.8856,1.9458,1.9631,1.9708,1.9708,1.9708,1.9708,1.9708,1.9708,1.9708,1.9708,1.9708,1.9708,1.9708,1.9708,1.9708,1.9708,1.9708,1.9708,1.9753,2.1091,2.1754,2.1894,2.2615,2.2678,2.2196,2.1664,2.1265,2.105,2.1366,2.1498,2.159,2.2218,2.278,2.3209,2.3262,2.364,2.4006,2.3458,2.3653,2.4006,2.3458,2.3566,2.3701,2.2769,2.2166,2.144,1.9846,1.9095,1.8581,1.7967,1.744,1.7053,1.7022,1.6746,1.6496,1.6512,1.6814,1.7064,1.7064,1.7593,1.7904,1.7597,1.7739,1.7579,1.674,1.6593,1.6555,1.6555,1.6555,1.6426,1.6093,1.6093,1.6479,1.7342,1.8072,1.8283,1.786,1.6676,1.6005,1.5919,1.5899,1.5807,1.565,1.529,1.5197,1.5316,1.5072,1.5395,0.9658,0.9938,0.0,1.1615,1.2477,1.3242,1.4206,1.4777,1.5292,1.5894,1.6003,1.5969,1.5842,1.5806,1.5799,1.5799,1.5799,1.5851,1.5979,1.5994,1.6054,1.6188,1.7213,1.7977,1.8125,1.9081,1.9708,1.9708,1.9708,1.9708,1.9708,1.9708,1.9708,1.9708,1.9708,1.9708,1.9708,1.9708,1.9708,1.9708,1.9708,1.9708,1.9753,2.1091,2.2222,2.3118,2.319,2.2952,2.2463,2.1949,2.1496,2.1186,2.1405,2.1498,2.1616,2.2648,2.3092,2.3275,2.3745,2.3993,2.4084,2.3954,2.3993,2.4084,2.3954,2.3904,2.382,2.3458,2.2964,2.2362,2.147,2.05,1.9618,1.895,1.8148,1.7482,1.7289,1.7169,1.7169,1.7383,1.7482,1.7554,1.7554,1.788,1.8454,1.9356,1.9318,1.9033,1.8581,1.8113,1.7802,1.7802,1.7802,1.7677,1.7333,1.7591,1.8097,1.8797,1.9383,1.9743,1.9798,1.805,1.6754,1.6059,1.5895,1.616,1.6821,1.629,1.6091,1.6217,1.6274,1.64,0.9844,0.0,0.0,1.1851,0.0,1.2974,1.3939,1.4399,1.4862,1.5765,1.5956,1.5927,1.582,1.5799,1.5799,1.5799,1.5799,1.5799,1.5799,1.5799,1.5799,1.5799,1.6914,1.7791,1.8015,1.9039,1.9708,1.9708,1.9708,1.9708,1.9708,1.9708,1.9708,1.9708,1.9708,1.9708,1.9708,1.9708,1.9708,1.9708,1.9708,1.9863,2.0213,2.1231,2.2377,2.3519,2.3167,2.2919,2.2686,2.1861,2.1439,2.1307,2.1443,2.1498,2.1603,2.2491,2.292,2.3126,2.3535,2.3862,2.4098,2.4098,2.4098,2.4098,2.4098,2.4052,2.3964,2.3789,2.3452,2.302,2.2549,2.1765,2.0768,1.9429,1.8729,1.833,1.8196,1.7807,1.7533,1.7668,1.7699,1.7699,1.7699,1.8216,1.8973,1.9944,2.0259,2.0053,1.9198,1.9115,1.9375,2.0048,2.0124,2.0032,1.9873,2.0048,2.0308,2.0667,2.095,2.1087,2.1072,1.9578,1.8353,1.7496,1.7289,1.7328,1.7633,1.7221,1.6906,1.6688,1.6275,1.6196,0.9844,0.0,1.0743,1.1912,1.2298,0.0,1.3729,1.4117,1.4577,1.5672,1.59,1.5885,1.5806,1.5799,1.5799,1.5799,1.5799,1.5799,1.5799,1.5799,1.5799,1.5799,1.6862,1.7777,1.823,1.914,1.9708,1.9708,1.9708,1.9708,1.9708,1.9708,1.9708,1.9708,1.9708,1.9708,1.9708,1.9708,1.9708,1.9708,1.9708,2.0049,2.0718,2.1266,2.2233,2.3426,2.3032,2.2871,2.2812,2.1778,2.1375,2.1391,2.1376,2.1368,2.1433,2.2034,2.2489,2.285,2.3116,2.3601,2.4098,2.4098,2.4098,2.4098,2.4098,2.4098,2.4068,2.3964,2.376,2.3554,2.3333,2.2469,2.1237,1.9512,1.9108,1.9108,1.9108,1.8485,1.7952,1.7952,1.7999,1.8015,1.7952,1.8594,1.9446,2.0458,2.1047,2.0919,1.9627,2.0047,2.0914,2.2077,2.2197,2.2197,2.2197,2.2197,2.2197,2.2197,2.2197,2.2024,2.1609,2.07,1.9802,1.894,1.8696,1.836,1.7907,1.7662,1.7339,1.6906,1.6024,1.583,0.9844,0.0,1.1953,0.0,1.2631,1.3148,0.0,0.0,1.5076,0.0,1.59,1.5885,1.5806,1.5799,1.5799,1.5799,1.5799,1.5799,1.5799,1.5799,1.5799,1.5799,1.6615,1.7346,1.7749,1.8947,1.9708,1.9708,1.9708,1.9708,1.9708,1.9708,1.9708,1.9708,1.9708,1.9708,1.9708,1.9708,1.9708,1.9708,1.9708,2.0049,2.0703,2.0787,2.156,2.2838,2.3291,2.326,2.2856,2.2229,2.1744,2.1364,2.0952,2.0804,2.087,2.142,2.1982,2.2531,2.3027,2.3601,2.4098,2.4098,2.4098,2.4098,2.4098,2.4098,2.4098,2.4068,2.4052,2.401,2.398,2.176,1.9446,1.9175,1.9108,1.9108,1.9108,1.9005,1.8905,1.8905,1.9146,1.925,1.8955,1.9025,1.9917,2.2338,2.2343,2.1796,2.1015,2.1502,2.1984,2.217,2.2197,2.2197,2.2197,2.2197,2.2197,2.2197,2.2197,2.1761,2.0804,2.045,1.9772,1.8665,1.8222,1.7723,1.7155,1.6707,1.6669,1.6974,1.666,1.656,0.9784,1.077,1.1542,0.0,1.2416,1.2896,1.3891,1.4459,1.4977,1.5698,1.5834,1.5827,1.5806,1.5799,1.5799,1.5799,1.5799,1.5926,1.6256,1.6301,1.6443,1.6817,1.7528,1.8017,1.8092,1.9075,1.9708,1.9708,1.9708,1.9708,1.9708,1.9708,1.9708,1.9708,1.9708,1.9708,1.9708,1.9708,1.9708,1.9708,1.9708,1.9848,2.0168,2.0917,2.1794,2.2688,2.2588,2.2672,2.2809,2.1599,2.1204,2.131,2.039,2.0298,2.0726,2.0962,2.1212,2.1572,2.2455,2.3334,2.4083,2.3967,2.401,2.4083,2.3967,2.401,2.4054,2.3865,2.3951,2.401,2.3643,2.1337,1.9108,1.9108,1.9108,1.9518,2.1021,2.0166,1.9108,1.9108,1.9857,2.0683,2.1239,2.1349,2.1741,2.2914,2.2866,2.2604,2.2304,2.2235,2.2197,2.2197,2.2197,2.2197,2.2197,2.2197,2.2197,2.2197,2.1632,2.1088,2.062,1.9968,1.9319,1.8677,1.7681,1.6993,1.6608,1.6395,1.6227,1.6117,1.6271,1.623,0.9793,1.0439,1.1023,1.1974,1.2369,1.2968,0.0,0.0,1.4918,0.0,1.5799,1.5799,1.5799,1.5799,1.5799,1.5799,1.5919,1.6189,1.6644,1.695,1.7317,1.7818,1.8514,1.8909,1.8735,1.9319,1.9708,1.9708,1.9708,1.9708,1.9708,1.9708,1.9708,1.9708,1.9708,1.9708,1.9708,1.9708,1.9708,1.9708,1.9708,1.9708,1.9738,2.0902,2.1809,2.2448,2.2258,2.2486,2.2825,2.1272,2.0971,2.1379,2.0111,2.0074,2.0749,2.0699,2.0693,2.0861,2.1996,2.3153,2.4068,2.3923,2.3923,2.3938,2.3793,2.3909,2.4054,2.3791,2.3776,2.3658,2.2823,2.0874,1.9108,1.9108,1.9108,1.9748,2.2106,2.106,1.9627,1.9627,2.0619,2.1804,2.2899,2.3108,2.3108,2.3108,2.3108,2.3108,2.3108,2.2574,2.2197,2.2197,2.2197,2.2197,2.2197,2.2197,2.2197,2.2197,2.1185,2.0476,2.0199,1.9591,1.9095,1.867,1.7692,1.6924,1.6382,1.6216,1.5924,1.5488,1.5782,1.5723,0.9907,1.0439,1.1023,1.1974,1.2815,1.3875,0.0,0.0,1.5133,1.5685,1.5799,1.5799,1.5799,1.5799,1.5799,1.5799,1.6286,1.6659,1.6696,1.7632,1.8315,1.836,1.9115,1.9639,1.9639,1.9669,1.9708,1.9708,1.9708,1.9708,1.9708,1.9708,1.9708,1.9708,1.9708,1.9708,1.9708,1.9708,1.9708,1.9708,1.9708,1.9708,1.9714,2.0438,2.1126,2.1814,2.2996,2.334,2.3013,2.1967,2.1634,2.1641,2.0386,2.0293,2.0873,2.0749,2.07,2.0858,2.1996,2.3147,2.4098,2.4083,2.3878,2.3628,2.3613,2.3848,2.4098,2.4068,2.3628,2.2869,2.1632,2.0199,1.9108,1.9108,1.9108,1.9495,2.0983,2.119,2.1094,2.1094,2.1659,2.2355,2.2987,2.3108,2.3108,2.3108,2.3108,2.3108,2.3108,2.2574,2.2197,2.2197,2.2197,2.2197,2.2197,2.2197,2.2197,2.2197,2.1185,2.0139,1.9132,1.9514,1.9403,1.862,1.8719,1.8068,1.658,1.6002,1.5726,1.5672,1.5512,1.5415,0.9285,1.0105,1.1023,1.1974,1.2426,1.3083,1.4725,1.4913,1.4933,1.5648,1.5799,1.5799,1.5799,1.5799,1.5799,1.5799,1.6308,1.6755,1.6935,1.7901,1.8756,1.9175,1.9513,1.9708,1.9708,1.9708,1.9708,1.9708,1.9708,1.9708,1.9708,1.9708,1.9708,1.9708,1.9708,1.9708,1.9708,1.9708,1.9708,1.9708,1.9708,1.9708,1.9738,2.0842,2.147,2.1749,2.2633,2.2859,2.2492,2.1218,2.0912,2.1023,1.8963,1.9223,2.0761,2.0711,2.0699,2.0752,2.1171,2.2531,2.4098,2.4098,2.3732,2.3273,2.3273,2.3363,2.3452,2.3452,2.3288,2.2911,2.2065,2.1158,2.0442,2.0442,2.078,2.1336,2.2227,2.2411,2.2411,2.2411,2.2607,2.2848,2.3063,2.3108,2.3108,2.3108,2.3108,2.3108,2.3108,2.2574,2.2197,2.2197,2.2197,2.2197,2.2197,2.2197,2.2197,2.2197,2.0538,1.9396,1.9024,1.9181,1.9111,1.8744,1.8587,1.8012,1.699,1.7032,1.6626,1.5836,1.5851,1.5698,0.8919,0.972,0.0,0.0,1.2169,1.2484,1.3818,1.4248,1.4575,1.5311,1.5649,1.5799,1.5799,1.5799,1.5799,1.5799,1.6495,1.7159,1.7491,1.8391,1.9205,1.9648,1.9708,1.9708,1.9708,1.9708,1.9708,1.9708,1.9708,1.9708,1.9708,1.9708,1.9708,1.9708,1.9708,1.9708,1.9708,1.9708,1.9708,1.9708,1.9708,1.9708,1.9738,2.0866,2.1485,2.171,2.1929,2.2272,2.2545,2.0926,2.0565,2.0843,1.9007,1.9364,2.0923,2.0761,2.0699,2.0689,2.0706,2.1698,2.2949,2.2949,2.2516,2.213,2.2882,2.3108,2.3108,2.3108,2.3108,2.3017,2.2604,2.2177,2.1839,2.1839,2.2177,2.2619,2.3017,2.3108,2.3108,2.3108,2.3108,2.3108,2.3108,2.3108,2.3108,2.3108,2.3108,2.3032,2.282,2.2448,2.2197,2.2197,2.2197,2.1909,2.119,2.113,2.113,2.113,1.9794,1.9,1.9,1.9,1.8959,1.8866,1.8831,1.837,1.7496,1.7424,1.6898,1.597,1.5905,1.5708,0.0,0.0,0.0,0.0,0.0,0.0,1.3008,1.356,1.4068,1.4683,1.5335,1.5799,1.5799,1.5799,1.5799,1.5799,1.6854,1.7845,1.8327,1.9153,1.9708,1.9708,1.9708,1.9708,1.9708,1.9708,1.9708,1.9708,1.9708,1.9708,1.9708,1.9708,1.9708,1.9708,1.9708,1.9708,1.9708,1.9708,1.9708,1.9708,1.9708,1.9708,1.9714,2.0384,2.1066,2.1635,2.0982,2.1689,2.3185,2.1188,2.0716,2.1194,2.0658,2.0823,2.1326,2.0873,2.07,2.0694,2.0704,2.0736,2.0766,2.0766,2.0373,2.03,2.2443,2.3108,2.3108,2.3108,2.3108,2.3108,2.3108,2.3058,2.3007,2.3007,2.3007,2.3007,2.3007,2.3007,2.3032,2.3095,2.3108,2.3108,2.3108,2.3108,2.3108,2.3108,2.308,2.2851,2.2278,2.2197,2.2197,2.2197,2.2197,2.132,1.9181,1.9,1.9,1.9,1.9,1.9,1.9,1.9,1.9,1.9,1.9505,1.9217,1.8098,1.7117,1.6453,1.6099,1.5613,1.5396,0.8919,0.0,0.0,0.0,0.0,0.0,0.0,1.3467,1.4068,1.4683,1.5335,1.5799,1.5799,1.5799,1.5799,1.5799,1.662,1.7528,1.8295,1.9153,1.9708,1.9708,1.9708,1.9708,1.9708,1.9708,1.9708,0.0,1.9708,1.9708,1.9708,1.9708,1.9708,1.9708,1.9708,1.9708,1.9708,1.9708,1.9708,1.9708,1.9708,1.9708,1.9714,2.0384,2.0802,2.0967,2.0787,2.1069,2.1567,2.0374,2.0,2.0255,2.1292,2.1365,2.0885,2.0749,2.0704,2.0688,2.0688,2.1467,2.2439,2.2441,2.2322,2.2293,2.2905,2.3108,2.3108,2.3108,2.3108,2.3108,2.3108,2.1904,2.0714,2.0714,2.0714,2.0714,2.0714,2.0714,2.1191,2.2794,2.3108,2.3108,2.3108,2.3108,2.3108,2.3108,2.2726,2.2386,2.2216,2.2197,2.2197,2.2197,2.2197,2.132,1.9181,1.9,1.9,1.9,1.9,1.9,1.9,1.9,1.9,1.9,1.9145,1.8848,1.8098,1.7771,1.7134,1.6239,1.5657,1.5396,0.9404,0.0,0.0,0.0,0.0,0.0,1.2422,1.2973,1.3614,1.425,1.4916,1.5469,1.5754,1.5799,1.5799,1.5799,1.6532,1.74,1.8273,1.9153,1.9708,1.9708,1.9708,1.9708,1.9708,1.9708,1.9708,1.9708,1.9708,1.9708,1.9708,1.9708,1.9708,1.9708,1.9708,1.9708,1.9708,1.9708,1.9708,1.9708,1.9708,1.9708,1.9708,2.0094,2.0438,2.0673,2.0399,2.0676,2.1239,2.0526,2.0028,1.9831,2.1178,2.1295,2.0699,2.0699,2.0689,2.0848,2.1801,2.2558,2.31,2.3107,2.31,2.3108,2.3108,2.3108,2.3108,2.3108,2.3108,2.3108,2.3108,2.2142,2.094,2.0024,1.9798,1.9798,1.9798,2.0539,2.1567,2.2857,2.3108,2.3304,2.3913,2.4025,2.4025,2.4025,2.3729,2.3496,2.3496,2.2727,2.2197,2.2197,2.1407,2.036,1.9108,1.9,1.9,1.9,1.9,1.9,1.9,1.9,1.9,1.9,1.9,1.8655,1.7966,1.7767,1.7073,1.5927,1.5555,1.5396,1.0292,1.0703,0.0,0.0,1.1658,0.0,1.1902,1.2364,1.2975,1.3592,1.4263,1.4965,1.5667,1.5794,1.5802,1.5804,1.645,1.7272,1.8189,1.9045,1.9618,1.9693,1.9708,1.9699,1.969,1.9699,1.9699,1.969,1.9699,1.9708,1.9708,1.9708,1.9708,1.9708,1.9708,1.9708,1.9708,1.9708,1.9708,1.9708,1.9708,1.9708,1.9708,1.9708,2.0028,2.0563,2.0043,2.0492,2.156,2.13,2.0698,2.0016,2.0815,2.0961,2.0699,2.0699,2.0707,2.1033,2.33,2.3655,2.31,2.31,2.3107,2.3108,2.3108,2.3108,2.3108,2.3108,2.3108,2.3108,2.3108,2.3108,2.2606,2.0626,2.0175,2.0175,2.0175,2.1703,2.3168,2.3434,2.341,2.3755,2.5074,2.5312,2.5312,2.5312,2.5312,2.5312,2.5312,2.3688,2.2466,2.2209,2.0492,1.9265,1.9024,1.9,1.9,1.9,1.9,1.9,1.9,1.9,1.8987,1.8986,1.8932,1.8548,1.7834,1.7341,1.6514,1.5396,1.5396,1.5396,1.1476,1.1451,1.1355,1.2374,0.0,0.0,1.1848,1.233,1.2878,1.3178,1.3906,1.4755,1.564,1.5801,1.5791,1.58,1.5942,1.6473,1.7672,1.845,1.9091,1.9648,1.9708,1.9681,1.9629,1.9663,1.9681,1.9629,1.9663,1.9708,1.9708,1.9708,1.9708,1.9708,1.9708,1.9708,1.9708,1.9708,1.9708,1.9708,1.9708,1.9708,1.9708,1.9708,1.9768,1.9923,2.0333,2.0653,2.0967,2.1959,2.2011,2.1501,2.1846,2.1458,2.0699,2.0699,2.0706,2.1027,2.3317,2.3657,2.3092,2.3105,2.311,2.3108,2.3108,2.3108,2.3108,2.3108,2.3108,2.3108,2.3108,2.3108,2.2995,2.2556,2.2456,2.2456,2.2456,2.2794,2.3634,2.5477,2.5314,2.4957,2.5257,2.5312,2.5312,2.5312,2.5312,2.5312,2.5312,2.4951,2.4049,2.2378,2.184,2.0877,1.9157,1.9,1.9,1.9,1.9,1.9,1.9,1.9,1.8959,1.8838,1.8464,1.8207,1.8032,1.6983,1.6104,1.5396,1.5396,1.5396,1.2508,1.265,1.2657,1.293,0.0,0.0,0.0,1.2065,1.2452,1.2996,1.3455,1.3971,1.4676,1.461,1.4456,1.4442,1.4928,1.5634,1.6615,1.7587,1.8454,1.9121,1.9176,1.9266,1.9563,1.9569,1.956,1.9593,1.9659,1.9708,1.9708,1.9708,1.9708,1.9708,1.9708,1.9708,1.9708,1.9708,1.9708,1.9708,1.9708,1.9708,1.9708,1.9708,1.9878,2.0228,2.0548,2.1071,2.1749,2.2418,2.2577,2.2407,2.2507,2.1933,2.1024,2.0787,2.0707,2.1037,2.3308,2.3654,2.3096,2.3095,2.3108,2.3108,2.3108,2.3108,2.3108,2.3108,2.3108,2.3108,2.3108,2.3108,2.3108,2.3108,2.3108,2.3108,2.3108,2.3988,2.5138,2.6285,2.6164,2.5781,2.5365,2.5312,2.5312,2.5312,2.5312,2.5312,2.5312,2.4398,2.3352,2.2306,2.125,2.0179,1.9096,1.9,1.9,1.9,1.9,1.9,1.9,1.9,1.8972,1.8893,1.8666,1.8249,1.7653,1.6446,1.5696,1.5396,1.5396,1.5396,0.0,1.3829,1.3943,0.0,0.0,1.2735,0.0,0.0,0.0,1.2695,1.3058,1.3422,1.4075,1.3443,1.2858,1.2854,0.0,0.0,0.0,1.6346,0.0,1.8395,1.8461,1.8677,1.9313,1.9267,1.9326,1.9596,1.954,1.9546,1.9684,1.969,1.969,1.9708,1.9708,1.9708,1.9708,1.9708,1.9708,1.9708,1.9708,1.9708,1.9708,1.9815,2.0165,2.0703,2.0953,2.1685,2.2703,2.2817,2.2868,2.2907,2.2893,2.2293,2.1333,2.0875,2.0707,2.0949,2.2667,2.32,2.3097,2.3104,2.3108,2.3108,2.3108,2.3108,2.3108,2.3108,2.3108,2.3108,2.3108,2.3108,2.3108,2.3108,2.3108,2.3108,2.3108,2.4883,2.6499,2.6499,2.6499,2.6297,2.5646,2.54,2.5168,2.4753,2.4711,2.4711,2.4711,2.3232,2.2041,2.162,2.0035,1.9,1.9,1.9,1.9,1.9,1.9,1.9,1.9,1.9,1.9,1.9,1.8893,1.8186,1.6852,1.5868,1.5396,1.5396,1.5396,1.5396,0.0,0.0,0.0,0.0,1.3346,0.0,0.0,0.0,1.1823,1.1933,0.0,1.4096,0.0,0.0,0.0,0.0,0.0,0.0,1.3403,1.4406,1.58,1.7601,1.781,1.7997,1.849,1.8523,1.8844,1.9627,1.9087,1.9004,1.9669,1.9641,1.9632,1.9708,1.9708,1.9708,1.9708,1.9708,1.9708,1.9708,1.9708,1.9708,1.9714,2.0182,2.0519,2.0763,2.1833,2.245,2.2737,2.321,2.3201,2.2907,2.2893,2.2289,2.134,2.0864,2.0707,2.0664,2.0378,2.152,2.3096,2.3096,2.3108,2.3108,2.3108,2.3108,2.3108,2.3108,2.3108,2.3108,2.3108,2.3108,2.3108,2.3108,2.3108,2.3108,2.3108,2.4883,2.6499,2.6499,2.6499,2.6469,2.6383,2.5781,2.4675,2.2823,2.2546,2.2546,2.2546,2.2357,2.1464,1.9578,1.9157,1.9,1.9,1.9,1.9,1.9,1.9,1.9,1.9,1.9,1.9,1.9,1.8477,1.7335,1.5604,1.5468,1.5396,1.5396,1.5396,1.5396,0.0,0.0,0.0,0.0,0.0,0.0,1.2981,0.0,1.2959,0.0,0.0,0.0,0.0,0.0,0.0,0.0,1.3015,0.0,0.0,0.0,1.4812,1.6406,0.0,0.0,1.7768,1.7891,1.8075,1.8393,1.8526,1.8728,1.8989,1.9385,1.9611,1.9632,1.9681,1.9708,1.9708,1.9708,1.9708,1.9708,1.9708,1.9922,2.0331,2.0121,2.0582,2.154,2.2137,2.2658,2.3122,2.3379,2.3264,2.2893,2.2905,2.2296,2.1331,2.0878,2.0476,2.014,1.989,2.1246,2.3106,2.3107,2.223,2.1191,2.1191,2.208,2.3108,2.3108,2.3108,2.3108,2.3108,2.3108,2.3108,2.3108,2.3108,2.3108,2.3108,2.4883,2.6499,2.6499,2.6112,2.5424,2.4218,2.3721,2.3207,2.233,2.2197,2.2197,2.2197,2.2197,2.1864,2.0947,2.0865,2.0865,2.0865,2.0865,2.0865,2.0865,1.9698,1.9,1.9,1.9,1.9,1.9,1.7379,1.6165,1.5396,1.5396,1.5396,1.5396,1.5396,1.5396,1.5323,0.0,0.0,0.0,0.0,0.0,0.0,0.0,0.0,0.0,0.0,0.0,0.0,0.0,0.0,0.0,0.0,1.3346,0.0,1.2939,0.0,0.0,0.0,0.0,0.0,1.7251,1.7363,1.7517,1.7967,1.8321,1.8499,1.9146,1.9529,1.9538,1.9596,1.9617,1.9617,1.9617,1.9617,1.9617,1.9796,2.0172,2.0675,2.0421,2.0976,2.2179,2.2374,2.2793,2.3319,2.3297,2.305,2.2715,2.2711,2.2134,2.1226,2.0664,2.0182,1.9798,1.9809,2.0842,2.2292,2.2898,2.2004,2.0701,2.0701,2.1829,2.3108,2.3108,2.3108,2.3108,2.3108,2.3108,2.3108,2.3108,2.3108,2.3047,2.2881,2.4607,2.6176,2.6176,2.5699,2.4831,2.3304,2.257,2.2197,2.2197,2.2197,2.2197,2.2197,2.2197,2.2197,2.2197,2.2197,2.2197,2.2197,2.2197,2.2197,2.2197,2.0191,1.9,1.9,1.9,1.8854,1.8533,1.6468,1.5396,1.5396,1.5396,1.5396,1.5396,1.5396,1.5396,0.0,0.0,0.0,1.4966,0.0,0.0,0.0,0.0,1.4637,0.0,0.0,0.0,0.0,0.0,0.0,0.0,0.0,0.0,0.0,0.0,0.0,0.0,0.0,0.0,0.0,1.6616,1.6828,0.0,1.7432,1.7682,1.846,1.9005,1.9339,1.9395,1.9404,1.9404,1.9404,1.9404,1.9404,1.9428,2.0066,2.0391,2.045,2.1405,2.1993,2.2321,2.2717,2.2971,2.3094,2.2833,2.2526,2.2224,2.2226,2.1725,2.0917,2.0118,1.9813,1.98,1.9798,1.9849,2.0251,2.2393,2.3058,2.2995,2.2995,2.3045,2.3108,2.3108,2.3108,2.3108,2.3108,2.3108,2.3108,2.3108,2.3108,2.2942,2.2355,2.3866,2.5347,2.5347,2.5312,2.5288,2.5198,2.3532,2.2197,2.2197,2.2197,2.2197,2.2197,2.2197,2.2197,2.2197,2.2197,2.2197,2.2197,2.2197,2.2197,2.2197,2.0191,1.9,1.9,1.9,1.8479,1.739,1.6061,1.5396,1.5396,1.5396,1.5396,1.5396,1.5396,1.5396,0.0,0.0,1.567,1.4975,0.0,0.0,0.0,0.0,0.0,0.0,0.0,0.0,0.0,0.0,0.0,0.0,0.0,0.0,0.0,0.0,0.0,0.0,0.0,0.0,0.0,0.0,1.5972,1.614,1.6933,0.0,1.763,1.8734,1.9358,1.933,1.9376,1.9395,1.9395,1.9395,1.9625,2.0062,2.0292,2.0799,2.1515,2.1513,2.1934,2.2706,2.2846,2.2797,2.2635,2.2478,2.2133,2.169,2.1864,2.1221,2.0352,2.1536,2.197,2.1891,2.1166,2.139,2.2105,2.2857,2.3108,2.3108,2.3108,2.3108,2.3108,2.3108,2.3108,2.3108,2.3108,2.3108,2.3108,2.3108,2.279,2.2448,2.2232,2.3833,2.5312,2.5312,2.5312,2.5312,2.5312,2.4723,2.3785,2.2402,2.2197,2.2197,2.2197,2.2197,2.2197,2.2197,2.2197,2.2197,2.2197,2.2197,2.2197,2.2197,2.1512,2.0926,2.0467,1.9985,1.9651,1.9487,1.9049,1.8262,1.7113,1.6722,1.6147,1.5396,1.5396,1.5396,1.5863,1.5827,0.0,1.526,1.5477,0.0,1.5252,0.0,1.5795,0.0,0.0,0.0,0.0,0.0,0.0,0.0,0.0,0.0,0.0,1.4107,0.0,0.0,0.0,0.0,0.0,1.5602,1.5536,1.5411,1.6242,1.6963,0.0,1.8446,1.9077,1.9223,1.9274,1.9293,1.9293,1.9527,1.9874,2.0304,2.0748,2.1342,2.2057,2.1935,2.2247,2.2888,2.2888,2.2706,2.2394,2.2203,2.1779,2.1268,2.1339,2.0796,2.0156,2.1896,2.2522,2.2464,2.1956,2.2108,2.2581,2.2982,2.3108,2.3108,2.3108,2.3108,2.3108,2.3108,2.3108,2.3108,2.3108,2.3108,2.3047,2.282,2.2482,2.2197,2.2197,2.3256,2.4206,2.4206,2.4206,2.4206,2.4206,2.4206,2.3737,2.239,2.2197,2.2197,2.2197,2.2197,2.2197,2.2197,2.2197,2.2197,2.2197,2.2197,2.2197,2.2197,2.2197,2.1781,2.085,1.9868,1.976,2.0585,2.0605,2.0057,1.8916,1.7288,1.6283,1.5854,1.5542,1.5396]},{"header":{"parameterUnit":"m.s-1","parameterCategory":1,"la1":30.6,"la2":29.2853,"lo1":-89.7004,"lo2":-87.6739,"dy":0.0162,"dx":0.0183,"nx":112,"ny":82,"refTime":"2026-05-09T12:00:00:Z","depth":0,"parameterNumber":3,"parameterNumberName":"V-component_of_WINDS"},"data":[0.0,0.0,0.0,0.0,0.0,0.0,0.0,0.0,0.0,0.0,0.0,0.0,0.0,0.0,0.0,0.0,0.0,0.0,0.0,0.0,0.0,0.0,0.0,0.0,0.0,0.0,0.0,0.0,0.0,0.0,0.0,0.0,0.0,0.0,0.0,0.0,0.0,0.0,0.0,0.0,0.0,0.0,0.0,0.0,0.0,0.0,0.0,0.0,0.0,0.0,0.0,0.0,0.0,0.0,0.0,0.0,0.0,0.0,0.0,0.0,0.0,0.0,0.0,0.0,0.0,0.0,0.0,0.0,0.0,0.0,0.0,0.0,0.0,0.0,0.0,0.0,0.0,0.0,0.0,0.0,0.0,0.0,0.0,0.0,0.0,0.0,0.0,0.0,0.0,0.0,0.5347,0.4665,0.5658,0.6344,0.6276,0.6921,0.6829,0.5631,0.0,0.0,0.0,0.0,0.0,0.0,0.0,0.0,0.0,0.0,0.0,0.0,0.0,0.0,0.0,0.0,0.0,0.0,0.0,0.0,0.0,0.0,0.0,0.0,0.0,0.0,0.0,0.0,0.0,0.0,0.0,0.0,0.0,0.0,0.0,0.0,0.0,0.0,0.0,0.0,0.0,0.0,0.0,0.0,0.0,0.0,0.0,0.0,0.0,0.0,0.0,0.0,0.0,0.0,0.0,0.0,0.0,0.0,0.0,0.0,0.0,0.0,0.0,0.0,0.0,0.0,0.0,0.0,0.0,0.0,0.0,0.0,0.0,0.0,0.0,0.0,0.0,0.0,0.0,0.0,0.0,0.0,0.0,0.0,0.0,0.0,0.0,0.0,0.0,0.0,0.0,0.0,0.0,0.0,0.0,0.0,0.0,0.0,0.0,0.0,0.0,0.0,0.0,0.0,0.5347,0.4665,0.5286,0.5732,0.5726,0.6797,0.7126,0.6297,0.0,0.0,0.0,0.0,0.0,0.0,0.0,0.0,0.0,0.0,0.0,0.0,0.0,0.0,0.0,0.0,0.0,0.0,0.0,0.0,0.0,0.0,0.0,0.0,0.0,0.0,0.0,0.0,0.0,0.0,0.0,0.0,0.0,0.0,0.0,0.0,0.0,0.0,0.0,0.0,0.0,0.0,0.0,0.0,0.0,0.0,0.0,0.0,0.0,0.0,0.0,0.0,0.0,0.0,0.0,0.0,0.0,0.0,0.0,0.0,0.0,0.0,0.0,0.0,0.0,0.0,0.0,0.0,0.0,0.0,0.0,0.0,0.0,0.0,0.0,0.0,0.0,0.0,0.0,0.0,0.0,0.0,0.0,0.0,0.0,0.0,0.0,0.0,0.0,0.0,0.0,0.0,0.0,0.0,0.0,0.0,0.0,0.0,0.0,0.0,0.0,0.0,0.0,0.4673,0.4773,0.5152,0.5471,0.5508,0.5143,0.6307,0.6608,0.5539,0.5129,0.0,0.0,0.0,0.0,0.0,0.0,0.0,0.0,0.0,0.0,0.0,0.0,0.0,0.0,0.0,0.0,0.0,0.0,0.0,0.0,0.0,0.0,0.0,0.0,0.0,0.0,0.0,0.0,0.0,0.0,0.0,0.0,0.0,0.0,0.0,0.0,0.0,0.0,0.0,0.0,0.0,0.0,0.0,0.0,0.0,0.0,0.0,0.0,0.0,0.0,0.0,0.0,0.0,0.0,0.0,0.0,0.0,0.0,0.0,0.0,0.0,0.0,0.0,0.0,0.0,0.0,0.0,0.0,0.0,0.0,0.0,0.0,0.0,0.0,0.0,0.0,0.0,0.0,0.0,0.0,0.0,0.0,0.0,0.0,0.0,0.0,0.0,0.0,0.0,0.0,0.0,0.0,0.0,0.0,0.0,0.0,0.0,0.0,0.0,0.0,0.0,0.0,0.4401,0.423,0.5372,0.5654,0.5493,0.48,0.5974,0.6167,0.4805,0.4728,0.0,0.0,0.0,0.0,0.0,0.0,0.0,0.0,0.0,0.0,0.0,0.0,0.0,0.0,0.0,0.0,0.0,0.0,0.0,0.0,0.0,0.0,0.0,0.0,0.0,0.0,0.0,0.0,0.0,0.0,0.0,0.0,0.0,0.0,0.0,0.0,0.0,0.0,0.0,0.0,0.0,0.0,0.0,0.0,0.0,0.0,0.0,0.0,0.0,0.0,0.0,0.0,0.0,0.0,0.0,0.0,0.0,0.0,0.0,0.0,0.0,0.0,0.0,0.0,0.0,0.0,0.0,0.0,0.0,0.0,0.0,0.0,0.0,0.0,0.0,0.0,0.0,0.0,0.0,0.0,0.0,0.0,0.0,0.0,0.0,0.0,0.0,0.0,0.0,0.0,0.0,0.0,0.0,0.0,0.0,0.0,0.0,0.0,0.0,0.0,0.0,0.0,0.3854,0.4069,0.4783,0.5539,0.5677,0.4949,0.6115,0.6291,0.4889,0.4794,0.0,0.0,0.0,0.0,0.0,0.0,0.0,0.0,0.0,0.0,0.0,0.0,0.0,0.0,0.0,0.0,0.0,0.0,0.0,0.0,0.0,0.0,0.0,0.0,0.0,0.0,0.0,0.0,0.0,0.0,0.0,0.0,0.0,0.0,0.0,0.0,0.0,0.0,0.0,0.0,0.0,0.0,0.0,0.0,0.0,0.0,0.0,0.0,0.0,0.0,0.0,0.0,0.0,0.0,0.0,0.0,0.0,0.0,0.0,0.0,0.0,0.0,0.0,0.0,0.0,0.0,0.0,0.0,0.0,0.0,0.0,0.0,0.0,0.0,0.0,0.0,0.0,0.0,0.0,0.0,0.0,0.0,0.0,0.0,0.0,0.0,0.0,0.0,0.0,0.0,0.0,0.0,0.0,0.0,0.0,0.0,0.0,0.0,0.0,0.0,0.0,0.0,0.3858,0.4138,0.0,0.5192,0.5102,0.4405,0.5145,0.525,0.4296,0.0,0.0,0.0,0.0,0.0,0.0,0.0,0.0,0.0,0.0,0.0,0.0,0.0,0.0,0.0,0.0,0.0,0.0,0.0,0.0,0.0,0.0,0.0,0.0,0.0,0.0,0.0,0.0,0.0,0.0,0.0,0.0,0.0,0.0,0.0,0.0,0.0,0.0,0.0,0.0,0.0,0.0,0.0,0.0,0.0,0.0,0.0,0.0,0.0,0.0,0.0,0.0,0.0,0.0,0.0,0.0,0.0,0.0,0.0,0.0,0.0,0.0,0.0,0.0,0.0,0.0,0.0,0.0,0.0,0.0,0.0,0.0,0.0,0.0,0.0,0.0,0.0,0.0,0.0,0.0,0.0,0.0,0.0,0.0,0.0,0.0,0.0,0.0,0.0,0.0,0.0,0.0,0.0,0.0,0.0,0.0,0.0,0.0,0.0,0.0,0.0,0.0,0.3923,0.4129,0.4394,0.0,0.5127,0.5024,0.4076,0.4565,0.4636,0.3949,0.0,0.0,0.0,0.0,0.0,0.0,0.0,0.0,0.0,0.0,0.0,0.0,0.0,0.0,0.0,0.0,0.0,0.0,0.0,0.0,0.0,0.0,0.0,0.0,0.0,0.0,0.0,0.0,0.0,0.0,0.0,0.0,0.0,0.0,0.0,0.0,0.0,0.0,0.0,0.0,0.0,0.0,0.0,0.0,0.0,0.0,0.0,0.0,0.0,0.0,0.0,0.0,0.0,0.0,0.0,0.0,0.0,0.0,0.0,0.0,0.0,0.0,0.0,0.0,0.0,0.0,0.0,0.0,0.0,0.0,0.0,0.0,0.0,0.0,0.0,0.0,0.0,0.0,0.0,0.0,0.0,0.0,0.0,0.0,0.0,0.0,0.0,0.0,0.0,0.0,0.0,0.0,0.0,0.0,0.0,0.0,0.0,0.0,0.0,0.0,0.0,0.0,0.4001,0.4639,0.4849,0.4177,0.5418,0.5661,0.4132,0.4606,0.4671,0.0,0.0,0.0,0.0,0.0,0.0,0.0,0.0,0.0,0.0,0.0,0.0,0.0,0.0,0.0,0.0,0.0,0.0,0.0,0.0,0.0,0.0,0.0,0.0,0.0,0.0,0.0,0.0,0.0,0.0,0.0,0.0,0.0,0.0,0.0,0.0,0.0,0.0,0.0,0.0,0.0,0.0,0.0,0.0,0.0,0.0,0.0,0.0,0.0,0.0,0.0,0.0,0.0,0.0,0.0,0.0,0.0,0.0,0.0,0.0,0.0,0.0,0.0,0.0,0.0,0.0,0.0,0.0,0.0,0.0,0.0,0.0,0.0,0.0,0.0,0.0,0.0,0.0,0.0,0.0,0.0,0.0,0.0,0.0,0.0,0.0,0.0,0.0,0.0,0.0,0.0,0.0,0.0,0.0,0.0,0.0,0.0,0.0,0.0,0.0,0.0,0.0,0.0,0.4065,0.471,0.49,0.4179,0.4956,0.5138,0.4156,0.4167,0.4126,0.3919,0.0,0.0,0.0,0.0,0.0,0.0,0.0,0.0,0.0,0.0,0.0,0.0,0.0,0.0,0.0,0.0,0.0,0.0,0.0,0.0,0.0,0.0,0.0,0.0,0.0,0.0,0.0,0.0,0.0,0.0,0.0,0.0,0.0,0.0,0.0,0.0,0.0,0.0,0.0,0.0,0.0,0.0,0.0,0.0,0.0,0.0,0.0,0.0,0.0,0.0,0.0,0.0,0.0,0.0,0.0,0.0,0.0,0.0,0.0,0.0,0.0,0.0,0.0,0.0,0.0,0.0,0.0,0.0,0.0,0.0,0.0,0.0,0.0,0.0,0.0,0.0,0.0,0.0,0.0,0.0,0.0,0.0,0.0,0.0,0.0,0.0,0.0,0.0,0.0,0.0,0.0,0.0,0.0,0.0,0.0,0.0,0.0,0.0,0.0,0.0,0.0,0.0,0.4542,0.5446,0.5801,0.5058,0.5641,0.565,0.4583,0.4398,0.4208,0.3921,0.0,0.0,0.0,0.0,0.0,0.0,0.0,0.0,0.0,0.0,0.0,0.0,0.0,0.0,0.0,0.0,0.0,0.0,0.0,0.0,0.0,0.0,0.0,0.0,0.0,0.0,0.0,0.0,0.0,0.0,0.0,0.0,0.0,0.0,0.0,0.0,0.0,0.0,0.0,0.0,0.0,0.0,0.0,0.0,0.0,0.0,0.0,0.0,0.0,0.0,0.0,0.0,0.0,0.0,0.0,0.0,0.0,0.0,0.0,0.0,0.0,0.0,0.0,0.0,0.0,0.0,0.0,0.0,0.0,0.0,0.0,0.0,0.0,0.0,0.0,0.0,0.0,0.0,0.0,0.0,0.0,0.0,0.0,0.0,0.0,0.0,0.0,0.0,0.0,0.0,0.0,0.0,0.0,0.0,0.0,0.0,0.0,0.0,0.0,0.0,0.0,0.0,0.5224,0.6488,0.7117,0.6375,0.696,0.6771,0.5232,0.5042,0.4693,0.3962,0.0,0.0,0.0,0.0,0.0,0.0,0.0,0.0,0.0,0.0,0.0,0.0,0.0,0.0,0.0,0.0,0.0,0.0,0.0,0.0,0.0,0.0,0.0,0.0,0.0,0.0,0.0,0.0,0.0,0.0,0.0,0.0,0.0,0.0,0.0,0.0,0.0,0.0,0.0,0.0,0.0,0.0,0.0,0.0,0.0,0.0,0.0,0.0,0.0,0.0,0.0,0.0,0.0,0.0,0.0,0.0,0.0,0.0,0.0,0.0,0.5018,0.0,0.0,0.0,0.0,0.0,0.0,0.0,0.0,0.0,0.0,0.0,0.0,0.0,0.0,0.0,0.0,0.0,0.0,0.0,0.0,0.0,0.0,0.0,0.0,0.0,0.0,0.0,0.0,0.0,0.0,0.0,0.0,0.0,0.0,0.0,0.0,0.0,0.0,0.0,0.0,0.0,0.5225,0.6487,0.7117,0.6375,0.6962,0.6794,0.5306,0.5111,0.4761,0.4023,0.3923,0.0,0.0,0.0,0.0,0.0,0.0,0.0,0.0,0.0,0.0,0.0,0.0,0.0,0.0,0.0,0.0,0.0,0.0,0.0,0.0,0.0,0.0,0.0,0.0,0.0,0.0,0.0,0.0,0.0,0.0,0.0,0.0,0.0,0.0,0.0,0.0,0.0,0.0,0.0,0.0,0.0,0.0,0.0,0.0,0.0,0.0,0.0,0.0,0.0,0.0,0.0,0.0,0.0,0.0,0.0,0.0,0.0,0.0,0.0,0.0,0.5888,0.0,0.0,0.0,0.0,0.0,0.0,0.0,0.0,0.0,0.0,0.0,0.0,0.0,0.0,0.0,0.0,0.0,0.0,0.0,0.0,0.0,0.0,0.0,0.0,0.0,0.0,0.0,0.0,0.0,0.0,0.0,0.0,0.0,0.0,0.0,0.0,0.0,0.0,0.0,0.0,0.6224,0.7546,0.8173,0.7431,0.8025,0.7852,0.6385,0.6228,0.5746,0.4639,0.4849,0.0,0.0,0.0,0.0,0.0,0.0,0.0,0.0,0.0,0.0,0.0,0.0,0.0,0.0,0.0,0.0,0.0,0.0,0.0,0.0,0.0,0.0,0.0,0.0,0.0,0.0,0.0,0.0,0.0,0.0,0.0,0.0,0.0,0.0,0.0,0.0,0.0,0.0,0.0,0.0,0.0,0.0,0.0,0.0,0.0,0.0,0.0,0.0,0.0,0.0,0.0,0.0,0.0,0.4264,0.3689,0.4109,0.5835,0.6726,0.6923,0.6923,0.669,0.6273,0.5966,0.0,0.0,0.0,0.0,0.0,0.0,0.0,0.0,0.0,0.0,0.0,0.0,0.0,0.0,0.0,0.0,0.0,0.0,0.0,0.0,0.0,0.0,0.0,0.0,0.7676,0.7061,0.4896,0.0,0.0,0.0,0.0,0.0,0.0,0.0,0.0,0.0,0.0,0.0,0.7326,0.8682,0.9309,0.8586,0.9161,0.8996,0.753,0.7406,0.6827,0.5469,0.5789,0.5482,0.0,0.0,0.0,0.0,0.0,0.0,0.0,0.0,0.0,0.0,0.0,0.0,0.0,0.0,0.0,0.0,0.0,0.0,0.0,0.0,0.0,0.0,0.0,0.0,0.0,0.0,0.0,0.0,0.0,0.0,0.0,0.0,0.1589,0.1243,0.0,0.0,0.0,0.0,0.0,0.0,0.0,0.0,0.0,0.0,0.0,0.0,0.0,0.55,0.5825,0.583,0.5956,0.6229,0.5973,0.6825,0.8639,0.8914,0.9173,0.9429,0.9429,0.0,0.6278,0.6068,0.0,0.0,0.0,0.0,0.0,0.0,0.0,0.0,0.0,0.0,0.0,0.0,0.0,0.0,0.0,0.0,0.0,0.0,0.0,0.0,0.0,0.0,0.842,0.8113,0.7945,0.7759,0.0,0.8213,0.8727,0.7798,0.7646,0.0,0.0,0.0,0.0,0.0,0.0,0.0,0.7393,0.8682,0.9309,0.8586,0.9161,0.8996,0.753,0.7393,0.705,0.6212,0.5643,0.5243,0.5046,0.4515,0.0,0.0,0.0,0.0,0.0,0.0,0.0,0.0,0.0,0.0,0.0,0.0,0.0,0.0,0.0,0.0,0.0,0.0,0.0,0.0,0.0,0.0,0.0,0.0,0.0,0.0,0.0,0.0,0.0,0.1986,0.2015,0.1842,0.1853,0.1848,0.0,0.0,0.0,0.0,0.0,0.0,0.0,0.0,0.0,0.439,0.5385,0.6032,0.6291,0.6295,0.6295,0.6295,0.6295,0.7422,0.9504,0.9504,0.9645,0.9893,0.9743,0.9758,0.9704,0.7197,0.6131,0.6084,0.0,0.0,0.0,0.0,0.6084,0.6093,0.6149,0.6224,0.6338,0.6538,0.0,0.0,0.0,0.0,0.0,0.0,0.0,0.0,0.0,0.0,1.0356,0.9534,0.9467,0.951,0.9252,0.9626,0.9658,0.0,0.7806,0.7455,0.7431,0.0,0.0,0.0,0.0,0.8309,0.9104,0.9803,0.9935,0.9193,0.9773,0.9624,0.8141,0.8025,0.7719,0.7023,0.7058,0.6567,0.536,0.5394,0.5069,0.0,0.0,0.0,0.0,0.0,0.0,0.0,0.0,0.0,0.0,0.0,0.0,0.0,0.0,0.0,0.0,0.0,0.0,0.0,0.0,0.0,0.0,0.0,0.0,0.0,0.0,0.0,0.0,0.222,0.2406,0.2471,0.2466,0.2336,0.0,0.0,0.0,0.0,0.0,0.0,0.3624,0.4945,0.5773,0.592,0.6023,0.6153,0.6295,0.6295,0.6571,0.7123,0.7673,0.8815,1.0451,1.0451,1.051,1.0612,1.0403,1.1219,1.2411,0.8664,0.7123,0.7063,0.6511,0.6295,0.6295,0.6295,0.6295,0.6304,0.6365,0.6378,0.6516,0.7372,0.8782,1.0267,1.0914,0.0,0.0,0.0,0.0,0.8196,0.866,1.0473,1.1892,1.0785,1.0675,1.0702,1.0354,1.0276,0.998,0.0,0.8239,0.798,0.8559,0.0,0.0,0.0,0.0,0.914,1.0189,1.0695,1.0675,0.9951,1.0525,1.0375,0.8899,0.8782,0.8491,0.7817,0.8118,0.7603,0.6033,0.6302,0.5891,0.4613,0.0,0.0,0.0,0.0,0.0,0.0,0.0,0.0,0.0,0.0,0.0,0.0,0.0,0.0,0.0,0.0,0.0,0.0,0.0,0.0,0.0,0.0,0.0,0.0,0.0,0.0,0.0,0.0,0.0,0.2934,0.2745,0.0,0.0,0.0,0.0,0.5949,0.6118,0.6118,0.6118,0.6212,0.626,0.6269,0.6278,0.6286,0.6295,0.6295,0.7315,0.936,1.1407,1.2599,1.301,1.301,1.2856,1.2561,1.2532,1.2604,1.2532,1.0274,0.9336,0.9132,0.7099,0.6295,0.6295,0.6295,0.6295,0.6334,0.6525,0.6586,0.7014,0.9645,0.9175,0.8029,1.0385,0.9372,0.0,0.0,0.8644,1.0362,1.2086,1.1896,1.1245,1.1177,1.0837,1.0506,1.0494,1.0474,1.045,0.0,1.0255,1.0034,0.9445,0.0,0.9185,0.8556,0.9029,0.9479,0.954,1.078,1.1383,1.0727,1.1254,1.1088,0.9672,0.9539,0.9265,0.8593,0.792,0.753,0.7496,0.6857,0.6131,0.5352,0.5354,0.0,0.0,0.0,0.0,0.0,0.0,0.0,0.0,0.0,0.0,0.0,0.0,0.0,0.0,0.0,0.0,0.0,0.0,0.0,0.0,0.0,0.0,0.0,0.0,0.0,0.0,0.0,0.0,0.4861,0.4843,0.0,0.442,0.3249,0.3559,0.6109,0.6295,0.6295,0.6295,0.6295,0.6295,0.6295,0.6295,0.6967,0.8352,0.9728,1.0801,1.1564,1.233,1.2876,1.3198,1.3198,1.3016,1.27,1.27,1.27,1.2532,1.0375,1.0303,1.1479,1.0721,1.0416,1.0416,1.0416,1.0416,1.0259,0.9119,0.9066,0.9651,1.0644,1.0428,1.0239,1.2736,1.2855,1.2159,1.2159,1.1013,1.0238,1.2279,1.3184,1.3579,1.3579,1.3416,1.3141,1.2663,1.2562,1.2409,1.191,1.1117,1.0599,1.0832,1.0901,1.0994,1.1192,1.1051,1.1096,1.1553,1.167,1.1605,1.1367,1.1561,1.1314,1.0395,0.9872,0.9497,0.925,0.864,0.8071,0.7613,0.7349,0.6874,0.6193,0.6209,0.5881,0.0,0.0,0.0,0.0,0.0,0.0,0.0,0.0,0.0,0.0,0.0,0.0,0.0,0.0,0.0,0.0,0.0,0.0,0.0,0.0,0.0,0.0,0.0,0.0,0.0,0.0,0.574,0.7031,0.7178,0.7099,0.6874,0.5602,0.5511,0.7246,0.6703,0.6334,0.64,0.6404,0.6373,0.6295,0.7003,0.847,1.0739,1.216,1.2815,1.27,1.27,1.2876,1.3198,1.3198,1.3016,1.27,1.27,1.2762,1.2758,1.1329,1.1594,1.2859,1.2745,1.27,1.27,1.27,1.27,1.2591,1.1829,1.1899,1.2342,1.2342,1.2342,1.2665,1.4302,1.48,1.4824,1.494,1.3236,1.1733,1.3219,1.4256,1.4907,1.4907,1.4863,1.4706,1.4213,1.4095,1.3967,1.347,1.2258,1.1384,1.1655,1.1697,1.1788,1.2056,1.1873,1.1885,1.2364,1.2213,1.2068,1.2068,1.2068,1.1792,1.1096,1.0373,0.9875,0.9645,0.9051,0.8484,0.7992,0.7975,0.7652,0.6992,0.6812,0.6377,0.5673,0.0,0.0,0.0,0.0,0.0,0.0,0.0,0.0,0.0,0.0,0.0,0.0,0.0,0.0,0.0,0.0,0.0,0.0,0.0,0.0,0.0,0.0,0.0,0.5822,0.6048,0.6899,0.9178,0.948,0.9504,0.9504,0.9504,0.9468,0.9408,0.7476,0.6391,0.659,0.6662,0.6636,0.6508,0.8532,1.0775,1.3185,1.3198,1.3033,1.27,1.2709,1.2894,1.3198,1.3198,1.3016,1.27,1.2709,1.2903,1.3198,1.3198,1.3198,1.3163,1.2841,1.2709,1.27,1.27,1.2709,1.2917,1.4321,1.48,1.48,1.48,1.48,1.48,1.48,1.48,1.4871,1.5215,1.5112,1.4975,1.5191,1.5112,1.4972,1.4972,1.4972,1.4956,1.4939,1.4923,1.4923,1.4907,1.3755,1.2553,1.1913,1.1778,1.1545,1.0905,1.1334,0.0,1.1735,1.2364,1.2806,1.2806,1.2806,1.2509,1.1804,1.1092,1.0435,0.9776,0.9083,0.8699,0.8699,0.8699,0.8398,0.7762,0.7147,0.6516,0.5875,0.0,0.0,0.0,0.0,0.0,0.0,0.0,0.0,0.0,0.0,0.0,0.0,0.0,0.0,0.0,0.0,0.0,0.0,0.0,0.0,0.0,0.4885,0.5705,0.6668,0.709,0.7543,0.8186,0.8998,0.9504,0.9504,0.9504,0.8856,0.7291,0.6631,0.6391,0.659,0.8125,0.9583,1.0893,1.1743,1.251,1.3185,1.3198,1.3033,1.27,1.2955,1.3112,1.3198,1.3198,1.3016,1.2709,1.2964,1.3112,1.3198,1.3198,1.3198,1.3189,1.3103,1.2911,1.27,1.27,1.285,1.3232,1.4393,1.48,1.48,1.48,1.48,1.4824,1.4925,1.4886,1.4872,1.5261,1.5495,1.5769,1.6419,1.6538,1.6506,1.6506,1.6506,1.636,1.5814,1.5695,1.5549,1.5004,1.4573,1.4234,1.4056,1.3618,1.3237,1.3047,1.2729,0.0,1.2493,1.2676,1.2806,1.2806,1.2806,1.2725,1.2509,1.1437,1.0685,1.0503,0.9366,0.8699,0.8699,0.8699,0.8705,0.8716,0.8031,0.7621,0.0,0.0,0.0,0.0,0.0,0.0,0.0,0.0,0.0,0.0,0.0,0.0,0.0,0.0,0.0,0.0,0.0,0.0,0.0,0.0,0.0,0.0,0.5412,0.6264,0.6922,0.747,0.7795,0.7795,0.8806,0.9144,0.8244,0.816,0.7638,0.6391,0.7135,0.7692,0.781,0.9882,1.164,1.2875,1.3103,1.3198,1.3198,1.3198,1.3103,1.2911,1.3112,1.3198,1.3198,1.3198,1.3086,1.292,1.312,1.3733,1.4572,1.4572,1.4572,0.0,0.0,0.0,0.0,0.0,1.3615,1.377,1.4535,1.48,1.4893,1.5426,1.5603,1.5563,1.5448,1.5356,1.5348,1.5528,1.5789,1.6174,1.6773,1.7022,1.7101,1.7101,1.7101,1.6982,1.6554,1.6457,1.6322,1.5895,1.5824,0.0,1.5824,1.4983,1.4216,1.394,1.3534,1.3156,1.2843,1.2806,1.2806,1.2806,1.2806,1.2815,1.2839,1.1875,0.0,0.0,0.0,0.9498,0.9209,0.9255,0.0,0.0,0.0,0.0,0.0,0.0,0.0,0.0,0.7863,0.8363,0.0,0.0,0.0,0.0,0.0,0.0,0.0,0.0,0.0,0.0,0.0,0.0,0.0,0.0,0.0,0.0,0.6022,0.6306,0.6915,0.7462,0.7842,0.7955,0.8878,0.8664,0.6511,0.6295,0.6295,0.6295,0.8292,0.96,0.9846,0.0,0.0,0.0,0.0,1.3198,1.3198,1.3198,1.3198,1.3198,1.3198,1.3198,1.3198,1.3198,1.3336,1.3574,1.3574,1.4685,1.65,1.65,1.65,1.63,1.4347,1.3481,1.3513,1.4763,1.4856,1.4405,1.4706,0.0,0.0,1.6438,1.6896,1.6805,1.6279,1.6055,1.5982,1.5965,1.6126,1.6374,1.6666,1.6924,1.7101,1.7101,1.7101,1.7101,1.7101,1.7101,1.7101,1.7101,1.7101,1.7101,1.7101,1.5955,1.4837,1.4242,1.4004,1.3679,1.3019,1.2852,1.2804,1.2804,0.0,0.0,1.2885,1.2293,1.1905,1.1897,1.1277,1.0646,1.0072,1.0162,0.9923,0.9263,0.9312,0.9358,0.9403,1.0218,1.0286,0.9679,0.9657,0.9709,0.0,0.0,0.0,0.0,0.0,0.0,0.0,0.0,0.0,0.0,0.0,0.0,0.0,0.0,0.0,0.5368,0.5808,0.6457,0.7484,0.7725,0.8104,0.8918,0.9306,0.8664,0.6511,0.6295,0.6295,0.6295,0.8292,1.0262,1.1993,1.2463,1.285,1.3189,1.3198,1.3198,1.3198,1.3198,1.3198,1.3198,0.0,0.0,1.3198,1.3198,1.4171,1.5861,1.5861,1.6099,1.65,1.65,1.65,1.645,1.6024,1.6479,1.7404,1.7674,1.6479,1.4714,1.4785,1.48,1.5166,1.7426,1.8157,1.7993,1.7142,1.6427,0.0,1.674,1.6938,1.6927,1.6943,1.702,1.7101,1.7101,1.7101,1.7101,1.7101,1.7101,1.7101,1.7101,1.7101,1.7101,1.7101,1.6408,1.5814,1.5695,1.4711,1.3926,1.3795,1.3251,1.2876,1.2876,1.2876,1.2896,1.2906,1.2295,1.1893,1.1901,1.1324,1.0969,1.0947,1.1039,1.0783,1.0164,1.021,0.9971,0.941,1.0207,1.0882,1.1399,1.0755,1.0812,0.0,0.0,0.0,0.0,0.0,0.0,0.0,0.0,0.0,0.0,0.0,0.4871,0.5444,0.0,0.609,0.649,0.6638,0.6903,0.7468,0.7727,0.8233,0.9281,0.898,0.8069,0.6451,0.6295,0.6295,0.6295,0.9277,1.1636,1.2876,1.2955,1.2955,1.2955,1.2955,1.3025,1.3198,1.3198,1.3198,1.321,1.4322,1.4848,1.4848,1.4848,1.5459,1.65,1.65,1.65,1.6479,1.6252,1.6436,1.6873,1.7115,1.7733,1.8398,1.7454,1.6909,1.6471,1.5222,1.574,1.7118,1.8167,1.8562,1.8541,1.7963,1.7524,1.7148,1.6875,1.6934,1.7089,1.7067,1.7064,1.7101,1.7101,1.7101,1.7101,1.7101,1.7101,1.7101,1.7101,1.7101,1.7101,1.7101,1.6873,1.6558,1.6153,1.5223,1.4415,1.4049,1.3362,1.2898,1.2898,1.2898,1.2908,1.2951,1.2667,1.25,1.25,1.2248,1.2008,1.1761,1.1857,1.1627,1.1012,1.1103,1.1167,1.1203,1.1647,1.2071,1.2498,1.2093,1.2125,0.0,0.0,0.0,0.0,0.0,0.0,0.0,0.0,0.4734,0.508,0.568,0.6323,0.6875,0.7013,0.7188,0.7629,0.7533,0.7401,0.7416,0.7698,0.8297,0.9372,0.8736,0.7702,0.6427,0.6295,0.6475,0.6883,1.0113,1.2411,1.3156,1.3198,1.3051,1.2709,1.2762,1.2929,1.3198,1.3198,1.342,1.3858,1.5648,1.65,1.65,1.65,1.65,1.65,1.65,1.65,1.6477,1.6295,1.6755,1.7588,1.7808,1.8169,1.8377,1.6792,1.7185,1.8203,1.6205,1.7095,1.9045,1.8716,1.8716,1.8784,1.8659,1.8536,1.8266,1.744,1.7407,1.7598,1.7419,1.7332,1.7257,1.7134,1.7101,1.7101,1.7101,1.7101,1.7101,1.7101,1.7101,1.7101,1.7114,1.722,1.7085,1.6432,1.5643,1.4926,1.4335,1.3472,1.2942,1.2942,1.2942,1.2961,1.3013,1.3075,1.3097,1.3097,1.3161,1.3013,1.2565,1.2674,1.2457,1.1881,1.1982,1.2287,1.2789,1.2998,1.3094,1.3097,1.3262,1.3253,0.3601,0.354,0.3602,0.3635,0.3597,0.3744,0.0,0.0,0.508,0.6177,0.6566,0.6898,0.7487,0.7373,0.7216,0.7343,0.758,0.7763,0.7829,0.787,0.8297,0.9372,0.9396,0.8532,0.6499,0.6295,0.7087,0.9,0.9582,1.0838,1.3081,1.3198,1.3051,1.2709,1.299,1.3163,1.3198,1.3198,1.4196,1.6137,1.6375,1.65,1.65,1.65,1.65,1.65,1.65,1.65,1.6565,1.7334,1.8155,1.8822,1.8092,1.825,1.8793,1.8223,1.8216,1.8456,1.8175,1.8522,1.9092,1.9045,1.8969,1.8907,1.8998,1.8668,1.8482,1.9697,1.9813,1.9389,1.8566,1.8168,1.7834,1.7241,1.7101,1.7101,1.7101,1.7101,1.7101,1.7101,1.7101,1.7114,1.7174,1.7255,1.7267,1.7173,1.6088,1.5244,1.5166,1.3937,1.3079,1.3079,1.3079,1.3079,1.3088,1.3093,1.3097,1.3097,1.3161,1.3274,1.3453,1.3534,1.3334,1.2854,1.2852,1.2594,1.2018,1.2745,1.3103,1.3123,1.3829,1.3775,0.4288,0.4447,0.4672,0.0,0.4574,0.461,0.5632,0.591,0.6264,0.7315,0.7945,0.8392,0.8641,0.8607,0.8543,0.0,0.8699,0.8795,0.882,0.8832,0.8994,0.9444,0.9504,0.9144,0.825,0.8166,0.8532,0.9432,0.9504,1.002,1.1219,1.2505,1.3138,1.2999,1.3129,1.3198,1.3198,1.4472,1.5575,1.65,1.65,1.65,1.65,1.65,1.65,1.65,1.65,1.65,1.6575,1.7512,1.8238,1.8707,1.8264,1.8323,1.863,1.8297,1.8366,1.8615,1.8654,1.8865,1.9101,1.9101,1.9064,1.9035,1.9082,1.902,1.9087,1.9956,2.0395,2.0531,2.0203,1.9641,1.9081,1.8797,1.819,1.7672,1.7672,1.7412,1.7162,1.7162,1.7199,1.7236,1.7255,1.7316,1.7359,1.7359,1.6177,1.5297,1.5297,1.4001,1.3097,1.3097,1.3097,1.3097,1.3097,1.3097,1.3097,1.3097,1.3161,1.3312,1.3593,1.3667,1.3696,1.3699,1.3695,1.3571,1.3308,1.3627,1.3802,1.3811,1.4137,1.4119,0.4783,0.509,0.0,0.5569,0.5451,0.5589,0.6694,0.707,0.7431,0.8278,0.8954,0.9403,0.9429,0.947,0.9504,0.9504,0.9504,0.9504,0.9504,0.9504,0.9504,0.9504,0.9504,0.9504,0.9504,0.9504,0.9504,0.9504,1.013,1.0613,1.0797,1.2329,1.3198,1.3198,1.3198,1.3198,1.3198,1.5397,1.65,1.65,1.65,1.65,1.65,1.65,1.65,1.65,1.65,1.65,1.6565,1.7365,1.8019,1.8488,1.839,1.8488,1.8639,1.8454,1.8538,1.8765,1.8812,1.8945,1.9101,1.9101,1.9101,1.9101,1.9101,1.9195,1.9395,1.9732,2.0381,2.0934,2.0814,2.0399,1.9956,1.9769,1.8887,1.8109,1.8109,1.7636,1.7209,1.7209,1.7255,1.7306,1.7312,1.7365,1.7411,1.7419,1.6387,1.553,1.5331,1.4001,1.318,1.3374,1.3225,1.3175,1.3395,1.323,1.3097,1.3097,1.3161,1.3312,1.3593,1.3667,1.3862,1.4192,1.4196,1.4232,1.4292,1.4308,1.43,1.43,1.43,1.43,0.4783,0.0,0.5436,0.5563,0.6078,0.673,0.7423,0.787,0.8338,0.8948,0.9244,0.9417,0.9484,0.9504,0.9504,0.9504,0.9504,0.9504,0.9504,0.9504,0.9504,0.9504,0.9504,0.9504,0.0,0.9504,0.9504,0.9504,1.1733,1.3087,1.3103,1.316,1.3198,1.3198,1.3198,1.3198,1.3198,1.5397,1.65,1.65,1.65,1.65,1.65,1.65,1.65,1.65,1.65,1.65,1.6543,1.7021,1.7733,1.8498,1.8498,1.8726,1.9082,1.9073,1.8998,1.8888,1.8898,1.8998,1.9101,1.9101,1.9101,1.9101,1.9101,1.9101,1.9148,1.9358,2.0004,2.0434,1.9657,1.9878,2.0111,1.9387,1.8651,1.8109,1.8109,1.7636,1.7209,1.7209,1.7255,1.7312,1.7399,1.7405,1.7413,1.7491,1.6846,1.611,1.5397,1.4001,1.3374,1.4086,1.3523,1.3391,1.4119,1.3507,1.3097,1.3097,1.3161,1.3312,1.3593,1.3667,1.3862,1.4185,1.4195,1.4224,1.4297,1.4297,1.43,1.43,1.43,1.43,0.4766,0.0,0.5204,0.6053,0.6966,0.7742,0.8065,0.8572,0.9027,0.9141,0.9264,0.9371,0.9472,0.9356,0.9296,0.9477,0.9504,0.9504,0.9504,0.9504,0.9504,0.9504,0.9504,0.0,0.0,0.0,0.0,0.9756,1.1897,1.3194,1.3199,1.3198,1.3556,1.4301,1.3586,1.3198,1.3198,1.5397,1.65,1.65,1.65,1.65,1.65,1.65,1.65,1.65,1.65,1.65,1.6511,1.6669,1.7424,1.8508,1.8596,1.8827,1.9101,1.9101,1.9073,1.9035,1.9035,1.9064,1.9101,1.9101,1.9101,1.9101,1.9101,1.9101,1.9139,1.9339,1.9854,2.03,2.017,2.0536,2.0896,2.0654,1.9681,1.8836,1.8836,1.8007,1.7273,1.7273,1.7365,1.7433,1.7461,1.7835,1.8133,1.8158,1.674,1.5579,1.5331,1.4432,1.4107,1.4851,1.4707,1.4657,1.4906,1.4245,1.3838,1.3838,1.3428,1.3557,1.436,1.4455,1.491,1.5778,1.5782,1.5836,1.5889,1.5889,1.5889,1.5889,1.5889,1.5889,0.5207,0.5358,0.559,0.6489,0.7406,0.814,0.8315,0.8791,0.9191,0.9225,0.9232,0.9151,0.8905,0.8885,0.9047,0.9432,0.9504,0.9504,0.9504,0.9504,0.978,1.055,1.0634,1.0686,0.0,0.0,0.0,1.1076,1.2405,1.3198,1.3198,1.3407,1.3857,1.4588,1.4085,1.3811,1.3811,1.5597,1.65,1.65,1.65,1.65,1.65,1.65,1.65,1.65,1.65,1.65,1.65,1.65,1.7289,1.8517,1.8654,1.886,1.9101,1.9101,1.9101,1.9101,1.9101,1.9101,1.9101,1.9101,1.9101,1.9101,1.9101,1.9101,1.9139,1.9339,1.9791,2.0243,2.0444,2.0909,2.1293,2.1293,2.0434,1.9591,1.9591,1.8776,1.8047,1.8047,1.8165,1.8253,1.8253,1.8611,1.8896,1.8896,1.7508,1.626,1.5762,1.5282,1.5161,1.5641,1.5463,1.5414,1.5679,1.5265,1.499,1.499,1.4603,1.474,1.5551,1.5401,1.5844,1.7002,1.7027,1.7193,1.7559,1.7273,1.7128,1.7128,1.6838,1.6693,0.6027,0.64,0.6541,0.6861,0.744,0.7991,0.8237,0.8558,0.8892,0.922,0.9203,0.8807,0.0,0.0,0.8802,0.9398,0.9504,0.9504,0.9504,0.96,1.0418,0.0,0.0,0.0,0.0,0.0,0.0,1.3249,0.0,1.3219,1.3249,1.3796,1.412,1.4167,1.4639,1.4935,1.4979,1.5988,1.65,1.65,1.65,1.65,1.65,1.65,1.65,1.65,1.65,1.65,1.65,1.65,1.7289,1.8517,1.8649,1.8879,1.9101,1.9101,1.9101,1.9101,1.9101,1.9101,1.9101,1.9101,1.9101,1.9101,1.9101,1.9101,1.9139,1.9339,1.9791,2.0243,2.0444,2.0909,2.1293,2.1293,2.0783,2.0305,2.0305,1.9821,1.9394,1.9394,1.9513,1.9601,1.9657,1.9657,1.9674,1.9707,1.9128,1.8164,1.6746,1.6531,1.6514,1.6553,1.5939,1.5806,1.6497,1.6531,1.652,1.652,1.6548,1.6737,1.7107,1.652,1.6743,1.7955,1.7981,1.8361,1.9159,1.8381,1.7982,1.7924,1.7167,1.6805,0.6555,0.7162,0.7375,0.7418,0.7852,0.8262,0.8226,0.8565,0.8921,0.9115,0.9277,0.8655,0.0,0.0,0.0,0.9398,0.9504,0.0,0.9504,1.0882,0.0,1.264,0.0,1.2943,1.3181,1.3198,0.0,0.0,1.3505,1.3437,1.3999,1.4068,1.4403,1.5051,1.496,1.5279,1.6079,1.6362,1.65,1.65,1.65,1.65,1.65,1.65,1.65,1.65,1.65,1.65,1.65,1.65,1.7289,1.8537,1.8865,1.9045,1.9101,1.9101,1.9101,1.9101,1.9101,1.9101,1.9101,1.9101,1.9101,1.9101,1.9101,1.9101,1.9139,1.9339,1.9791,2.0243,2.0444,2.0909,2.1293,2.1293,2.0783,2.0305,2.0305,1.9821,1.9394,1.9394,1.9513,1.9773,2.0323,2.043,2.0612,2.1151,2.1085,2.0439,1.8969,1.8307,1.818,1.8737,1.8621,1.8578,1.8776,1.828,1.7965,1.7965,1.7617,1.7782,1.8676,1.874,1.9279,2.0397,2.0402,2.0218,1.984,1.9597,1.9161,1.857,1.8368,1.8261,0.6844,0.7338,0.7495,0.7544,0.778,0.7987,0.7914,0.8141,0.8474,0.8813,0.8994,0.0,0.5593,0.7019,0.8802,0.0,0.0,0.0,0.9504,1.1347,1.2753,0.0,1.2908,0.0,1.3181,1.3198,1.3475,0.0,1.3826,1.3887,1.4527,1.4631,1.4886,1.5389,1.5526,1.5887,1.6488,1.65,1.65,1.65,1.65,1.65,1.65,1.65,1.65,1.65,0.0,1.65,1.65,1.65,1.7289,1.8547,1.8941,1.9101,1.9101,1.9101,1.9101,1.9101,1.9101,1.9101,1.9101,1.9101,1.9101,1.911,1.9167,1.9185,1.9241,1.9493,1.9918,2.0344,2.0562,2.095,2.1293,2.1293,2.1002,2.0742,2.078,2.0567,2.0382,2.0445,2.0508,2.0704,2.1109,2.1182,2.1324,2.1739,2.1805,2.1507,2.0664,1.9919,1.9505,1.9591,1.9601,1.9601,1.9601,1.9515,1.9479,1.9479,1.9274,1.9502,2.0281,2.024,2.071,2.1858,2.1471,2.1185,2.1058,2.0294,1.9658,1.9137,1.8818,1.8671,0.6997,0.7203,0.7248,0.7444,0.7519,0.7527,0.7527,0.7442,0.7498,0.8027,0.0,0.7514,0.5472,0.6809,0.8503,0.9357,0.0,0.9504,0.9504,1.1279,1.2686,1.2979,1.2959,1.2995,1.3172,1.3189,1.3474,1.4159,1.4213,1.4443,1.4981,1.5274,1.5469,1.5549,1.617,1.65,1.65,1.65,1.65,1.65,1.65,1.65,1.65,1.65,1.65,1.65,1.6543,1.6663,1.6822,1.669,1.7435,1.8711,1.8965,1.9082,1.9101,1.9101,1.9101,1.9101,1.9101,1.9101,1.9101,1.9101,1.9101,1.9129,1.9265,1.933,1.9417,1.9732,2.0128,2.0512,2.0745,2.1063,2.1309,2.1309,2.1341,2.1364,2.1402,2.151,2.1649,2.1783,2.1805,2.1805,2.1805,2.1805,2.1805,2.1805,2.1805,2.1805,2.1805,2.1232,2.0595,1.9962,1.9889,1.9889,1.9889,2.0472,2.0851,2.0851,2.1054,2.1345,2.1715,2.1325,2.1564,2.2525,2.1739,2.1542,2.1952,2.0486,1.9638,1.9395,1.8753,1.8468,0.7159,0.7203,0.7248,0.7444,0.7586,0.7659,0.7659,0.6568,0.0,0.0,0.5707,0.5577,0.5176,0.5753,0.6989,0.9151,0.9504,0.9504,0.9504,1.0925,1.1972,0.0,1.2646,1.3089,1.3103,1.3163,0.0,0.0,1.476,1.4994,1.5523,1.5622,1.5853,1.6294,1.643,1.65,1.65,1.65,1.65,1.65,1.65,1.65,1.65,1.65,1.65,1.6511,1.6725,0.0,1.8503,1.7676,1.8245,1.9602,1.9128,1.9007,1.9101,1.9101,1.9101,1.9101,1.9101,1.9101,1.9101,1.9101,1.9101,1.9129,1.9265,1.9444,1.9681,1.9902,2.0332,2.0745,2.086,2.1135,2.1378,2.1378,2.1481,2.1542,2.1557,2.1626,2.1709,2.1773,2.1805,2.1805,2.1805,2.1805,2.1805,2.1805,2.1805,2.1805,2.1805,2.1689,2.1556,2.144,2.1424,2.1424,2.1424,2.154,2.1606,2.1606,2.1907,2.2173,2.2423,2.2596,2.2553,2.2282,2.2115,2.1405,2.0153,1.9758,1.9171,1.8442,1.8315,1.8246,0.7203,0.7203,0.7225,0.7324,0.739,0.7488,0.7659,0.0,0.0,0.0,0.5098,0.5098,0.5098,0.5487,0.6245,0.7608,0.8772,0.9504,0.9504,1.0702,1.1665,1.1885,1.2617,1.3115,1.3146,1.3181,1.3567,1.4424,1.473,1.5258,1.6079,1.6113,1.6227,1.6488,1.65,1.65,1.65,1.65,1.65,1.65,1.65,1.65,1.65,1.65,1.65,1.6557,1.7558,1.8594,1.9579,1.9842,2.03,2.0799,2.0474,2.0126,1.9774,1.9774,1.9483,1.9101,1.9101,1.9101,1.9101,1.9101,1.9101,1.9129,1.9302,1.9545,1.9827,2.0124,2.0512,2.0877,2.1023,2.1198,2.1364,2.1386,2.1533,2.1649,2.1649,2.1693,2.176,2.1781,2.1805,2.1805,2.1805,2.1805,2.1805,2.1805,2.1805,2.1805,2.1805,2.1805,2.1805,2.1805,2.1464,2.1232,2.1232,2.087,2.0827,2.1252,2.1521,2.1956,2.2571,2.2812,2.2666,2.2057,2.1596,2.0751,1.9487,1.8977,1.8473,1.7988,1.7988,1.7988,0.7203,0.7203,0.7203,0.7203,0.7255,0.7282,0.7173,0.6084,0.0,0.5098,0.5141,0.5195,0.5238,0.5581,0.5943,0.0,0.8094,0.9576,0.981,1.0661,1.1449,1.1986,1.2684,0.0,1.3189,1.3198,0.0,1.4041,1.47,1.5494,1.6454,1.65,1.65,1.65,1.65,1.65,1.65,1.65,1.65,1.65,1.65,1.65,1.65,1.65,1.65,1.6583,1.812,1.9226,2.0034,2.1236,2.171,2.1664,2.1566,2.1123,2.0528,2.0431,1.9933,1.929,1.9145,1.9101,1.9101,1.9101,1.9101,1.9139,1.9339,1.963,1.9956,2.0309,2.068,2.1023,2.1175,2.127,2.1348,2.1433,2.1587,2.1693,2.1715,2.1768,2.1805,2.1805,2.1805,2.1805,2.1805,2.1805,2.1805,2.1805,2.1805,2.1805,2.1805,2.1805,2.1739,2.158,2.105,2.0635,2.0479,1.9929,1.9933,2.0755,2.0988,2.1542,2.252,2.2533,2.2213,2.1587,2.0738,1.9888,1.9015,1.8328,1.7923,1.78,1.78,1.7884,0.7203,0.7203,0.7203,0.7203,0.7427,0.7252,0.57,0.0,0.5098,0.5098,0.5296,0.5521,0.5704,0.5868,0.6054,0.626,0.8094,0.9846,1.0818,1.084,1.1128,1.2066,0.0,0.0,1.3198,1.3198,1.3446,1.4055,1.5046,1.5882,1.6475,1.65,1.65,1.65,1.65,1.65,1.65,1.65,1.65,1.65,1.65,1.65,1.65,1.65,1.65,1.6557,1.756,1.8563,0.0,2.0001,2.0764,2.1577,2.1143,2.0959,2.0901,2.0528,2.0238,1.9928,1.9304,1.9101,1.9101,1.9101,1.9101,1.9139,1.9339,1.9756,2.02,2.0427,2.0852,2.1262,2.1294,2.134,2.1433,2.1625,2.1694,2.1724,2.1783,2.1805,2.1805,2.1805,2.1805,2.1805,2.1805,2.1805,2.1805,2.1805,2.1805,2.1805,2.1805,2.1805,2.154,2.0868,2.0735,2.043,1.9756,1.9641,1.9933,2.0755,2.0988,2.1505,2.2378,2.1897,2.1284,2.0557,1.9734,1.8932,1.8124,1.7984,1.7861,1.78,1.78,1.816,0.7203,0.7353,0.7248,0.6193,0.6825,0.7248,0.5496,0.0,0.5098,0.5098,0.5411,0.5774,0.6052,0.614,0.6207,0.6282,0.8094,0.9648,1.0082,1.1227,1.1952,1.1745,1.2597,1.3198,0.0,0.0,1.345,1.4044,1.4793,1.5452,1.5994,1.6323,1.65,1.65,1.6926,1.7163,1.7163,1.7602,1.7602,1.7176,1.7414,1.7339,1.7049,1.7388,1.7389,1.7223,1.8284,1.8904,0.0,2.0808,2.1809,2.236,2.2181,2.2124,2.2127,2.1957,2.1214,2.0238,1.9977,1.9541,1.9174,1.9566,1.9696,1.9735,1.9946,2.0664,2.1365,2.1157,2.1512,2.1851,2.1414,2.1356,2.153,2.2113,2.196,2.1715,2.179,2.1805,2.1805,2.1805,2.1805,2.1805,2.1805,2.1805,2.1805,2.1805,2.1805,2.1805,2.1805,2.1805,2.1357,2.0151,2.0035,1.973,1.8995,1.8578,1.8884,2.0184,1.9881,2.0264,2.163,2.097,2.0243,1.9501,1.9176,1.8637,1.7872,1.785,1.7828,1.7817,1.8262,1.8623,0.7203,0.7421,0.7361,0.616,0.6405,0.6616,0.5379,0.5156,0.5238,0.5291,0.5594,0.5952,0.6242,0.6295,0.6511,0.7147,0.852,0.9582,0.9793,1.1456,1.2382,1.1728,0.0,1.3198,1.3198,1.3198,1.3378,1.3799,1.4503,1.5135,1.5678,1.6384,1.6762,1.6762,1.7314,1.7703,1.7916,1.843,1.843,1.7929,1.8104,1.8003,1.765,1.8028,1.8053,1.7826,1.8862,1.9274,0.0,2.1525,2.2603,2.2888,2.2888,2.2888,2.2888,2.2888,2.203,2.0862,2.0804,2.0281,1.974,2.0204,2.0494,2.0695,2.0901,2.1542,2.2141,2.1896,2.2251,2.2564,2.1819,2.181,2.2118,2.2499,2.2284,2.1941,2.1816,2.1805,2.1805,2.1805,2.1805,2.1805,2.1805,2.1805,2.1805,2.1805,2.1805,2.1722,2.1497,2.1481,2.0903,1.9426,1.9277,1.8979,1.8263,1.7762,1.8084,1.9466,1.9004,1.9345,2.0788,2.0088,1.9423,1.8916,1.8696,1.8318,1.78,1.78,1.78,1.7817,1.8555,1.9255,0.7203,0.7346,0.7534,0.7647,0.6392,0.5117,0.5108,0.5306,0.5554,0.5756,0.5895,0.6063,0.626,0.6295,0.6991,0.912,0.948,0.9757,1.0491,1.1408,1.2052,0.0,1.2797,1.3198,1.3198,1.3198,1.3198,1.321,1.4259,0.0,1.5678,1.6771,1.7398,1.7398,1.7526,1.7941,1.8681,1.8694,1.8694,1.8681,1.8367,1.8204,1.8191,1.8204,1.8204,1.824,1.8977,1.9487,0.0,2.1683,2.2603,2.2888,2.2888,2.2888,2.2888,2.2888,2.2504,2.1946,2.1764,2.1376,2.0984,2.0988,2.1438,2.2018,2.2213,2.2244,2.2243,2.2524,2.3017,2.3326,2.258,2.292,2.3328,2.2736,2.2597,2.2448,2.1917,2.1805,2.1805,2.1805,2.1805,2.1805,2.1805,2.1805,2.1805,2.1805,2.1805,2.1547,2.0801,2.0718,2.0148,1.8671,1.8515,1.824,1.7569,1.7509,1.7845,1.8662,1.8702,1.9087,1.9985,1.9293,1.8916,1.8899,1.8177,1.7805,1.78,1.78,1.78,1.7817,1.8555,2.0111,0.6456,0.653,0.6318,0.595,0.5924,0.5833,0.5239,0.5416,0.5782,0.6084,0.6171,0.6224,0.6282,0.6295,0.7003,0.9156,0.9504,0.9576,0.9817,1.1094,0.0,1.1679,1.256,1.3198,0.0,0.0,1.3198,1.3198,1.4259,1.5135,1.5678,1.6771,1.7562,1.794,1.8343,1.8669,1.8895,1.9258,1.9258,1.8907,1.9171,1.9095,1.8757,1.9133,1.9296,1.9321,1.9823,2.0588,2.149,2.213,2.2603,2.2888,2.2888,2.2888,2.2888,2.2888,2.2519,2.1989,2.1928,2.1507,2.1085,2.1525,2.1826,2.212,2.2779,2.3298,2.3668,2.386,2.3704,2.3544,2.3787,2.3674,2.3466,2.3382,2.2973,2.2448,2.1917,2.1805,2.1805,2.1805,2.1805,2.1805,2.1805,2.1805,2.1805,2.1805,2.1374,2.0967,2.0735,2.0257,1.9581,1.8598,1.8499,1.823,1.7553,1.7509,1.7845,1.8656,1.8237,1.8341,1.9209,1.8538,1.8144,1.8144,1.7924,1.78,1.78,1.8313,1.9344,2.0866,2.0608,2.1664,0.5829,0.6117,0.6049,0.5572,0.6178,0.6623,0.5593,0.5622,0.5961,0.6238,0.6295,0.6295,0.6295,0.6295,0.6907,0.8784,0.8982,0.9102,0.9714,0.0,0.0,1.2047,1.2743,0.0,0.0,1.3403,1.3546,1.3546,1.4761,1.5753,1.6306,1.74,1.8254,1.8794,1.892,1.9096,1.9296,1.9622,1.9622,1.9309,1.9635,1.9635,1.9321,1.966,1.9798,1.9824,2.0233,2.0972,0.0,2.2266,2.2603,2.2888,2.2888,2.2888,2.2888,2.2888,2.2653,2.2341,2.2341,2.2066,2.179,2.2211,2.2418,2.264,2.344,2.403,2.4439,2.4475,2.4394,2.4329,2.4459,2.4394,2.4196,2.3791,2.335,2.2792,2.1983,2.1805,2.1805,2.1805,2.1805,2.1805,2.1805,2.1805,2.1805,2.1805,2.1414,2.091,2.0356,1.9879,1.921,1.823,1.8356,1.8323,1.7905,1.7878,1.8232,1.9052,1.842,1.8279,1.8877,1.8194,1.7924,1.8217,1.8211,1.8346,1.8622,1.9407,2.0771,2.2692,2.225,2.2917,0.0,0.5954,0.6413,0.6166,0.6815,0.722,0.6095,0.5927,0.0,0.626,0.6295,0.6319,0.6367,0.6367,0.6823,0.825,0.8219,0.8549,1.0089,1.0975,0.0,0.0,1.3198,1.3223,1.3257,1.3765,1.4116,1.4144,1.5578,1.6699,1.7299,1.8318,1.9158,1.971,1.9271,1.9271,1.9798,1.9798,1.9798,1.9798,1.9798,1.9798,1.9798,1.9798,1.9798,0.0,2.0233,2.0799,2.1446,2.21,2.2592,2.2888,2.2888,2.2888,2.2888,2.2888,2.2888,2.2888,2.2888,2.2888,2.2888,2.2888,2.309,2.3429,2.4104,2.4436,2.46,2.4577,2.5072,2.5435,2.4767,2.5082,2.529,2.3995,2.3702,2.3359,2.2082,2.1805,2.1805,2.1805,2.1805,2.1805,2.1805,2.1805,2.1805,2.1805,2.1763,2.1234,1.9856,1.9634,1.9101,1.7785,1.8214,1.8598,1.8648,1.8615,1.8934,1.9742,1.915,1.881,1.8894,1.8296,1.8245,1.8883,1.895,1.9367,2.0177,2.0906,2.207,2.3569,2.3494,2.3874,0.4932,0.0,0.5271,0.5152,0.542,0.5794,0.0,0.6202,0.6242,0.6286,0.6295,0.6475,0.7044,0.7013,0.7421,0.8988,0.9168,0.9422,1.0268,1.1357,0.0,1.3114,1.3198,1.3378,1.3837,1.4018,1.427,1.468,1.5439,1.6132,1.6674,1.7388,1.8216,1.9171,1.907,1.9271,1.9798,1.9798,1.9798,1.9798,1.9798,1.9798,1.9798,1.9798,1.9798,1.9824,2.0321,2.0871,2.1443,2.2018,2.2497,2.2888,2.2888,2.2888,2.2888,2.2888,2.2888,2.2888,2.2888,2.2888,2.2888,2.2888,2.309,2.3429,2.4104,2.4436,2.4709,2.521,2.5477,2.5558,2.538,2.551,2.5333,2.4012,2.3744,2.3416,2.2097,2.1805,2.1805,2.1805,2.1805,2.1805,2.1805,2.1805,2.1805,2.1805,2.1315,2.0834,2.0496,1.9945,1.9468,1.9134,1.9244,1.9565,2.0131,1.9671,1.9475,1.9775,1.9631,1.9343,1.891,1.9276,1.9304,1.8916,1.9446,2.042,2.1755,2.1948,2.3081,2.5076,2.45,2.4635,0.4961,0.4961,0.4936,0.4901,0.5204,0.5625,0.6068,0.6233,0.6286,0.6263,0.0,0.6499,0.7145,0.7419,0.7996,0.9323,0.9805,1.0299,0.0,0.0,1.2797,1.316,1.3437,1.374,0.0,1.4551,1.4947,1.5248,1.6028,1.6608,1.6898,1.7462,1.8028,1.8607,1.8619,1.9008,1.9798,1.9798,1.9798,1.9798,1.9798,1.9798,1.9798,1.9862,1.9927,2.0016,2.0548,2.108,2.1624,2.21,2.252,2.2888,2.2888,2.2888,2.2888,2.2888,2.2888,2.2888,2.2888,2.2888,2.2888,2.2888,2.309,2.3429,2.4104,2.4436,2.4741,2.541,2.5597,2.5616,2.5647,2.568,2.5362,2.4063,2.3769,2.3432,2.2081,2.1805,2.1805,2.1805,2.207,2.2302,2.2302,2.2584,2.2692,2.2352,2.1971,2.1457,2.0785,2.034,1.9985,1.9641,1.9896,2.0281,2.0713,2.0687,2.0703,2.0803,2.0518,2.0232,1.9965,1.998,2.0149,2.045,2.1515,2.2641,2.3808,2.3808,2.4603,2.6082,2.5355,2.5041,0.5195,0.5259,0.5239,0.5137,0.5561,0.6002,0.6032,0.0,0.0,0.0,0.0,0.0,0.7246,0.7884,0.0,0.9565,0.0,0.0,1.2394,1.2867,1.315,1.3189,1.3727,0.0,1.4207,1.511,1.5731,1.5829,1.6721,1.7261,1.7261,1.7689,1.7979,1.8078,1.8078,1.8555,1.9547,1.956,1.956,1.956,1.956,1.956,1.956,1.9699,1.9851,2.0027,0.0,0.0,2.1751,2.2235,2.2626,2.2888,2.2888,2.2888,2.2888,2.2888,2.2888,2.2888,2.2888,2.2888,2.2888,2.2888,2.309,2.3429,2.4104,2.4436,2.4741,2.541,2.5597,2.5609,2.567,2.5701,2.5422,2.4246,2.3984,2.3663,2.2412,2.2136,2.2136,2.2136,2.2633,2.3073,2.3073,2.3586,2.3785,2.3156,2.3073,2.2617,2.1365,2.1199,2.0953,2.0336,2.0837,2.1237,2.1304,2.1889,2.2274,2.2355,2.1617,2.1248,2.1353,2.0707,2.1028,2.2438,2.3814,2.4855,2.5601,2.5601,2.5922,2.653,2.5888,2.5135,0.5416,0.5933,0.6307,0.5736,0.5797,0.6036,0.6147,0.0,0.0,0.0,0.0,0.0,0.0,0.8961,0.9565,0.0,0.0,1.2422,0.0,0.0,1.3189,1.3198,0.0,1.4283,1.473,1.5349,1.5894,1.6348,1.6549,1.6636,1.6636,1.6724,1.7011,1.7512,1.7512,1.7826,1.8442,1.8455,1.8455,1.8455,1.8455,1.8455,1.8455,1.8645,1.8834,1.907,0.0,2.0847,2.1366,2.2212,2.2706,2.2888,2.2888,2.2888,2.2888,2.2888,2.2888,2.2888,2.2888,2.2888,2.2888,2.2888,2.309,2.3429,2.4104,2.4436,2.4741,2.541,2.5597,2.5606,2.5609,2.5749,2.5659,2.485,2.4775,2.4671,2.3843,2.3669,2.3669,2.3669,2.3752,2.3835,2.3835,2.3934,2.3967,2.3851,2.3835,2.3752,2.352,2.3487,2.3454,2.3338,2.3437,2.3519,2.3598,2.3745,2.3906,2.4022,2.2769,2.2057,2.2134,2.2016,2.2354,2.3207,2.4068,2.4855,2.5601,2.5601,2.5651,2.577,2.5651,2.4873,0.5575,0.6299,0.6909,0.6424,0.68,0.7316,0.7381,0.748,0.0,0.0,0.0,0.0,0.0,0.0,1.0966,1.2196,0.0,1.3442,1.3939,1.3827,1.3565,0.0,0.0,1.4629,1.4888,1.5657,1.6235,1.6475,1.65,1.65,1.65,1.65,1.6624,1.6911,1.6911,1.7025,1.7276,1.7276,1.759,1.8204,1.8204,1.8204,1.8204,1.8451,1.866,1.8914,0.0,2.0827,2.1319,2.223,2.2718,2.2888,2.2888,2.2888,2.2888,2.2888,2.2888,2.2888,2.2888,2.2888,2.2888,2.2888,2.309,2.3407,2.3931,2.4302,2.4666,2.5275,2.5521,2.5616,2.564,2.5717,2.5639,2.5008,2.4914,2.481,2.4133,2.4,2.4,2.4,2.4315,2.4588,2.4588,2.4919,2.5052,2.4654,2.4588,2.4439,2.405,2.4,2.4,2.4,2.4,2.4049,2.4154,2.4177,2.4272,2.4429,2.3829,2.3465,2.3485,2.3866,2.4231,2.4577,2.4915,2.5253,2.5601,2.5203,2.5008,2.5008,2.4594,2.4052,0.5755,0.6469,0.7175,0.7042,0.0,0.8382,0.8281,0.8121,0.0,0.0,0.0,0.0,0.0,1.0814,0.0,1.3991,1.4176,1.4188,1.445,1.4366,1.4122,1.3647,1.4482,1.5085,1.5082,1.593,1.65,1.65,1.65,1.65,1.65,1.65,1.65,1.65,1.65,1.65,1.65,1.65,1.6875,1.7626,1.774,1.7739,1.7626,1.8017,1.8306,1.8567,1.984,2.0654,2.1172,2.2184,2.2718,2.2888,2.2888,2.2888,2.2888,2.2888,2.2888,2.2888,2.2888,2.2888,2.2888,2.2888,2.3056,2.333,2.3713,2.4089,2.4508,2.5054,2.5336,2.5499,2.5642,2.5701,2.5644,2.5239,2.5178,2.5082,2.463,2.453,2.453,2.453,2.4969,2.535,2.535,2.583,2.6012,2.5449,2.535,2.5151,2.4597,2.453,2.453,2.453,2.453,2.4589,2.4736,2.4776,2.4857,2.5008,2.4694,2.4498,2.4498,2.5203,2.5516,2.5355,2.5499,2.5516,2.533,2.4771,2.4406,2.422,2.3654,2.34,0.5975,0.6443,0.7047,0.7515,0.8022,0.0,0.7921,0.821,0.0,0.9256,0.0,0.0,0.0,1.1627,1.2737,1.456,1.4413,1.4447,1.5447,0.0,1.4829,1.4789,1.5287,1.5638,1.5633,1.6162,1.65,1.65,1.65,1.65,1.65,1.65,1.65,1.65,1.65,1.65,1.65,1.65,1.6298,1.5892,1.6385,1.636,1.5904,1.6676,1.7129,1.7413,1.9059,2.0034,2.0588,2.2013,2.2718,2.2888,2.2888,2.2888,2.2888,2.2888,2.2888,2.2888,2.2888,2.2888,2.2888,2.2888,2.3004,2.3183,2.3523,2.3829,2.4156,2.4769,2.5033,2.5204,2.5524,2.5749,2.5881,2.585,2.5977,2.6086,2.6053,2.6045,2.6045,2.6045,2.607,2.6128,2.6128,2.6152,2.6169,2.6128,2.6128,2.6103,2.6045,2.6045,2.6045,2.6045,2.6045,2.6126,2.6319,2.6446,2.6531,2.6547,2.5269,2.4498,2.4498,2.5203,2.5287,2.4592,2.5253,2.527,2.4575,2.4525,2.4152,2.3485,2.3417,2.34,0.5998,0.6406,0.6986,0.7605,0.811,0.0,0.0,0.9242,0.973,0.9954,1.069,0.0,0.0,0.0,1.3025,1.4208,1.4516,1.4744,1.514,1.532,1.5278,1.4945,1.5363,1.5696,1.5701,1.6193,1.65,1.65,1.65,1.65,1.65,1.65,1.6348,1.6019,1.6323,1.6348,1.6007,1.6335,1.6222,1.5716,1.6247,1.6387,1.621,1.6606,1.7036,1.7581,1.8882,1.9925,2.0798,2.1982,2.2649,2.2888,2.2888,2.2888,2.2888,2.2888,2.2888,2.2957,2.3386,2.3244,2.2972,2.3386,2.3335,2.3138,2.3352,2.362,2.3984,2.4553,2.4833,2.5075,2.5549,2.5717,2.5809,2.5936,2.6017,2.6097,2.6176,2.6211,2.6211,2.6211,2.6211,2.6211,2.6211,2.6211,2.6211,2.6211,2.6211,2.6211,2.6211,2.6211,2.6211,2.6211,2.5726,2.5304,2.5087,2.5236,2.5325,2.5329,2.5244,2.5186,2.5186,2.5008,2.4771,2.4515,2.4331,2.4086,2.3806,2.3359,2.2987,2.2733,2.3197,2.34,0.6027,0.631,0.6793,0.7581,0.0,0.0,0.9476,0.9991,1.0346,1.0522,1.1423,1.2335,1.2808,0.0,0.0,0.0,1.4415,1.4772,1.5097,1.5473,1.5634,1.5434,1.5729,1.5954,1.5954,1.6271,1.65,1.65,1.65,1.65,1.65,1.65,1.6335,1.5969,1.631,1.6323,1.5957,1.6323,1.6323,1.5957,1.6323,1.64,1.626,1.6723,1.7166,1.767,1.8925,1.9974,2.0882,2.192,2.2555,2.2888,2.2888,2.2888,2.2888,2.2888,2.303,2.3287,2.3731,2.3746,2.3577,2.3818,2.3792,2.3655,2.3535,2.3841,2.431,2.4693,2.4951,2.5217,2.5637,2.5763,2.5809,2.5956,2.6036,2.6097,2.6176,2.6211,2.6211,2.6211,2.6211,2.6211,2.6211,2.6211,2.6211,2.6211,2.6211,2.6211,2.6211,2.6211,2.6211,2.6211,2.5729,2.5138,2.4477,2.4659,2.4713,2.4447,2.4692,2.4969,2.5236,2.4778,2.4389,2.4152,2.3654,2.3291,2.3054,2.254,2.2415,2.2658,2.3156,2.3646,0.6107,0.6161,0.6446,0.0,0.0,0.0,0.9964,1.0252,1.0466,1.101,1.2015,1.282,1.2887,1.3004,0.0,1.3988,1.4103,1.4462,1.554,1.568,1.5894,1.6423,1.6488,1.6488,1.6488,1.65,1.65,1.65,1.65,1.65,1.65,1.65,1.65,1.6488,1.65,1.65,1.6488,1.65,1.65,1.65,1.65,1.6222,1.5753,1.6872,1.741,1.7507,1.91,2.0093,2.0686,2.1757,2.2474,2.2888,2.2902,2.2902,2.2902,2.2928,2.3342,2.3917,2.3917,2.4353,2.4788,2.4135,2.4367,2.4774,2.4106,2.4517,2.5201,2.5205,2.5394,2.566,2.5853,2.5923,2.5925,2.599,2.6097,2.6211,2.6211,2.6211,2.6211,2.6211,2.6211,2.6211,2.6211,2.6211,2.6202,2.6202,2.6202,2.6202,2.6211,2.6211,2.6211,2.6194,2.6366,2.6051,2.4979,2.5245,2.5143,2.4356,2.3604,2.3573,2.4449,2.4474,2.4135,2.34,2.3393,2.3038,2.2296,2.2313,2.2692,2.34,2.341,2.4205,0.6559,0.6711,0.0,0.8074,0.0,0.0,0.0,1.0867,0.0,0.0,1.2558,1.2847,1.3016,1.3068,0.0,1.342,1.3824,1.4207,1.4525,1.4906,1.5198,1.5361,1.5716,1.5938,1.5939,1.6271,1.65,1.65,1.65,1.65,1.65,1.65,1.6328,1.5954,1.6294,1.6323,1.5944,1.631,1.65,1.65,1.65,1.6423,1.6285,1.7047,1.7613,1.8026,1.9175,2.0115,2.0958,2.2042,2.2629,2.2884,2.3406,2.3601,2.3647,2.4085,2.4363,2.4592,2.5079,2.5067,2.4868,2.5151,2.5079,2.4849,2.4619,2.4856,2.5266,2.5599,2.594,2.6378,2.7001,2.7244,2.7117,2.6327,2.6168,2.6211,2.6211,2.6211,2.6211,2.6211,2.6211,2.6211,2.6211,2.6626,2.6967,2.6967,2.7088,2.6947,2.6277,2.6211,2.5929,2.5209,2.5364,2.5195,2.4405,2.392,2.3756,2.3935,2.3087,2.2875,2.3557,2.3042,2.2639,2.2413,2.2413,2.2312,2.2087,2.2692,2.3116,2.3352,2.4435,2.5178,0.6799,0.6989,0.0,0.8376,0.8806,0.9303,1.0627,0.0,0.0,0.0,1.282,1.289,1.3072,1.3124,0.0,1.3189,1.35,1.3837,1.4069,1.4384,1.4664,1.4868,1.5364,1.5695,1.5702,1.6193,1.65,1.65,1.65,1.65,1.65,1.65,1.6352,1.6022,1.6328,1.6337,1.6019,1.6348,1.65,1.65,1.65,1.65,1.6536,1.735,1.789,1.8278,1.9471,2.0443,2.1226,2.2088,2.2546,2.2793,2.3586,2.3903,2.3975,2.4578,2.4969,2.5257,2.566,2.5705,2.562,2.5761,2.5732,2.5602,2.5286,2.5523,2.5955,2.6093,2.642,2.6784,2.7036,2.7261,2.7357,2.7128,2.6849,2.6634,2.6634,2.6419,2.6211,2.6211,2.6452,2.6634,2.6634,2.7202,2.7607,2.7446,2.7694,2.7502,2.636,2.6211,2.5979,2.5359,2.5429,2.5405,2.508,2.4604,2.4141,2.3721,2.3431,2.3513,2.4016,2.3061,2.2516,2.2516,2.2516,2.2555,2.2641,2.3245,2.373,2.4127,2.513,2.5914,0.6916,0.7118,0.7431,0.8501,0.9175,0.0,1.1479,1.1869,1.2087,1.2676,0.0,1.2943,1.3077,1.3155,1.3198,1.3198,1.3198,1.3391,1.3946,1.4018,1.4198,1.4692,1.5264,1.563,1.5634,1.6165,1.65,1.65,1.65,1.65,1.65,1.65,1.65,1.65,1.65,1.65,1.65,1.65,1.65,1.65,1.65,1.65,1.6538,1.7678,1.8254,1.8453,1.992,2.0871,2.1411,2.1949,2.2336,2.2672,2.3548,2.3903,2.3978,2.4648,2.5272,2.5805,2.5863,2.6284,2.6691,2.6081,2.6299,2.6691,2.6081,2.6403,2.6936,2.6659,2.6859,2.7044,2.6546,2.6708,2.7258,2.8339,2.7978,2.7391,2.7341,2.68,2.6334,2.6393,2.6941,2.7407,2.7407,2.7883,2.8171,2.7856,2.8252,2.8099,2.6757,2.6458,2.6366,2.6366,2.6366,2.6447,2.6651,2.6651,2.5836,2.3951,2.4506,2.5078,2.5477,2.4207,2.3506,2.3517,2.346,2.3545,2.3814,2.4,2.4589,2.5522,2.578,2.6632,0.7369,0.7678,0.0,0.9054,0.9726,1.0334,1.1099,1.1636,1.215,1.2742,1.2887,1.296,1.3146,1.3189,1.3198,1.3198,1.3198,1.3257,1.3378,1.3391,1.3441,1.3554,1.446,1.5068,1.5074,1.594,1.65,1.65,1.65,1.65,1.65,1.65,1.65,1.65,1.65,1.65,1.65,1.65,1.65,1.65,1.65,1.65,1.6538,1.7678,1.8729,1.9636,2.0092,2.0598,2.1131,2.1664,2.2114,2.2545,2.3513,2.3903,2.4033,2.5181,2.5674,2.5878,2.64,2.6676,2.6778,2.6633,2.6676,2.6778,2.6633,2.6782,2.7013,2.7045,2.7338,2.7707,2.8011,2.8608,2.9291,2.9889,2.9079,2.8044,2.7635,2.741,2.741,2.7853,2.8044,2.816,2.816,2.8579,2.9002,2.9278,2.9606,2.9768,2.9591,2.8431,2.761,2.761,2.761,2.7713,2.7976,2.7745,2.7277,2.6536,2.5868,2.5963,2.697,2.5749,2.5074,2.5178,2.4564,2.4648,2.5475,2.5632,2.6194,2.7123,2.7906,2.8442,0.7511,0.0,0.0,0.9228,0.0,1.0137,1.0964,1.139,1.1875,1.2809,1.3007,1.3042,1.3172,1.3198,1.3198,1.3198,1.3198,1.3198,1.3198,1.3198,1.3198,1.3198,1.4208,1.4895,1.49,1.5869,1.65,1.65,1.65,1.65,1.65,1.65,1.65,1.65,1.65,1.65,1.65,1.65,1.65,1.65,1.65,1.6649,1.6961,1.7815,1.8818,1.9888,1.9699,2.0077,2.0833,2.1111,2.165,2.2404,2.3478,2.3903,2.4019,2.5006,2.554,2.5854,2.6195,2.6531,2.6792,2.6792,2.6792,2.6792,2.6792,2.6859,2.6938,2.7067,2.7308,2.7648,2.8033,2.8622,2.9353,3.0279,2.9936,2.9334,2.9049,2.8463,2.8058,2.8343,2.8392,2.8392,2.8392,2.9152,2.9782,2.9848,2.9754,2.987,3.0426,2.9575,2.8725,2.8236,2.8181,2.8247,2.8382,2.8236,2.8049,2.7834,2.7302,2.7296,2.7995,2.7227,2.6704,2.6527,2.5844,2.5841,2.6483,2.6613,2.7022,2.7706,2.7838,2.8087,0.7511,0.0,0.8393,0.9276,0.9576,0.0,1.0884,1.1242,1.1699,1.2861,1.3107,1.3124,1.3189,1.3198,1.3198,1.3198,1.3198,1.3198,1.3198,1.3198,1.3198,1.3198,1.4149,1.4851,1.4978,1.5901,1.65,1.65,1.65,1.65,1.65,1.65,1.65,1.65,1.65,1.65,1.65,1.65,1.65,1.65,1.65,1.6823,1.7423,1.7864,1.8656,1.9635,1.9284,1.9685,2.0608,2.0689,2.1328,2.2297,2.3328,2.3731,2.3804,2.4471,2.5113,2.5629,2.5758,2.6241,2.6792,2.6792,2.6792,2.6792,2.6792,2.6792,2.6819,2.6938,2.7093,2.7246,2.741,2.8122,2.9064,3.0226,3.0506,3.0506,3.0506,2.9582,2.8764,2.8764,2.8734,2.8725,2.8764,2.9721,3.0268,2.9593,2.9202,2.9294,3.0151,2.9897,2.9321,2.8481,2.8411,2.8411,2.8411,2.8411,2.8411,2.8411,2.8411,2.8348,2.8225,2.8198,2.7955,2.7461,2.7203,2.7124,2.7215,2.7328,2.7581,2.7963,2.7374,2.7418,0.7511,0.0,0.9318,0.0,0.9846,1.0295,0.0,0.0,1.2263,0.0,1.3107,1.3124,1.3189,1.3198,1.3198,1.3198,1.3198,1.3198,1.3198,1.3198,1.3198,1.3198,1.3896,1.4636,1.5277,1.6039,1.65,1.65,1.65,1.65,1.65,1.65,1.65,1.65,1.65,1.65,1.65,1.65,1.65,1.65,1.65,1.6823,1.741,1.7462,1.8091,1.9121,1.9522,2.0042,2.0647,2.1094,2.1649,2.2268,2.2815,2.303,2.3102,2.3789,2.4413,2.5023,2.5602,2.6241,2.6792,2.6792,2.6792,2.6792,2.6792,2.6792,2.6792,2.6819,2.6859,2.6871,2.6897,2.8551,3.0268,3.0464,3.0506,3.0506,3.0506,3.034,3.0218,3.0218,3.0089,2.9999,3.0187,3.0373,2.9913,2.8177,2.8247,2.8696,2.9225,2.8893,2.8553,2.8408,2.8411,2.8411,2.8411,2.8411,2.8411,2.8411,2.8411,2.7885,2.6748,2.7606,2.7976,2.7672,2.8501,2.8676,2.8131,2.8082,2.8263,2.8673,2.8676,2.8756,0.7558,0.8358,0.8988,0.0,0.9678,1.011,1.1087,1.1722,1.2291,1.3013,1.3155,1.3163,1.3189,1.3198,1.3198,1.3198,1.3198,1.3319,1.3656,1.3693,1.3828,1.4111,1.4692,1.5202,1.5537,1.613,1.65,1.65,1.65,1.65,1.65,1.65,1.65,1.65,1.65,1.65,1.65,1.65,1.65,1.65,1.65,1.6636,1.6923,1.7551,1.8267,1.8995,1.8932,1.9557,2.0582,2.0452,2.1112,2.2212,2.235,2.2592,2.2943,2.3229,2.3818,2.4517,2.4802,2.5745,2.6806,2.6883,2.6871,2.6806,2.6883,2.6871,2.6832,2.6974,2.6923,2.6871,2.7168,2.8869,3.0506,3.0506,3.0506,3.0199,2.91,2.9722,3.0506,3.0506,3.0,2.9436,2.8966,2.8884,2.8591,2.7735,2.78,2.8039,2.8229,2.8332,2.8411,2.8411,2.8411,2.8411,2.8411,2.8411,2.8411,2.8411,2.7688,2.7022,2.6422,2.665,2.6836,2.686,2.7989,2.8457,2.8231,2.822,2.8001,2.7636,2.8111,2.8112,0.7642,0.8147,0.8574,0.9324,0.9642,1.0177,0.0,0.0,1.227,0.0,1.3198,1.3198,1.3198,1.3198,1.3198,1.3198,1.3328,1.3584,1.4044,1.4286,1.4579,1.4984,1.5552,1.5902,1.5896,1.6264,1.65,1.65,1.65,1.65,1.65,1.65,1.65,1.65,1.65,1.65,1.65,1.65,1.65,1.65,1.65,1.65,1.6525,1.7539,1.828,1.8795,1.8656,1.9354,2.0506,1.9945,2.0653,2.2091,2.1971,2.2294,2.2843,2.2888,2.3312,2.3919,2.4243,2.5434,2.6819,2.6922,2.6922,2.6909,2.7011,2.6935,2.6832,2.7039,2.7052,2.7155,2.781,2.923,3.0506,3.0506,3.0506,3.0049,2.8359,2.912,3.0151,3.0151,2.9481,2.8641,2.7748,2.76,2.76,2.76,2.76,2.76,2.76,2.8063,2.8411,2.8411,2.8411,2.8411,2.8411,2.8411,2.8411,2.8411,2.7146,2.6237,2.5883,2.5735,2.5717,2.5786,2.6889,2.7517,2.7639,2.7736,2.7409,2.6691,2.7266,2.7232,0.7749,0.8147,0.8574,0.9324,1.0023,1.0951,0.0,0.0,1.2378,1.306,1.3198,1.3198,1.3198,1.3198,1.3198,1.3198,1.3681,1.4056,1.4103,1.4811,1.5334,1.5372,1.6022,1.6461,1.6461,1.6486,1.65,1.65,1.65,1.65,1.65,1.65,1.65,1.65,1.65,1.65,1.65,1.65,1.65,1.65,1.65,1.65,1.6523,1.7149,1.7727,1.8304,1.9296,1.9978,2.0383,2.0173,2.0755,2.1807,2.1742,2.2122,2.2729,2.2843,2.2939,2.3139,2.4348,2.5651,2.6792,2.6806,2.6989,2.7181,2.7194,2.7015,2.6792,2.6819,2.7181,2.7773,2.8771,2.9771,3.0506,3.0506,3.0506,3.0236,2.9248,2.9098,2.9167,2.9167,2.8775,2.8262,2.77,2.76,2.76,2.76,2.76,2.76,2.76,2.8063,2.8411,2.8411,2.8411,2.8411,2.8411,2.8411,2.8411,2.8411,2.7146,2.5806,2.4461,2.5005,2.5116,2.4682,2.5558,2.6046,2.612,2.65,2.6665,2.6606,2.67,2.6733,0.7246,0.7877,0.8574,0.9324,0.9697,1.0314,1.1951,1.2184,1.2283,1.3043,1.3198,1.3198,1.3198,1.3198,1.3198,1.3198,1.3715,1.4215,1.4576,1.5188,1.572,1.6072,1.6337,1.65,1.65,1.65,1.65,1.65,1.65,1.65,1.65,1.65,1.65,1.65,1.65,1.65,1.65,1.65,1.65,1.65,1.65,1.65,1.6525,1.7488,1.8016,1.823,1.897,1.9459,1.9704,1.9021,1.9586,2.0795,2.0425,2.1326,2.2831,2.2877,2.2888,2.2972,2.3409,2.4996,2.6792,2.6792,2.7091,2.7461,2.7461,2.7384,2.7308,2.7308,2.7448,2.7763,2.8465,2.9121,2.9605,2.9605,2.9369,2.8967,2.8289,2.8143,2.8143,2.8143,2.8011,2.784,2.7638,2.76,2.76,2.76,2.76,2.76,2.76,2.8063,2.8411,2.8411,2.8411,2.8411,2.8411,2.8411,2.8411,2.8411,2.6287,2.4825,2.4322,2.4522,2.4626,2.4539,2.4976,2.5369,2.5761,2.7059,2.7264,2.6486,2.7112,2.7156,0.6953,0.7577,0.0,0.0,0.9518,0.9908,1.1302,1.1732,1.2042,1.2776,1.3073,1.3198,1.3198,1.3198,1.3198,1.3198,1.3857,1.4494,1.4857,1.5517,1.6097,1.645,1.65,1.65,1.65,1.65,1.65,1.65,1.65,1.65,1.65,1.65,1.65,1.65,1.65,1.65,1.65,1.65,1.65,1.65,1.65,1.65,1.6525,1.7489,1.8028,1.8216,1.838,1.8792,1.9255,1.8291,1.8783,2.0084,1.9575,2.072,2.2684,2.2831,2.2888,2.3028,2.3899,2.477,2.5487,2.5487,2.5845,2.6432,2.733,2.76,2.76,2.76,2.76,2.7675,2.8039,2.8353,2.859,2.859,2.8353,2.8026,2.7675,2.76,2.76,2.76,2.76,2.76,2.76,2.76,2.76,2.76,2.76,2.7663,2.7838,2.8189,2.8411,2.8411,2.8411,2.8042,2.7092,2.7015,2.7015,2.7015,2.5307,2.4292,2.4292,2.4292,2.4349,2.4421,2.4792,2.5111,2.5397,2.6831,2.7142,2.6383,2.7103,2.7173,0.0,0.0,0.0,0.0,0.0,0.0,1.0688,1.1216,1.1674,1.2279,1.2839,1.3198,1.3198,1.3198,1.3198,1.3198,1.4158,1.4891,1.489,1.5823,1.65,1.65,1.65,1.65,1.65,1.65,1.65,1.65,1.65,1.65,1.65,1.65,1.65,1.65,1.65,1.65,1.65,1.65,1.65,1.65,1.65,1.65,1.6523,1.7123,1.7677,1.8154,1.7625,1.8058,1.9069,1.8077,1.8469,1.9656,1.9201,2.0329,2.2278,2.2729,2.2939,2.3364,2.5883,2.5127,2.3038,2.3038,2.336,2.4193,2.6806,2.76,2.76,2.76,2.76,2.76,2.76,2.754,2.748,2.748,2.748,2.748,2.748,2.748,2.751,2.7585,2.76,2.76,2.76,2.76,2.76,2.76,2.7597,2.7813,2.8323,2.8411,2.8411,2.8411,2.8411,2.7288,2.4522,2.4292,2.4292,2.4292,2.4292,2.4292,2.4292,2.4292,2.4292,2.4292,2.4938,2.5186,2.4995,2.5677,2.6108,2.6304,2.6573,2.67,0.6953,0.0,0.0,0.0,0.0,0.0,0.0,1.1114,1.1674,1.2279,1.2839,1.3198,1.3198,1.3198,1.3198,1.3198,1.4163,1.4904,1.4898,1.5823,1.65,1.65,1.65,1.65,1.65,1.65,1.65,0.0,1.65,1.65,1.65,1.65,1.65,1.65,1.65,1.65,1.65,1.65,1.65,1.65,1.65,1.65,1.6523,1.7123,1.7475,1.7613,1.7462,1.7582,1.7838,1.7134,1.7062,1.7395,1.728,1.9471,2.2718,2.2843,2.4107,2.572,2.572,2.584,2.6041,2.6245,2.6397,2.6626,2.7388,2.76,2.76,2.76,2.76,2.76,2.76,2.6162,2.4713,2.4713,2.4713,2.4713,2.4713,2.4713,2.5282,2.7225,2.76,2.76,2.76,2.76,2.76,2.76,2.794,2.8238,2.8372,2.8411,2.8411,2.8411,2.8411,2.7288,2.4522,2.4292,2.4292,2.4292,2.4292,2.4292,2.4292,2.4292,2.4292,2.4292,2.4476,2.473,2.4995,2.5918,2.6321,2.6241,2.6547,2.67,0.7347,0.0,0.0,0.0,0.0,0.0,1.0171,1.073,1.1335,1.1944,1.2488,1.2922,1.316,1.3198,1.3198,1.3198,1.3964,1.4632,1.4863,1.5823,1.65,1.65,1.65,1.65,1.65,1.65,1.65,1.65,1.65,1.65,1.65,1.65,1.65,1.65,1.65,1.65,1.65,1.65,1.65,1.65,1.65,1.65,1.65,1.6861,1.7149,1.7385,1.7135,1.7291,1.7684,1.7166,1.6787,1.6566,1.7265,1.9749,2.2888,2.2888,2.4197,2.5918,2.561,2.6325,2.7377,2.7447,2.753,2.76,2.76,2.76,2.76,2.76,2.76,2.76,2.76,2.6447,2.4983,2.3864,2.3595,2.3595,2.3595,2.4477,2.5731,2.73,2.76,2.8021,2.9366,2.9602,2.9602,2.9602,2.9865,3.0074,3.0074,2.9089,2.8411,2.8411,2.7369,2.603,2.443,2.4292,2.4292,2.4292,2.4292,2.4292,2.4292,2.4292,2.4292,2.4292,2.4292,2.4533,2.5042,2.5731,2.6197,2.6409,2.6607,2.67,0.805,0.8381,0.0,0.0,0.9346,0.0,0.9789,1.0272,1.0851,1.1392,1.1928,1.246,1.2929,1.302,1.3041,1.31,1.3606,1.4206,1.4812,1.577,1.6425,1.6488,1.65,1.6511,1.6522,1.6511,1.6511,1.6522,1.6511,1.65,1.65,1.65,1.65,1.65,1.65,1.65,1.65,1.65,1.65,1.65,1.65,1.65,1.65,1.65,1.6787,1.7274,1.6799,1.7176,1.8091,1.7853,1.7387,1.6983,1.8681,2.0802,2.2888,2.2888,2.3742,2.4955,2.5539,2.6533,2.753,2.7377,2.7447,2.76,2.76,2.76,2.76,2.76,2.76,2.76,2.76,2.76,2.7001,2.4608,2.4044,2.4044,2.4044,2.5923,2.7702,2.7989,2.8085,2.9042,3.1914,3.2398,3.2398,3.2398,3.2398,3.2398,3.2398,3.032,2.8722,2.8427,2.6199,2.463,2.4322,2.4292,2.4292,2.4292,2.4292,2.4292,2.4292,2.4292,2.4302,2.4328,2.4369,2.4614,2.5089,2.5408,2.5953,2.67,2.67,2.67,0.8946,0.8946,0.8942,0.992,0.0,0.0,0.9854,1.0312,1.0723,1.0851,1.1349,1.1789,1.1893,1.1907,1.2049,1.2484,1.3025,1.3731,1.4763,1.5447,1.6019,1.645,1.65,1.6532,1.6654,1.6554,1.6532,1.6654,1.6554,1.65,1.65,1.65,1.65,1.65,1.65,1.65,1.65,1.65,1.65,1.65,1.65,1.65,1.65,1.65,1.655,1.6699,1.7061,1.7349,1.7613,1.8405,1.8737,1.8939,2.0845,2.2123,2.2888,2.2888,2.3951,2.5367,2.539,2.6216,2.7307,2.7475,2.7572,2.76,2.76,2.76,2.76,2.76,2.76,2.76,2.76,2.76,2.7465,2.6941,2.6821,2.6821,2.6821,2.7225,2.8229,3.0329,3.1122,3.1658,3.2292,3.2398,3.2398,3.2398,3.2398,3.2398,3.2398,3.1936,3.0782,2.8642,2.7922,2.6692,2.4492,2.4292,2.4292,2.4292,2.4292,2.4292,2.4292,2.4292,2.4349,2.4467,2.4726,2.4916,2.5019,2.5719,2.6279,2.67,2.67,2.67,0.975,0.9917,1.0034,1.0412,0.0,0.0,0.0,1.0112,1.0379,1.0642,1.0944,1.1238,1.1544,1.1595,1.1694,1.1958,1.2443,1.309,1.3926,1.4774,1.5502,1.6045,1.6162,1.6328,1.6671,1.6695,1.6705,1.6697,1.6588,1.65,1.65,1.65,1.65,1.65,1.65,1.65,1.65,1.65,1.65,1.65,1.65,1.65,1.65,1.65,1.6661,1.6974,1.7261,1.7701,1.823,1.877,1.9368,2.0065,2.1312,2.215,2.2669,2.2834,2.3716,2.485,2.5187,2.5956,2.6893,2.7432,2.76,2.76,2.76,2.76,2.76,2.76,2.76,2.76,2.76,2.76,2.76,2.76,2.76,2.76,2.76,2.862,2.9925,3.1256,3.1739,3.2051,3.2356,3.2398,3.2398,3.2398,3.2398,3.2398,3.2398,3.1228,2.9889,2.855,2.7169,2.5799,2.4415,2.4292,2.4292,2.4292,2.4292,2.4292,2.4292,2.4292,2.4338,2.44,2.4574,2.4861,2.524,2.6066,2.6547,2.67,2.67,2.67,0.0,1.0914,1.1116,0.0,0.0,1.0498,0.0,0.0,0.0,1.0759,1.0873,1.1015,1.1513,1.1507,1.1464,1.1586,0.0,0.0,0.0,1.3761,0.0,1.5452,1.5646,1.5934,1.6513,1.6656,1.6708,1.6663,1.6487,1.6419,1.6498,1.6522,1.6522,1.65,1.65,1.65,1.65,1.65,1.65,1.65,1.65,1.65,1.65,1.6645,1.6958,1.741,1.766,1.8216,1.9008,1.9145,1.9748,2.0648,2.1185,2.1788,2.2406,2.2806,2.3431,2.4205,2.4927,2.5682,2.6453,2.7322,2.76,2.76,2.76,2.76,2.76,2.76,2.76,2.76,2.76,2.76,2.76,2.76,2.76,2.76,2.76,2.9654,3.1511,3.1511,3.1511,3.1654,3.2134,3.2328,3.2213,3.1719,3.1628,3.1628,3.1628,2.9735,2.8211,2.7673,2.5615,2.4292,2.4292,2.4292,2.4292,2.4292,2.4292,2.4292,2.4292,2.4292,2.4292,2.4292,2.44,2.4859,2.5735,2.6376,2.67,2.67,2.67,2.67,0.0,0.0,0.0,0.0,1.0953,0.0,0.0,0.0,1.0775,1.1373,0.0,1.1517,0.0,0.0,0.0,0.0,0.0,0.0,1.1702,1.2304,1.3257,1.4818,1.4994,1.5287,1.6002,1.6084,1.6219,1.6505,1.6176,1.6123,1.6486,1.6609,1.662,1.65,1.65,1.65,1.65,1.65,1.65,1.65,1.65,1.65,1.6523,1.718,1.7447,1.7461,1.8524,1.9005,1.9058,1.9649,2.0169,2.0648,2.1185,2.1736,2.2292,2.2869,2.3509,2.4167,2.4611,2.5336,2.622,2.7252,2.76,2.76,2.76,2.76,2.76,2.76,2.76,2.76,2.76,2.76,2.76,2.76,2.76,2.76,2.76,2.9654,3.1511,3.1511,3.1511,3.151,3.1582,3.2051,3.1582,2.9212,2.8858,2.8858,2.8858,2.8584,2.7473,2.503,2.4492,2.4292,2.4292,2.4292,2.4292,2.4292,2.4292,2.4292,2.4292,2.4292,2.4292,2.4292,2.4716,2.546,2.6556,2.6657,2.67,2.67,2.67,2.67,0.0,0.0,0.0,0.0,0.0,0.0,1.0844,0.0,1.129,0.0,0.0,0.0,0.0,0.0,0.0,0.0,1.1165,0.0,0.0,0.0,1.2429,1.3751,0.0,0.0,1.5463,1.5501,1.5557,1.5726,1.584,1.5995,1.62,1.6519,1.6675,1.662,1.6532,1.65,1.65,1.65,1.65,1.65,1.65,1.6791,1.7306,1.7071,1.7463,1.8356,1.874,1.9182,1.9661,1.9902,2.0245,2.0635,2.1057,2.1673,2.2381,2.291,2.3374,2.3869,2.4783,2.5236,2.5662,2.7115,2.6551,2.5282,2.5282,2.6372,2.76,2.76,2.76,2.76,2.76,2.76,2.76,2.76,2.76,2.76,2.76,2.9654,3.1511,3.1511,3.1782,3.1536,2.9974,2.9922,2.9704,2.8581,2.8411,2.8411,2.8411,2.8411,2.7953,2.6811,2.6676,2.6676,2.6676,2.6676,2.6676,2.6676,2.5184,2.4292,2.4292,2.4292,2.4292,2.4292,2.5406,2.6218,2.67,2.67,2.67,2.67,2.67,2.67,1.2298,0.0,0.0,0.0,0.0,0.0,0.0,0.0,0.0,0.0,0.0,0.0,0.0,0.0,0.0,0.0,0.0,1.1199,0.0,1.1075,0.0,0.0,0.0,0.0,0.0,1.4897,1.4977,1.5127,1.5532,1.5839,1.5992,1.6497,1.6771,1.6761,1.6663,1.6607,1.6607,1.6607,1.6607,1.6607,1.6759,1.7191,1.7835,1.7441,1.7935,1.9111,1.9215,1.9596,2.0182,2.0207,2.046,2.086,2.1294,2.1894,2.2588,2.3025,2.3319,2.362,2.4572,2.4784,2.4949,2.6959,2.6282,2.4698,2.4698,2.6072,2.76,2.76,2.76,2.76,2.76,2.76,2.76,2.76,2.76,2.765,2.7788,2.9884,3.1754,3.1754,3.2092,3.1782,2.9827,2.8889,2.8411,2.8411,2.8411,2.8411,2.8411,2.8411,2.8411,2.8411,2.8411,2.8411,2.8411,2.8411,2.8411,2.8411,2.5815,2.4292,2.4292,2.4292,2.4405,2.465,2.6006,2.67,2.67,2.67,2.67,2.67,2.67,2.67,0.0,0.0,0.0,1.2489,0.0,0.0,0.0,0.0,1.2515,0.0,0.0,0.0,0.0,0.0,0.0,0.0,0.0,0.0,0.0,0.0,0.0,0.0,0.0,0.0,0.0,1.4317,1.458,0.0,1.5254,1.5592,1.5977,1.663,1.696,1.6897,1.6886,1.6886,1.6886,1.6886,1.6886,1.6888,1.7405,1.7686,1.7737,1.8751,1.9266,1.9425,2.0276,2.0548,2.041,2.0672,2.1006,2.1438,2.2106,2.2571,2.2927,2.3271,2.3404,2.344,2.3595,2.3655,2.4081,2.6746,2.754,2.7465,2.7465,2.7525,2.76,2.76,2.76,2.76,2.76,2.76,2.76,2.76,2.76,2.7738,2.8262,3.0479,3.237,3.237,3.2398,3.2367,3.2288,3.012,2.8411,2.8411,2.8411,2.8411,2.8411,2.8411,2.8411,2.8411,2.8411,2.8411,2.8411,2.8411,2.8411,2.8411,2.5815,2.4292,2.4292,2.4292,2.469,2.554,2.6305,2.67,2.67,2.67,2.67,2.67,2.67,2.67,0.0,0.0,1.3047,1.2538,0.0,0.0,0.0,0.0,0.0,0.0,0.0,0.0,0.0,0.0,0.0,0.0,0.0,0.0,0.0,0.0,0.0,0.0,0.0,0.0,0.0,0.0,1.3838,1.4061,1.4817,0.0,1.565,1.6465,1.6939,1.6971,1.6918,1.6897,1.6897,1.6897,1.7078,1.7439,1.762,1.814,1.8952,1.8866,1.9363,2.0288,2.057,2.0799,2.0946,2.103,2.142,2.1951,2.2273,2.3337,2.4634,2.4262,2.4161,2.4232,2.4456,2.5267,2.6402,2.73,2.76,2.76,2.76,2.76,2.76,2.76,2.76,2.76,2.76,2.76,2.76,2.76,2.7863,2.8189,2.836,3.0505,3.2398,3.2398,3.2398,3.2398,3.2398,3.1643,3.0443,2.8673,2.8411,2.8411,2.8411,2.8411,2.8411,2.8411,2.8411,2.8411,2.8411,2.8411,2.8411,2.8411,2.7534,2.7148,2.7471,2.7825,2.934,3.2153,3.246,3.163,2.9677,2.9001,2.8002,2.67,2.67,2.67,1.312,1.3163,0.0,1.2776,1.2943,0.0,1.2755,0.0,1.3625,0.0,0.0,0.0,0.0,0.0,0.0,0.0,0.0,0.0,0.0,1.1811,0.0,0.0,0.0,0.0,0.0,1.3429,1.3476,1.359,1.4449,1.5107,0.0,1.6231,1.6785,1.7063,1.7034,1.7013,1.7013,1.7219,1.7506,1.7845,1.8256,1.8882,1.9665,1.945,1.9834,2.0699,2.0699,2.0898,2.1204,2.1348,2.1779,2.2387,2.2883,2.395,2.517,2.4804,2.4794,2.5004,2.5425,2.6144,2.6971,2.745,2.76,2.76,2.76,2.76,2.76,2.76,2.76,2.76,2.76,2.76,2.765,2.7838,2.8137,2.8411,2.8411,2.9766,3.0982,3.0982,3.0982,3.0982,3.0982,3.0982,3.0381,2.8658,2.8411,2.8411,2.8411,2.8411,2.8411,2.8411,2.8411,2.8411,2.8411,2.8411,2.8411,2.8411,2.8411,2.8708,2.9366,3.0017,3.2009,3.5521,3.56,3.4653,3.2763,2.9982,2.8239,2.7495,2.6953,2.67]}]]